<?xml version="1.0" encoding="UTF-8" standalone="no" ?>
<gpx xmlns="http://www.topografix.com/GPX/1/1" xmlns:xsi="http://www.w3.org/2001/XMLSchema-instance" xsi:schemaLocation="http://www.topografix.com/GPX/1/1 http://www.topografix.com/GPX/1/1/gpx.xsd" version="1.1" creator="VisuGPX - https://www.visugpx.com">
  <metadata>
    <name>Gresswiller</name>
    <desc><![CDATA[Gressw-Wasselone-Dabo-Walscheid-Donon-Grendel-Gressw.]]></desc>
  </metadata>
  <trk>
    <name><![CDATA[Chronom. 27-MARS-15 10:14:52 AM]]></name>
    <trkseg>
      <trkpt lat="48.52192" lon="7.42722">
        <ele>229.41</ele>
        <time>2015-03-27T09:14:52Z</time>
      </trkpt>
      <trkpt lat="48.52191" lon="7.42722">
        <ele>229.41</ele>
        <time>2015-03-27T09:15:05Z</time>
      </trkpt>
      <trkpt lat="48.52189" lon="7.42724">
        <ele>229.41</ele>
        <time>2015-03-27T09:15:29Z</time>
      </trkpt>
      <trkpt lat="48.52186" lon="7.42741">
        <ele>230.37</ele>
        <time>2015-03-27T09:15:46Z</time>
      </trkpt>
      <trkpt lat="48.52186" lon="7.42742">
        <ele>230.37</ele>
        <time>2015-03-27T09:15:54Z</time>
      </trkpt>
      <trkpt lat="48.52191" lon="7.42746">
        <ele>230.85</ele>
        <time>2015-03-27T09:15:58Z</time>
      </trkpt>
      <trkpt lat="48.52248" lon="7.42765">
        <ele>232.3</ele>
        <time>2015-03-27T09:16:11Z</time>
      </trkpt>
      <trkpt lat="48.52353" lon="7.42805">
        <ele>231.81</ele>
        <time>2015-03-27T09:16:28Z</time>
      </trkpt>
      <trkpt lat="48.52443" lon="7.42855">
        <ele>228.93</ele>
        <time>2015-03-27T09:16:42Z</time>
      </trkpt>
      <trkpt lat="48.52462" lon="7.42867">
        <ele>228.45</ele>
        <time>2015-03-27T09:16:45Z</time>
      </trkpt>
      <trkpt lat="48.52469" lon="7.42869">
        <ele>228.45</ele>
        <time>2015-03-27T09:16:46Z</time>
      </trkpt>
      <trkpt lat="48.52477" lon="7.4287">
        <ele>227.97</ele>
        <time>2015-03-27T09:16:47Z</time>
      </trkpt>
      <trkpt lat="48.52586" lon="7.42863">
        <ele>225.09</ele>
        <time>2015-03-27T09:17:00Z</time>
      </trkpt>
      <trkpt lat="48.52704" lon="7.42848">
        <ele>219.8</ele>
        <time>2015-03-27T09:17:14Z</time>
      </trkpt>
      <trkpt lat="48.52728" lon="7.42854">
        <ele>218.36</ele>
        <time>2015-03-27T09:17:17Z</time>
      </trkpt>
      <trkpt lat="48.5286" lon="7.42903">
        <ele>213.07</ele>
        <time>2015-03-27T09:17:33Z</time>
      </trkpt>
      <trkpt lat="48.52902" lon="7.42912">
        <ele>211.63</ele>
        <time>2015-03-27T09:17:38Z</time>
      </trkpt>
      <trkpt lat="48.5291" lon="7.42911">
        <ele>211.63</ele>
        <time>2015-03-27T09:17:39Z</time>
      </trkpt>
      <trkpt lat="48.52918" lon="7.42908">
        <ele>211.15</ele>
        <time>2015-03-27T09:17:40Z</time>
      </trkpt>
      <trkpt lat="48.52969" lon="7.42881">
        <ele>209.22</ele>
        <time>2015-03-27T09:17:47Z</time>
      </trkpt>
      <trkpt lat="48.52976" lon="7.4288">
        <ele>209.22</ele>
        <time>2015-03-27T09:17:48Z</time>
      </trkpt>
      <trkpt lat="48.52983" lon="7.4288">
        <ele>209.22</ele>
        <time>2015-03-27T09:17:49Z</time>
      </trkpt>
      <trkpt lat="48.5299" lon="7.42881">
        <ele>209.22</ele>
        <time>2015-03-27T09:17:50Z</time>
      </trkpt>
      <trkpt lat="48.52997" lon="7.42884">
        <ele>209.22</ele>
        <time>2015-03-27T09:17:51Z</time>
      </trkpt>
      <trkpt lat="48.53132" lon="7.42918">
        <ele>206.82</ele>
        <time>2015-03-27T09:18:07Z</time>
      </trkpt>
      <trkpt lat="48.53263" lon="7.42954">
        <ele>204.9</ele>
        <time>2015-03-27T09:18:23Z</time>
      </trkpt>
      <trkpt lat="48.53327" lon="7.42979">
        <ele>203.46</ele>
        <time>2015-03-27T09:18:32Z</time>
      </trkpt>
      <trkpt lat="48.53413" lon="7.43023">
        <ele>200.09</ele>
        <time>2015-03-27T09:18:44Z</time>
      </trkpt>
      <trkpt lat="48.53469" lon="7.43058">
        <ele>198.65</ele>
        <time>2015-03-27T09:18:52Z</time>
      </trkpt>
      <trkpt lat="48.53475" lon="7.4306">
        <ele>198.17</ele>
        <time>2015-03-27T09:18:53Z</time>
      </trkpt>
      <trkpt lat="48.53481" lon="7.43059">
        <ele>198.17</ele>
        <time>2015-03-27T09:18:54Z</time>
      </trkpt>
      <trkpt lat="48.53486" lon="7.43055">
        <ele>197.69</ele>
        <time>2015-03-27T09:18:55Z</time>
      </trkpt>
      <trkpt lat="48.53489" lon="7.43047">
        <ele>197.69</ele>
        <time>2015-03-27T09:18:56Z</time>
      </trkpt>
      <trkpt lat="48.53491" lon="7.43038">
        <ele>197.21</ele>
        <time>2015-03-27T09:18:57Z</time>
      </trkpt>
      <trkpt lat="48.53496" lon="7.43019">
        <ele>197.21</ele>
        <time>2015-03-27T09:18:59Z</time>
      </trkpt>
      <trkpt lat="48.53529" lon="7.42881">
        <ele>195.28</ele>
        <time>2015-03-27T09:19:13Z</time>
      </trkpt>
      <trkpt lat="48.5356" lon="7.42733">
        <ele>195.77</ele>
        <time>2015-03-27T09:19:29Z</time>
      </trkpt>
      <trkpt lat="48.53585" lon="7.4258">
        <ele>196.25</ele>
        <time>2015-03-27T09:19:45Z</time>
      </trkpt>
      <trkpt lat="48.53585" lon="7.42571">
        <ele>196.25</ele>
        <time>2015-03-27T09:19:46Z</time>
      </trkpt>
      <trkpt lat="48.53584" lon="7.42561">
        <ele>196.25</ele>
        <time>2015-03-27T09:19:47Z</time>
      </trkpt>
      <trkpt lat="48.53582" lon="7.42551">
        <ele>196.25</ele>
        <time>2015-03-27T09:19:48Z</time>
      </trkpt>
      <trkpt lat="48.53579" lon="7.42542">
        <ele>196.25</ele>
        <time>2015-03-27T09:19:49Z</time>
      </trkpt>
      <trkpt lat="48.53576" lon="7.42534">
        <ele>196.25</ele>
        <time>2015-03-27T09:19:50Z</time>
      </trkpt>
      <trkpt lat="48.53572" lon="7.42527">
        <ele>196.25</ele>
        <time>2015-03-27T09:19:51Z</time>
      </trkpt>
      <trkpt lat="48.53567" lon="7.42521">
        <ele>196.25</ele>
        <time>2015-03-27T09:19:52Z</time>
      </trkpt>
      <trkpt lat="48.53564" lon="7.42514">
        <ele>196.25</ele>
        <time>2015-03-27T09:19:53Z</time>
      </trkpt>
      <trkpt lat="48.53562" lon="7.42507">
        <ele>196.25</ele>
        <time>2015-03-27T09:19:54Z</time>
      </trkpt>
      <trkpt lat="48.53563" lon="7.425">
        <ele>196.25</ele>
        <time>2015-03-27T09:19:55Z</time>
      </trkpt>
      <trkpt lat="48.53563" lon="7.42492">
        <ele>196.25</ele>
        <time>2015-03-27T09:19:56Z</time>
      </trkpt>
      <trkpt lat="48.53565" lon="7.42485">
        <ele>196.25</ele>
        <time>2015-03-27T09:19:57Z</time>
      </trkpt>
      <trkpt lat="48.53566" lon="7.42477">
        <ele>196.73</ele>
        <time>2015-03-27T09:19:58Z</time>
      </trkpt>
      <trkpt lat="48.53606" lon="7.42362">
        <ele>200.09</ele>
        <time>2015-03-27T09:20:14Z</time>
      </trkpt>
      <trkpt lat="48.53658" lon="7.42326">
        <ele>204.9</ele>
        <time>2015-03-27T09:20:25Z</time>
      </trkpt>
      <trkpt lat="48.53736" lon="7.42326">
        <ele>208.26</ele>
        <time>2015-03-27T09:20:38Z</time>
      </trkpt>
      <trkpt lat="48.53742" lon="7.42329">
        <ele>208.26</ele>
        <time>2015-03-27T09:20:39Z</time>
      </trkpt>
      <trkpt lat="48.53749" lon="7.42334">
        <ele>208.26</ele>
        <time>2015-03-27T09:20:40Z</time>
      </trkpt>
      <trkpt lat="48.53755" lon="7.4234">
        <ele>208.26</ele>
        <time>2015-03-27T09:20:41Z</time>
      </trkpt>
      <trkpt lat="48.53761" lon="7.42347">
        <ele>208.26</ele>
        <time>2015-03-27T09:20:42Z</time>
      </trkpt>
      <trkpt lat="48.53766" lon="7.42356">
        <ele>208.74</ele>
        <time>2015-03-27T09:20:43Z</time>
      </trkpt>
      <trkpt lat="48.53775" lon="7.42378">
        <ele>208.26</ele>
        <time>2015-03-27T09:20:45Z</time>
      </trkpt>
      <trkpt lat="48.53779" lon="7.42391">
        <ele>208.26</ele>
        <time>2015-03-27T09:20:46Z</time>
      </trkpt>
      <trkpt lat="48.53782" lon="7.42403">
        <ele>208.26</ele>
        <time>2015-03-27T09:20:47Z</time>
      </trkpt>
      <trkpt lat="48.53801" lon="7.42472">
        <ele>207.78</ele>
        <time>2015-03-27T09:20:52Z</time>
      </trkpt>
      <trkpt lat="48.53806" lon="7.42485">
        <ele>207.78</ele>
        <time>2015-03-27T09:20:53Z</time>
      </trkpt>
      <trkpt lat="48.53813" lon="7.42496">
        <ele>207.78</ele>
        <time>2015-03-27T09:20:54Z</time>
      </trkpt>
      <trkpt lat="48.53821" lon="7.42505">
        <ele>207.3</ele>
        <time>2015-03-27T09:20:55Z</time>
      </trkpt>
      <trkpt lat="48.5383" lon="7.42511">
        <ele>207.3</ele>
        <time>2015-03-27T09:20:56Z</time>
      </trkpt>
      <trkpt lat="48.53838" lon="7.42515">
        <ele>206.82</ele>
        <time>2015-03-27T09:20:57Z</time>
      </trkpt>
      <trkpt lat="48.53847" lon="7.42518">
        <ele>206.34</ele>
        <time>2015-03-27T09:20:58Z</time>
      </trkpt>
      <trkpt lat="48.53856" lon="7.4252">
        <ele>206.34</ele>
        <time>2015-03-27T09:20:59Z</time>
      </trkpt>
      <trkpt lat="48.53961" lon="7.4253">
        <ele>203.46</ele>
        <time>2015-03-27T09:21:13Z</time>
      </trkpt>
      <trkpt lat="48.54092" lon="7.4253">
        <ele>202.49</ele>
        <time>2015-03-27T09:21:31Z</time>
      </trkpt>
      <trkpt lat="48.54099" lon="7.42529">
        <ele>202.49</ele>
        <time>2015-03-27T09:21:32Z</time>
      </trkpt>
      <trkpt lat="48.54106" lon="7.42528">
        <ele>202.49</ele>
        <time>2015-03-27T09:21:33Z</time>
      </trkpt>
      <trkpt lat="48.54158" lon="7.42513">
        <ele>202.49</ele>
        <time>2015-03-27T09:21:44Z</time>
      </trkpt>
      <trkpt lat="48.5416" lon="7.42511">
        <ele>202.01</ele>
        <time>2015-03-27T09:21:45Z</time>
      </trkpt>
      <trkpt lat="48.5416" lon="7.42507">
        <ele>202.01</ele>
        <time>2015-03-27T09:21:46Z</time>
      </trkpt>
      <trkpt lat="48.54161" lon="7.42502">
        <ele>202.49</ele>
        <time>2015-03-27T09:21:47Z</time>
      </trkpt>
      <trkpt lat="48.5416" lon="7.42496">
        <ele>202.49</ele>
        <time>2015-03-27T09:21:48Z</time>
      </trkpt>
      <trkpt lat="48.54155" lon="7.42368">
        <ele>203.46</ele>
        <time>2015-03-27T09:22:02Z</time>
      </trkpt>
      <trkpt lat="48.54155" lon="7.42207">
        <ele>204.42</ele>
        <time>2015-03-27T09:22:18Z</time>
      </trkpt>
      <trkpt lat="48.54129" lon="7.42068">
        <ele>203.94</ele>
        <time>2015-03-27T09:22:33Z</time>
      </trkpt>
      <trkpt lat="48.54133" lon="7.41918">
        <ele>203.94</ele>
        <time>2015-03-27T09:22:49Z</time>
      </trkpt>
      <trkpt lat="48.54145" lon="7.41791">
        <ele>205.38</ele>
        <time>2015-03-27T09:23:03Z</time>
      </trkpt>
      <trkpt lat="48.54151" lon="7.41658">
        <ele>205.86</ele>
        <time>2015-03-27T09:23:17Z</time>
      </trkpt>
      <trkpt lat="48.54176" lon="7.4149">
        <ele>206.82</ele>
        <time>2015-03-27T09:23:35Z</time>
      </trkpt>
      <trkpt lat="48.5422" lon="7.4135">
        <ele>208.26</ele>
        <time>2015-03-27T09:23:51Z</time>
      </trkpt>
      <trkpt lat="48.54282" lon="7.41243">
        <ele>210.19</ele>
        <time>2015-03-27T09:24:05Z</time>
      </trkpt>
      <trkpt lat="48.54358" lon="7.41133">
        <ele>211.15</ele>
        <time>2015-03-27T09:24:22Z</time>
      </trkpt>
      <trkpt lat="48.54369" lon="7.4111">
        <ele>211.15</ele>
        <time>2015-03-27T09:24:25Z</time>
      </trkpt>
      <trkpt lat="48.54373" lon="7.41103">
        <ele>210.67</ele>
        <time>2015-03-27T09:24:26Z</time>
      </trkpt>
      <trkpt lat="48.54379" lon="7.41097">
        <ele>211.15</ele>
        <time>2015-03-27T09:24:27Z</time>
      </trkpt>
      <trkpt lat="48.54384" lon="7.41091">
        <ele>211.15</ele>
        <time>2015-03-27T09:24:28Z</time>
      </trkpt>
      <trkpt lat="48.5439" lon="7.41087">
        <ele>211.15</ele>
        <time>2015-03-27T09:24:29Z</time>
      </trkpt>
      <trkpt lat="48.54396" lon="7.41083">
        <ele>211.15</ele>
        <time>2015-03-27T09:24:30Z</time>
      </trkpt>
      <trkpt lat="48.54403" lon="7.41081">
        <ele>211.15</ele>
        <time>2015-03-27T09:24:31Z</time>
      </trkpt>
      <trkpt lat="48.54409" lon="7.41078">
        <ele>211.15</ele>
        <time>2015-03-27T09:24:32Z</time>
      </trkpt>
      <trkpt lat="48.54527" lon="7.4102">
        <ele>206.82</ele>
        <time>2015-03-27T09:24:52Z</time>
      </trkpt>
      <trkpt lat="48.54603" lon="7.40967">
        <ele>208.74</ele>
        <time>2015-03-27T09:25:07Z</time>
      </trkpt>
      <trkpt lat="48.54646" lon="7.40931">
        <ele>209.7</ele>
        <time>2015-03-27T09:25:16Z</time>
      </trkpt>
      <trkpt lat="48.5472" lon="7.40821">
        <ele>214.99</ele>
        <time>2015-03-27T09:25:35Z</time>
      </trkpt>
      <trkpt lat="48.54783" lon="7.40741">
        <ele>216.91</ele>
        <time>2015-03-27T09:25:48Z</time>
      </trkpt>
      <trkpt lat="48.54826" lon="7.40688">
        <ele>215.95</ele>
        <time>2015-03-27T09:25:56Z</time>
      </trkpt>
      <trkpt lat="48.54831" lon="7.40681">
        <ele>215.95</ele>
        <time>2015-03-27T09:25:57Z</time>
      </trkpt>
      <trkpt lat="48.54835" lon="7.40674">
        <ele>215.95</ele>
        <time>2015-03-27T09:25:58Z</time>
      </trkpt>
      <trkpt lat="48.54873" lon="7.40594">
        <ele>214.51</ele>
        <time>2015-03-27T09:26:12Z</time>
      </trkpt>
      <trkpt lat="48.54901" lon="7.40553">
        <ele>214.03</ele>
        <time>2015-03-27T09:26:27Z</time>
      </trkpt>
      <trkpt lat="48.549" lon="7.40553">
        <ele>214.03</ele>
        <time>2015-03-27T09:26:29Z</time>
      </trkpt>
      <trkpt lat="48.54899" lon="7.40556">
        <ele>214.03</ele>
        <time>2015-03-27T09:26:30Z</time>
      </trkpt>
      <trkpt lat="48.54897" lon="7.40559">
        <ele>214.03</ele>
        <time>2015-03-27T09:26:31Z</time>
      </trkpt>
      <trkpt lat="48.54894" lon="7.40563">
        <ele>214.03</ele>
        <time>2015-03-27T09:26:32Z</time>
      </trkpt>
      <trkpt lat="48.5489" lon="7.40568">
        <ele>214.03</ele>
        <time>2015-03-27T09:26:33Z</time>
      </trkpt>
      <trkpt lat="48.54886" lon="7.40573">
        <ele>214.51</ele>
        <time>2015-03-27T09:26:34Z</time>
      </trkpt>
      <trkpt lat="48.54871" lon="7.40598">
        <ele>214.99</ele>
        <time>2015-03-27T09:26:38Z</time>
      </trkpt>
      <trkpt lat="48.54821" lon="7.40699">
        <ele>215.47</ele>
        <time>2015-03-27T09:26:52Z</time>
      </trkpt>
      <trkpt lat="48.54817" lon="7.40704">
        <ele>215.47</ele>
        <time>2015-03-27T09:26:53Z</time>
      </trkpt>
      <trkpt lat="48.54776" lon="7.40755">
        <ele>216.91</ele>
        <time>2015-03-27T09:27:06Z</time>
      </trkpt>
      <trkpt lat="48.54783" lon="7.40745">
        <ele>217.4</ele>
        <time>2015-03-27T09:27:11Z</time>
      </trkpt>
      <trkpt lat="48.54785" lon="7.4074">
        <ele>217.4</ele>
        <time>2015-03-27T09:27:12Z</time>
      </trkpt>
      <trkpt lat="48.54792" lon="7.40731">
        <ele>217.88</ele>
        <time>2015-03-27T09:27:14Z</time>
      </trkpt>
      <trkpt lat="48.54828" lon="7.40682">
        <ele>216.91</ele>
        <time>2015-03-27T09:27:22Z</time>
      </trkpt>
      <trkpt lat="48.54872" lon="7.40589">
        <ele>215.47</ele>
        <time>2015-03-27T09:27:33Z</time>
      </trkpt>
      <trkpt lat="48.54942" lon="7.40501">
        <ele>215.95</ele>
        <time>2015-03-27T09:27:47Z</time>
      </trkpt>
      <trkpt lat="48.55014" lon="7.4041">
        <ele>218.84</ele>
        <time>2015-03-27T09:28:03Z</time>
      </trkpt>
      <trkpt lat="48.55103" lon="7.4034">
        <ele>223.64</ele>
        <time>2015-03-27T09:28:17Z</time>
      </trkpt>
      <trkpt lat="48.55174" lon="7.40309">
        <ele>227.01</ele>
        <time>2015-03-27T09:28:27Z</time>
      </trkpt>
      <trkpt lat="48.5518" lon="7.40311">
        <ele>227.49</ele>
        <time>2015-03-27T09:28:28Z</time>
      </trkpt>
      <trkpt lat="48.55186" lon="7.40315">
        <ele>227.97</ele>
        <time>2015-03-27T09:28:29Z</time>
      </trkpt>
      <trkpt lat="48.5519" lon="7.40322">
        <ele>228.45</ele>
        <time>2015-03-27T09:28:30Z</time>
      </trkpt>
      <trkpt lat="48.55194" lon="7.4033">
        <ele>228.93</ele>
        <time>2015-03-27T09:28:31Z</time>
      </trkpt>
      <trkpt lat="48.55197" lon="7.40339">
        <ele>229.41</ele>
        <time>2015-03-27T09:28:32Z</time>
      </trkpt>
      <trkpt lat="48.55253" lon="7.40468">
        <ele>231.81</ele>
        <time>2015-03-27T09:28:45Z</time>
      </trkpt>
      <trkpt lat="48.55259" lon="7.40474">
        <ele>231.81</ele>
        <time>2015-03-27T09:28:46Z</time>
      </trkpt>
      <trkpt lat="48.55266" lon="7.40478">
        <ele>231.33</ele>
        <time>2015-03-27T09:28:47Z</time>
      </trkpt>
      <trkpt lat="48.55273" lon="7.4048">
        <ele>230.85</ele>
        <time>2015-03-27T09:28:48Z</time>
      </trkpt>
      <trkpt lat="48.5528" lon="7.4048">
        <ele>230.85</ele>
        <time>2015-03-27T09:28:49Z</time>
      </trkpt>
      <trkpt lat="48.55372" lon="7.4046">
        <ele>230.85</ele>
        <time>2015-03-27T09:29:03Z</time>
      </trkpt>
      <trkpt lat="48.5547" lon="7.40415">
        <ele>229.41</ele>
        <time>2015-03-27T09:29:20Z</time>
      </trkpt>
      <trkpt lat="48.55577" lon="7.40369">
        <ele>227.49</ele>
        <time>2015-03-27T09:29:37Z</time>
      </trkpt>
      <trkpt lat="48.55689" lon="7.40349">
        <ele>227.49</ele>
        <time>2015-03-27T09:29:54Z</time>
      </trkpt>
      <trkpt lat="48.55782" lon="7.40406">
        <ele>227.49</ele>
        <time>2015-03-27T09:30:09Z</time>
      </trkpt>
      <trkpt lat="48.55879" lon="7.40444">
        <ele>225.57</ele>
        <time>2015-03-27T09:30:24Z</time>
      </trkpt>
      <trkpt lat="48.56034" lon="7.40449">
        <ele>222.68</ele>
        <time>2015-03-27T09:30:46Z</time>
      </trkpt>
      <trkpt lat="48.56162" lon="7.4044">
        <ele>221.72</ele>
        <time>2015-03-27T09:31:04Z</time>
      </trkpt>
      <trkpt lat="48.56256" lon="7.40408">
        <ele>221.72</ele>
        <time>2015-03-27T09:31:19Z</time>
      </trkpt>
      <trkpt lat="48.56325" lon="7.40361">
        <ele>224.61</ele>
        <time>2015-03-27T09:31:33Z</time>
      </trkpt>
      <trkpt lat="48.56329" lon="7.40356">
        <ele>224.61</ele>
        <time>2015-03-27T09:31:34Z</time>
      </trkpt>
      <trkpt lat="48.56333" lon="7.40351">
        <ele>224.61</ele>
        <time>2015-03-27T09:31:35Z</time>
      </trkpt>
      <trkpt lat="48.56336" lon="7.40345">
        <ele>225.09</ele>
        <time>2015-03-27T09:31:36Z</time>
      </trkpt>
      <trkpt lat="48.56339" lon="7.40338">
        <ele>225.09</ele>
        <time>2015-03-27T09:31:37Z</time>
      </trkpt>
      <trkpt lat="48.56342" lon="7.40331">
        <ele>225.57</ele>
        <time>2015-03-27T09:31:38Z</time>
      </trkpt>
      <trkpt lat="48.56344" lon="7.40324">
        <ele>225.57</ele>
        <time>2015-03-27T09:31:39Z</time>
      </trkpt>
      <trkpt lat="48.56346" lon="7.40316">
        <ele>226.05</ele>
        <time>2015-03-27T09:31:40Z</time>
      </trkpt>
      <trkpt lat="48.56348" lon="7.40309">
        <ele>226.53</ele>
        <time>2015-03-27T09:31:41Z</time>
      </trkpt>
      <trkpt lat="48.5635" lon="7.40292">
        <ele>227.01</ele>
        <time>2015-03-27T09:31:43Z</time>
      </trkpt>
      <trkpt lat="48.56335" lon="7.40198">
        <ele>228.45</ele>
        <time>2015-03-27T09:31:55Z</time>
      </trkpt>
      <trkpt lat="48.56333" lon="7.4019">
        <ele>228.45</ele>
        <time>2015-03-27T09:31:56Z</time>
      </trkpt>
      <trkpt lat="48.56332" lon="7.40181">
        <ele>228.45</ele>
        <time>2015-03-27T09:31:57Z</time>
      </trkpt>
      <trkpt lat="48.56332" lon="7.40173">
        <ele>228.45</ele>
        <time>2015-03-27T09:31:58Z</time>
      </trkpt>
      <trkpt lat="48.56333" lon="7.40164">
        <ele>227.97</ele>
        <time>2015-03-27T09:31:59Z</time>
      </trkpt>
      <trkpt lat="48.56336" lon="7.40155">
        <ele>227.97</ele>
        <time>2015-03-27T09:32:00Z</time>
      </trkpt>
      <trkpt lat="48.56339" lon="7.40145">
        <ele>227.97</ele>
        <time>2015-03-27T09:32:01Z</time>
      </trkpt>
      <trkpt lat="48.56344" lon="7.40137">
        <ele>227.97</ele>
        <time>2015-03-27T09:32:02Z</time>
      </trkpt>
      <trkpt lat="48.56349" lon="7.40128">
        <ele>227.49</ele>
        <time>2015-03-27T09:32:03Z</time>
      </trkpt>
      <trkpt lat="48.56385" lon="7.4008">
        <ele>227.01</ele>
        <time>2015-03-27T09:32:09Z</time>
      </trkpt>
      <trkpt lat="48.56391" lon="7.40074">
        <ele>227.01</ele>
        <time>2015-03-27T09:32:10Z</time>
      </trkpt>
      <trkpt lat="48.56399" lon="7.40069">
        <ele>227.01</ele>
        <time>2015-03-27T09:32:11Z</time>
      </trkpt>
      <trkpt lat="48.56407" lon="7.40065">
        <ele>227.01</ele>
        <time>2015-03-27T09:32:12Z</time>
      </trkpt>
      <trkpt lat="48.56415" lon="7.40063">
        <ele>227.01</ele>
        <time>2015-03-27T09:32:13Z</time>
      </trkpt>
      <trkpt lat="48.56423" lon="7.40062">
        <ele>226.53</ele>
        <time>2015-03-27T09:32:14Z</time>
      </trkpt>
      <trkpt lat="48.56432" lon="7.40061">
        <ele>226.53</ele>
        <time>2015-03-27T09:32:15Z</time>
      </trkpt>
      <trkpt lat="48.56441" lon="7.40061">
        <ele>226.53</ele>
        <time>2015-03-27T09:32:16Z</time>
      </trkpt>
      <trkpt lat="48.56507" lon="7.40067">
        <ele>226.05</ele>
        <time>2015-03-27T09:32:23Z</time>
      </trkpt>
      <trkpt lat="48.56516" lon="7.40063">
        <ele>225.57</ele>
        <time>2015-03-27T09:32:24Z</time>
      </trkpt>
      <trkpt lat="48.56525" lon="7.40058">
        <ele>225.57</ele>
        <time>2015-03-27T09:32:25Z</time>
      </trkpt>
      <trkpt lat="48.56533" lon="7.40051">
        <ele>225.57</ele>
        <time>2015-03-27T09:32:26Z</time>
      </trkpt>
      <trkpt lat="48.56541" lon="7.40043">
        <ele>225.57</ele>
        <time>2015-03-27T09:32:27Z</time>
      </trkpt>
      <trkpt lat="48.56549" lon="7.40035">
        <ele>225.09</ele>
        <time>2015-03-27T09:32:28Z</time>
      </trkpt>
      <trkpt lat="48.56555" lon="7.40026">
        <ele>224.61</ele>
        <time>2015-03-27T09:32:29Z</time>
      </trkpt>
      <trkpt lat="48.56562" lon="7.40017">
        <ele>224.61</ele>
        <time>2015-03-27T09:32:30Z</time>
      </trkpt>
      <trkpt lat="48.56663" lon="7.39908">
        <ele>223.16</ele>
        <time>2015-03-27T09:32:46Z</time>
      </trkpt>
      <trkpt lat="48.56673" lon="7.39899">
        <ele>222.68</ele>
        <time>2015-03-27T09:32:48Z</time>
      </trkpt>
      <trkpt lat="48.56679" lon="7.39896">
        <ele>222.68</ele>
        <time>2015-03-27T09:32:49Z</time>
      </trkpt>
      <trkpt lat="48.56684" lon="7.39895">
        <ele>223.16</ele>
        <time>2015-03-27T09:32:50Z</time>
      </trkpt>
      <trkpt lat="48.56688" lon="7.39899">
        <ele>223.16</ele>
        <time>2015-03-27T09:32:51Z</time>
      </trkpt>
      <trkpt lat="48.56692" lon="7.39907">
        <ele>223.16</ele>
        <time>2015-03-27T09:32:52Z</time>
      </trkpt>
      <trkpt lat="48.56695" lon="7.39916">
        <ele>223.16</ele>
        <time>2015-03-27T09:32:53Z</time>
      </trkpt>
      <trkpt lat="48.56697" lon="7.39926">
        <ele>223.16</ele>
        <time>2015-03-27T09:32:54Z</time>
      </trkpt>
      <trkpt lat="48.56699" lon="7.39936">
        <ele>223.16</ele>
        <time>2015-03-27T09:32:55Z</time>
      </trkpt>
      <trkpt lat="48.56741" lon="7.40077">
        <ele>224.12</ele>
        <time>2015-03-27T09:33:09Z</time>
      </trkpt>
      <trkpt lat="48.56831" lon="7.40215">
        <ele>226.05</ele>
        <time>2015-03-27T09:33:28Z</time>
      </trkpt>
      <trkpt lat="48.56914" lon="7.40348">
        <ele>228.93</ele>
        <time>2015-03-27T09:33:47Z</time>
      </trkpt>
      <trkpt lat="48.56991" lon="7.40503">
        <ele>231.33</ele>
        <time>2015-03-27T09:34:05Z</time>
      </trkpt>
      <trkpt lat="48.57062" lon="7.40718">
        <ele>229.41</ele>
        <time>2015-03-27T09:34:23Z</time>
      </trkpt>
      <trkpt lat="48.57146" lon="7.40953">
        <ele>227.97</ele>
        <time>2015-03-27T09:34:43Z</time>
      </trkpt>
      <trkpt lat="48.57207" lon="7.41138">
        <ele>229.41</ele>
        <time>2015-03-27T09:35:01Z</time>
      </trkpt>
      <trkpt lat="48.57278" lon="7.41376">
        <ele>231.81</ele>
        <time>2015-03-27T09:35:24Z</time>
      </trkpt>
      <trkpt lat="48.57347" lon="7.41591">
        <ele>233.26</ele>
        <time>2015-03-27T09:35:46Z</time>
      </trkpt>
      <trkpt lat="48.57421" lon="7.41769">
        <ele>234.22</ele>
        <time>2015-03-27T09:36:05Z</time>
      </trkpt>
      <trkpt lat="48.57447" lon="7.41898">
        <ele>235.18</ele>
        <time>2015-03-27T09:36:17Z</time>
      </trkpt>
      <trkpt lat="48.57475" lon="7.41988">
        <ele>236.62</ele>
        <time>2015-03-27T09:36:27Z</time>
      </trkpt>
      <trkpt lat="48.57544" lon="7.42097">
        <ele>239.02</ele>
        <time>2015-03-27T09:36:43Z</time>
      </trkpt>
      <trkpt lat="48.57594" lon="7.42211">
        <ele>244.31</ele>
        <time>2015-03-27T09:37:00Z</time>
      </trkpt>
      <trkpt lat="48.57618" lon="7.42321">
        <ele>250.08</ele>
        <time>2015-03-27T09:37:16Z</time>
      </trkpt>
      <trkpt lat="48.57625" lon="7.42382">
        <ele>252.96</ele>
        <time>2015-03-27T09:37:25Z</time>
      </trkpt>
      <trkpt lat="48.57633" lon="7.42405">
        <ele>253.93</ele>
        <time>2015-03-27T09:37:29Z</time>
      </trkpt>
      <trkpt lat="48.57676" lon="7.42496">
        <ele>260.17</ele>
        <time>2015-03-27T09:37:46Z</time>
      </trkpt>
      <trkpt lat="48.57679" lon="7.42501">
        <ele>260.17</ele>
        <time>2015-03-27T09:37:47Z</time>
      </trkpt>
      <trkpt lat="48.57709" lon="7.42559">
        <ele>263.54</ele>
        <time>2015-03-27T09:37:57Z</time>
      </trkpt>
      <trkpt lat="48.5778" lon="7.42627">
        <ele>265.46</ele>
        <time>2015-03-27T09:38:11Z</time>
      </trkpt>
      <trkpt lat="48.57811" lon="7.42657">
        <ele>265.46</ele>
        <time>2015-03-27T09:38:16Z</time>
      </trkpt>
      <trkpt lat="48.57816" lon="7.42665">
        <ele>265.46</ele>
        <time>2015-03-27T09:38:17Z</time>
      </trkpt>
      <trkpt lat="48.57821" lon="7.42674">
        <ele>265.46</ele>
        <time>2015-03-27T09:38:18Z</time>
      </trkpt>
      <trkpt lat="48.57825" lon="7.42685">
        <ele>264.98</ele>
        <time>2015-03-27T09:38:19Z</time>
      </trkpt>
      <trkpt lat="48.57827" lon="7.42698">
        <ele>264.98</ele>
        <time>2015-03-27T09:38:20Z</time>
      </trkpt>
      <trkpt lat="48.5783" lon="7.42711">
        <ele>264.98</ele>
        <time>2015-03-27T09:38:21Z</time>
      </trkpt>
      <trkpt lat="48.57834" lon="7.42724">
        <ele>264.5</ele>
        <time>2015-03-27T09:38:22Z</time>
      </trkpt>
      <trkpt lat="48.57838" lon="7.42735">
        <ele>264.5</ele>
        <time>2015-03-27T09:38:23Z</time>
      </trkpt>
      <trkpt lat="48.57844" lon="7.42746">
        <ele>264.02</ele>
        <time>2015-03-27T09:38:24Z</time>
      </trkpt>
      <trkpt lat="48.5785" lon="7.42756">
        <ele>264.02</ele>
        <time>2015-03-27T09:38:25Z</time>
      </trkpt>
      <trkpt lat="48.57856" lon="7.42764">
        <ele>263.54</ele>
        <time>2015-03-27T09:38:26Z</time>
      </trkpt>
      <trkpt lat="48.57864" lon="7.42771">
        <ele>263.06</ele>
        <time>2015-03-27T09:38:27Z</time>
      </trkpt>
      <trkpt lat="48.57872" lon="7.42777">
        <ele>263.06</ele>
        <time>2015-03-27T09:38:28Z</time>
      </trkpt>
      <trkpt lat="48.57881" lon="7.42783">
        <ele>262.58</ele>
        <time>2015-03-27T09:38:29Z</time>
      </trkpt>
      <trkpt lat="48.58001" lon="7.42867">
        <ele>258.73</ele>
        <time>2015-03-27T09:38:45Z</time>
      </trkpt>
      <trkpt lat="48.58042" lon="7.42921">
        <ele>257.29</ele>
        <time>2015-03-27T09:38:51Z</time>
      </trkpt>
      <trkpt lat="48.58048" lon="7.42932">
        <ele>256.81</ele>
        <time>2015-03-27T09:38:52Z</time>
      </trkpt>
      <trkpt lat="48.58131" lon="7.43091">
        <ele>251.52</ele>
        <time>2015-03-27T09:39:04Z</time>
      </trkpt>
      <trkpt lat="48.58249" lon="7.43248">
        <ele>243.83</ele>
        <time>2015-03-27T09:39:17Z</time>
      </trkpt>
      <trkpt lat="48.58255" lon="7.43262">
        <ele>243.35</ele>
        <time>2015-03-27T09:39:18Z</time>
      </trkpt>
      <trkpt lat="48.58269" lon="7.43317">
        <ele>240.95</ele>
        <time>2015-03-27T09:39:22Z</time>
      </trkpt>
      <trkpt lat="48.5827" lon="7.43331">
        <ele>240.47</ele>
        <time>2015-03-27T09:39:23Z</time>
      </trkpt>
      <trkpt lat="48.58271" lon="7.43457">
        <ele>237.1</ele>
        <time>2015-03-27T09:39:31Z</time>
      </trkpt>
      <trkpt lat="48.58273" lon="7.43474">
        <ele>236.14</ele>
        <time>2015-03-27T09:39:32Z</time>
      </trkpt>
      <trkpt lat="48.58277" lon="7.4349">
        <ele>235.66</ele>
        <time>2015-03-27T09:39:33Z</time>
      </trkpt>
      <trkpt lat="48.58281" lon="7.43505">
        <ele>235.18</ele>
        <time>2015-03-27T09:39:34Z</time>
      </trkpt>
      <trkpt lat="48.58287" lon="7.43516">
        <ele>234.7</ele>
        <time>2015-03-27T09:39:35Z</time>
      </trkpt>
      <trkpt lat="48.58295" lon="7.43525">
        <ele>234.22</ele>
        <time>2015-03-27T09:39:36Z</time>
      </trkpt>
      <trkpt lat="48.58303" lon="7.43532">
        <ele>233.74</ele>
        <time>2015-03-27T09:39:37Z</time>
      </trkpt>
      <trkpt lat="48.58312" lon="7.4354">
        <ele>233.26</ele>
        <time>2015-03-27T09:39:38Z</time>
      </trkpt>
      <trkpt lat="48.58319" lon="7.43552">
        <ele>232.3</ele>
        <time>2015-03-27T09:39:39Z</time>
      </trkpt>
      <trkpt lat="48.58324" lon="7.43568">
        <ele>231.81</ele>
        <time>2015-03-27T09:39:40Z</time>
      </trkpt>
      <trkpt lat="48.58328" lon="7.43585">
        <ele>231.33</ele>
        <time>2015-03-27T09:39:41Z</time>
      </trkpt>
      <trkpt lat="48.58331" lon="7.43602">
        <ele>230.85</ele>
        <time>2015-03-27T09:39:42Z</time>
      </trkpt>
      <trkpt lat="48.58348" lon="7.43667">
        <ele>228.45</ele>
        <time>2015-03-27T09:39:46Z</time>
      </trkpt>
      <trkpt lat="48.5835" lon="7.43683">
        <ele>227.97</ele>
        <time>2015-03-27T09:39:47Z</time>
      </trkpt>
      <trkpt lat="48.58353" lon="7.43698">
        <ele>227.49</ele>
        <time>2015-03-27T09:39:48Z</time>
      </trkpt>
      <trkpt lat="48.58364" lon="7.43734">
        <ele>226.05</ele>
        <time>2015-03-27T09:39:51Z</time>
      </trkpt>
      <trkpt lat="48.58371" lon="7.43743">
        <ele>226.05</ele>
        <time>2015-03-27T09:39:52Z</time>
      </trkpt>
      <trkpt lat="48.58379" lon="7.43751">
        <ele>225.57</ele>
        <time>2015-03-27T09:39:53Z</time>
      </trkpt>
      <trkpt lat="48.58386" lon="7.43758">
        <ele>225.57</ele>
        <time>2015-03-27T09:39:54Z</time>
      </trkpt>
      <trkpt lat="48.58398" lon="7.4376">
        <ele>225.57</ele>
        <time>2015-03-27T09:39:55Z</time>
      </trkpt>
      <trkpt lat="48.58405" lon="7.43765">
        <ele>225.09</ele>
        <time>2015-03-27T09:39:56Z</time>
      </trkpt>
      <trkpt lat="48.58426" lon="7.43785">
        <ele>224.12</ele>
        <time>2015-03-27T09:39:59Z</time>
      </trkpt>
      <trkpt lat="48.58431" lon="7.43793">
        <ele>223.64</ele>
        <time>2015-03-27T09:40:00Z</time>
      </trkpt>
      <trkpt lat="48.58448" lon="7.43816">
        <ele>223.16</ele>
        <time>2015-03-27T09:40:03Z</time>
      </trkpt>
      <trkpt lat="48.58491" lon="7.43876">
        <ele>220.76</ele>
        <time>2015-03-27T09:40:13Z</time>
      </trkpt>
      <trkpt lat="48.58496" lon="7.43882">
        <ele>220.76</ele>
        <time>2015-03-27T09:40:14Z</time>
      </trkpt>
      <trkpt lat="48.58499" lon="7.4389">
        <ele>220.28</ele>
        <time>2015-03-27T09:40:15Z</time>
      </trkpt>
      <trkpt lat="48.58503" lon="7.43897">
        <ele>220.28</ele>
        <time>2015-03-27T09:40:16Z</time>
      </trkpt>
      <trkpt lat="48.58507" lon="7.43905">
        <ele>220.28</ele>
        <time>2015-03-27T09:40:17Z</time>
      </trkpt>
      <trkpt lat="48.5856" lon="7.44005">
        <ele>219.8</ele>
        <time>2015-03-27T09:40:30Z</time>
      </trkpt>
      <trkpt lat="48.58588" lon="7.44037">
        <ele>219.32</ele>
        <time>2015-03-27T09:40:36Z</time>
      </trkpt>
      <trkpt lat="48.58671" lon="7.44125">
        <ele>222.2</ele>
        <time>2015-03-27T09:40:54Z</time>
      </trkpt>
      <trkpt lat="48.58714" lon="7.44184">
        <ele>226.05</ele>
        <time>2015-03-27T09:41:04Z</time>
      </trkpt>
      <trkpt lat="48.58716" lon="7.44193">
        <ele>226.05</ele>
        <time>2015-03-27T09:41:05Z</time>
      </trkpt>
      <trkpt lat="48.58753" lon="7.44317">
        <ele>228.93</ele>
        <time>2015-03-27T09:41:19Z</time>
      </trkpt>
      <trkpt lat="48.5882" lon="7.44485">
        <ele>232.78</ele>
        <time>2015-03-27T09:41:38Z</time>
      </trkpt>
      <trkpt lat="48.58887" lon="7.44652">
        <ele>235.18</ele>
        <time>2015-03-27T09:41:57Z</time>
      </trkpt>
      <trkpt lat="48.58949" lon="7.44804">
        <ele>237.58</ele>
        <time>2015-03-27T09:42:14Z</time>
      </trkpt>
      <trkpt lat="48.58999" lon="7.44877">
        <ele>239.02</ele>
        <time>2015-03-27T09:42:24Z</time>
      </trkpt>
      <trkpt lat="48.59006" lon="7.44879">
        <ele>239.02</ele>
        <time>2015-03-27T09:42:25Z</time>
      </trkpt>
      <trkpt lat="48.59013" lon="7.4488">
        <ele>238.54</ele>
        <time>2015-03-27T09:42:26Z</time>
      </trkpt>
      <trkpt lat="48.59128" lon="7.44849">
        <ele>236.62</ele>
        <time>2015-03-27T09:42:41Z</time>
      </trkpt>
      <trkpt lat="48.5923" lon="7.44767">
        <ele>228.93</ele>
        <time>2015-03-27T09:42:53Z</time>
      </trkpt>
      <trkpt lat="48.59362" lon="7.44664">
        <ele>216.43</ele>
        <time>2015-03-27T09:43:06Z</time>
      </trkpt>
      <trkpt lat="48.59492" lon="7.44586">
        <ele>208.26</ele>
        <time>2015-03-27T09:43:19Z</time>
      </trkpt>
      <trkpt lat="48.59623" lon="7.4454">
        <ele>202.49</ele>
        <time>2015-03-27T09:43:33Z</time>
      </trkpt>
      <trkpt lat="48.59761" lon="7.44502">
        <ele>198.65</ele>
        <time>2015-03-27T09:43:49Z</time>
      </trkpt>
      <trkpt lat="48.59861" lon="7.44494">
        <ele>197.69</ele>
        <time>2015-03-27T09:44:00Z</time>
      </trkpt>
      <trkpt lat="48.59936" lon="7.4449">
        <ele>195.77</ele>
        <time>2015-03-27T09:44:09Z</time>
      </trkpt>
      <trkpt lat="48.59943" lon="7.44492">
        <ele>195.77</ele>
        <time>2015-03-27T09:44:10Z</time>
      </trkpt>
      <trkpt lat="48.5995" lon="7.44495">
        <ele>195.77</ele>
        <time>2015-03-27T09:44:11Z</time>
      </trkpt>
      <trkpt lat="48.59956" lon="7.44494">
        <ele>195.28</ele>
        <time>2015-03-27T09:44:12Z</time>
      </trkpt>
      <trkpt lat="48.59963" lon="7.44492">
        <ele>195.28</ele>
        <time>2015-03-27T09:44:13Z</time>
      </trkpt>
      <trkpt lat="48.5997" lon="7.44488">
        <ele>195.28</ele>
        <time>2015-03-27T09:44:14Z</time>
      </trkpt>
      <trkpt lat="48.60027" lon="7.44444">
        <ele>194.32</ele>
        <time>2015-03-27T09:44:22Z</time>
      </trkpt>
      <trkpt lat="48.60033" lon="7.4444">
        <ele>194.8</ele>
        <time>2015-03-27T09:44:23Z</time>
      </trkpt>
      <trkpt lat="48.6004" lon="7.4444">
        <ele>194.8</ele>
        <time>2015-03-27T09:44:24Z</time>
      </trkpt>
      <trkpt lat="48.60045" lon="7.44445">
        <ele>194.8</ele>
        <time>2015-03-27T09:44:25Z</time>
      </trkpt>
      <trkpt lat="48.6005" lon="7.44452">
        <ele>194.8</ele>
        <time>2015-03-27T09:44:26Z</time>
      </trkpt>
      <trkpt lat="48.60055" lon="7.44459">
        <ele>194.8</ele>
        <time>2015-03-27T09:44:27Z</time>
      </trkpt>
      <trkpt lat="48.60085" lon="7.44501">
        <ele>195.77</ele>
        <time>2015-03-27T09:44:33Z</time>
      </trkpt>
      <trkpt lat="48.60091" lon="7.44506">
        <ele>195.77</ele>
        <time>2015-03-27T09:44:34Z</time>
      </trkpt>
      <trkpt lat="48.60098" lon="7.44509">
        <ele>195.77</ele>
        <time>2015-03-27T09:44:35Z</time>
      </trkpt>
      <trkpt lat="48.60105" lon="7.44512">
        <ele>195.77</ele>
        <time>2015-03-27T09:44:36Z</time>
      </trkpt>
      <trkpt lat="48.60113" lon="7.44513">
        <ele>195.77</ele>
        <time>2015-03-27T09:44:37Z</time>
      </trkpt>
      <trkpt lat="48.60213" lon="7.44549">
        <ele>197.21</ele>
        <time>2015-03-27T09:44:53Z</time>
      </trkpt>
      <trkpt lat="48.60286" lon="7.44575">
        <ele>199.61</ele>
        <time>2015-03-27T09:45:05Z</time>
      </trkpt>
      <trkpt lat="48.60382" lon="7.44618">
        <ele>202.49</ele>
        <time>2015-03-27T09:45:22Z</time>
      </trkpt>
      <trkpt lat="48.60391" lon="7.44619">
        <ele>203.46</ele>
        <time>2015-03-27T09:45:30Z</time>
      </trkpt>
      <trkpt lat="48.60392" lon="7.44617">
        <ele>203.94</ele>
        <time>2015-03-27T09:45:32Z</time>
      </trkpt>
      <trkpt lat="48.60394" lon="7.44616">
        <ele>203.94</ele>
        <time>2015-03-27T09:45:33Z</time>
      </trkpt>
      <trkpt lat="48.60396" lon="7.44614">
        <ele>203.94</ele>
        <time>2015-03-27T09:45:34Z</time>
      </trkpt>
      <trkpt lat="48.60398" lon="7.44612">
        <ele>203.94</ele>
        <time>2015-03-27T09:45:35Z</time>
      </trkpt>
      <trkpt lat="48.60402" lon="7.44611">
        <ele>203.94</ele>
        <time>2015-03-27T09:45:36Z</time>
      </trkpt>
      <trkpt lat="48.60406" lon="7.4461">
        <ele>203.94</ele>
        <time>2015-03-27T09:45:37Z</time>
      </trkpt>
      <trkpt lat="48.60479" lon="7.44606">
        <ele>206.82</ele>
        <time>2015-03-27T09:45:52Z</time>
      </trkpt>
      <trkpt lat="48.60562" lon="7.44627">
        <ele>211.15</ele>
        <time>2015-03-27T09:46:08Z</time>
      </trkpt>
      <trkpt lat="48.60643" lon="7.44617">
        <ele>214.03</ele>
        <time>2015-03-27T09:46:23Z</time>
      </trkpt>
      <trkpt lat="48.60701" lon="7.44586">
        <ele>216.43</ele>
        <time>2015-03-27T09:46:35Z</time>
      </trkpt>
      <trkpt lat="48.60704" lon="7.44581">
        <ele>216.43</ele>
        <time>2015-03-27T09:46:36Z</time>
      </trkpt>
      <trkpt lat="48.60705" lon="7.44575">
        <ele>216.91</ele>
        <time>2015-03-27T09:46:37Z</time>
      </trkpt>
      <trkpt lat="48.60705" lon="7.44568">
        <ele>216.91</ele>
        <time>2015-03-27T09:46:38Z</time>
      </trkpt>
      <trkpt lat="48.60703" lon="7.44561">
        <ele>217.4</ele>
        <time>2015-03-27T09:46:39Z</time>
      </trkpt>
      <trkpt lat="48.60701" lon="7.44554">
        <ele>217.88</ele>
        <time>2015-03-27T09:46:40Z</time>
      </trkpt>
      <trkpt lat="48.60699" lon="7.44546">
        <ele>217.88</ele>
        <time>2015-03-27T09:46:41Z</time>
      </trkpt>
      <trkpt lat="48.60696" lon="7.4454">
        <ele>218.36</ele>
        <time>2015-03-27T09:46:42Z</time>
      </trkpt>
      <trkpt lat="48.60634" lon="7.44386">
        <ele>221.24</ele>
        <time>2015-03-27T09:47:03Z</time>
      </trkpt>
      <trkpt lat="48.60619" lon="7.44268">
        <ele>220.28</ele>
        <time>2015-03-27T09:47:20Z</time>
      </trkpt>
      <trkpt lat="48.60621" lon="7.44264">
        <ele>220.28</ele>
        <time>2015-03-27T09:47:21Z</time>
      </trkpt>
      <trkpt lat="48.60625" lon="7.44262">
        <ele>220.28</ele>
        <time>2015-03-27T09:47:22Z</time>
      </trkpt>
      <trkpt lat="48.60629" lon="7.4426">
        <ele>220.76</ele>
        <time>2015-03-27T09:47:23Z</time>
      </trkpt>
      <trkpt lat="48.60634" lon="7.44258">
        <ele>221.24</ele>
        <time>2015-03-27T09:47:24Z</time>
      </trkpt>
      <trkpt lat="48.60715" lon="7.44224">
        <ele>225.57</ele>
        <time>2015-03-27T09:47:43Z</time>
      </trkpt>
      <trkpt lat="48.60727" lon="7.44219">
        <ele>226.05</ele>
        <time>2015-03-27T09:47:46Z</time>
      </trkpt>
      <trkpt lat="48.60794" lon="7.44182">
        <ele>230.85</ele>
        <time>2015-03-27T09:48:05Z</time>
      </trkpt>
      <trkpt lat="48.6086" lon="7.4415">
        <ele>235.66</ele>
        <time>2015-03-27T09:48:25Z</time>
      </trkpt>
      <trkpt lat="48.60904" lon="7.44117">
        <ele>240.95</ele>
        <time>2015-03-27T09:48:40Z</time>
      </trkpt>
      <trkpt lat="48.60944" lon="7.44078">
        <ele>245.27</ele>
        <time>2015-03-27T09:48:55Z</time>
      </trkpt>
      <trkpt lat="48.60983" lon="7.44057">
        <ele>251.04</ele>
        <time>2015-03-27T09:49:09Z</time>
      </trkpt>
      <trkpt lat="48.61027" lon="7.44044">
        <ele>254.41</ele>
        <time>2015-03-27T09:49:24Z</time>
      </trkpt>
      <trkpt lat="48.6108" lon="7.4403">
        <ele>259.21</ele>
        <time>2015-03-27T09:49:43Z</time>
      </trkpt>
      <trkpt lat="48.61128" lon="7.44019">
        <ele>263.54</ele>
        <time>2015-03-27T09:50:01Z</time>
      </trkpt>
      <trkpt lat="48.61176" lon="7.44008">
        <ele>266.9</ele>
        <time>2015-03-27T09:50:19Z</time>
      </trkpt>
      <trkpt lat="48.61243" lon="7.43995">
        <ele>271.71</ele>
        <time>2015-03-27T09:50:44Z</time>
      </trkpt>
      <trkpt lat="48.61293" lon="7.43985">
        <ele>277.48</ele>
        <time>2015-03-27T09:51:03Z</time>
      </trkpt>
      <trkpt lat="48.61338" lon="7.43999">
        <ele>285.65</ele>
        <time>2015-03-27T09:51:22Z</time>
      </trkpt>
      <trkpt lat="48.61383" lon="7.44049">
        <ele>294.78</ele>
        <time>2015-03-27T09:51:41Z</time>
      </trkpt>
      <trkpt lat="48.61432" lon="7.44106">
        <ele>302.47</ele>
        <time>2015-03-27T09:52:00Z</time>
      </trkpt>
      <trkpt lat="48.61483" lon="7.44167">
        <ele>304.39</ele>
        <time>2015-03-27T09:52:20Z</time>
      </trkpt>
      <trkpt lat="48.61545" lon="7.442">
        <ele>306.8</ele>
        <time>2015-03-27T09:52:37Z</time>
      </trkpt>
      <trkpt lat="48.61626" lon="7.4425">
        <ele>303.43</ele>
        <time>2015-03-27T09:52:49Z</time>
      </trkpt>
      <trkpt lat="48.61762" lon="7.44359">
        <ele>294.78</ele>
        <time>2015-03-27T09:53:03Z</time>
      </trkpt>
      <trkpt lat="48.61923" lon="7.44516">
        <ele>280.36</ele>
        <time>2015-03-27T09:53:18Z</time>
      </trkpt>
      <trkpt lat="48.62072" lon="7.44695">
        <ele>264.98</ele>
        <time>2015-03-27T09:53:32Z</time>
      </trkpt>
      <trkpt lat="48.62214" lon="7.44795">
        <ele>254.41</ele>
        <time>2015-03-27T09:53:44Z</time>
      </trkpt>
      <trkpt lat="48.62362" lon="7.4485">
        <ele>245.27</ele>
        <time>2015-03-27T09:53:58Z</time>
      </trkpt>
      <trkpt lat="48.62501" lon="7.44894">
        <ele>239.51</ele>
        <time>2015-03-27T09:54:14Z</time>
      </trkpt>
      <trkpt lat="48.62612" lon="7.4489">
        <ele>236.14</ele>
        <time>2015-03-27T09:54:28Z</time>
      </trkpt>
      <trkpt lat="48.62746" lon="7.44889">
        <ele>232.3</ele>
        <time>2015-03-27T09:54:45Z</time>
      </trkpt>
      <trkpt lat="48.62881" lon="7.44883">
        <ele>228.93</ele>
        <time>2015-03-27T09:55:01Z</time>
      </trkpt>
      <trkpt lat="48.63032" lon="7.44881">
        <ele>223.64</ele>
        <time>2015-03-27T09:55:18Z</time>
      </trkpt>
      <trkpt lat="48.63149" lon="7.44922">
        <ele>218.84</ele>
        <time>2015-03-27T09:55:28Z</time>
      </trkpt>
      <trkpt lat="48.63294" lon="7.44997">
        <ele>209.22</ele>
        <time>2015-03-27T09:55:40Z</time>
      </trkpt>
      <trkpt lat="48.63305" lon="7.45003">
        <ele>208.74</ele>
        <time>2015-03-27T09:55:41Z</time>
      </trkpt>
      <trkpt lat="48.63314" lon="7.4501">
        <ele>207.78</ele>
        <time>2015-03-27T09:55:42Z</time>
      </trkpt>
      <trkpt lat="48.63322" lon="7.45016">
        <ele>207.3</ele>
        <time>2015-03-27T09:55:43Z</time>
      </trkpt>
      <trkpt lat="48.6333" lon="7.45019">
        <ele>206.34</ele>
        <time>2015-03-27T09:55:44Z</time>
      </trkpt>
      <trkpt lat="48.63336" lon="7.45019">
        <ele>205.86</ele>
        <time>2015-03-27T09:55:45Z</time>
      </trkpt>
      <trkpt lat="48.63342" lon="7.45014">
        <ele>204.9</ele>
        <time>2015-03-27T09:55:46Z</time>
      </trkpt>
      <trkpt lat="48.63347" lon="7.45008">
        <ele>203.94</ele>
        <time>2015-03-27T09:55:47Z</time>
      </trkpt>
      <trkpt lat="48.63351" lon="7.44999">
        <ele>203.46</ele>
        <time>2015-03-27T09:55:48Z</time>
      </trkpt>
      <trkpt lat="48.63355" lon="7.44989">
        <ele>202.49</ele>
        <time>2015-03-27T09:55:49Z</time>
      </trkpt>
      <trkpt lat="48.63359" lon="7.44979">
        <ele>201.53</ele>
        <time>2015-03-27T09:55:50Z</time>
      </trkpt>
      <trkpt lat="48.63363" lon="7.44968">
        <ele>200.57</ele>
        <time>2015-03-27T09:55:51Z</time>
      </trkpt>
      <trkpt lat="48.63375" lon="7.44839">
        <ele>197.21</ele>
        <time>2015-03-27T09:56:01Z</time>
      </trkpt>
      <trkpt lat="48.63377" lon="7.44703">
        <ele>194.32</ele>
        <time>2015-03-27T09:56:15Z</time>
      </trkpt>
      <trkpt lat="48.63375" lon="7.44564">
        <ele>192.88</ele>
        <time>2015-03-27T09:56:30Z</time>
      </trkpt>
      <trkpt lat="48.63351" lon="7.44409">
        <ele>194.8</ele>
        <time>2015-03-27T09:56:47Z</time>
      </trkpt>
      <trkpt lat="48.63325" lon="7.44271">
        <ele>196.73</ele>
        <time>2015-03-27T09:57:03Z</time>
      </trkpt>
      <trkpt lat="48.63321" lon="7.44264">
        <ele>197.21</ele>
        <time>2015-03-27T09:57:04Z</time>
      </trkpt>
      <trkpt lat="48.63317" lon="7.44258">
        <ele>197.21</ele>
        <time>2015-03-27T09:57:05Z</time>
      </trkpt>
      <trkpt lat="48.63313" lon="7.44252">
        <ele>197.21</ele>
        <time>2015-03-27T09:57:06Z</time>
      </trkpt>
      <trkpt lat="48.63309" lon="7.44247">
        <ele>197.21</ele>
        <time>2015-03-27T09:57:07Z</time>
      </trkpt>
      <trkpt lat="48.63305" lon="7.44243">
        <ele>197.21</ele>
        <time>2015-03-27T09:57:08Z</time>
      </trkpt>
      <trkpt lat="48.633" lon="7.44239">
        <ele>197.69</ele>
        <time>2015-03-27T09:57:09Z</time>
      </trkpt>
      <trkpt lat="48.63295" lon="7.44237">
        <ele>198.17</ele>
        <time>2015-03-27T09:57:10Z</time>
      </trkpt>
      <trkpt lat="48.63284" lon="7.44231">
        <ele>199.13</ele>
        <time>2015-03-27T09:57:12Z</time>
      </trkpt>
      <trkpt lat="48.63279" lon="7.44226">
        <ele>199.13</ele>
        <time>2015-03-27T09:57:13Z</time>
      </trkpt>
      <trkpt lat="48.63276" lon="7.44221">
        <ele>199.61</ele>
        <time>2015-03-27T09:57:14Z</time>
      </trkpt>
      <trkpt lat="48.63273" lon="7.44215">
        <ele>199.61</ele>
        <time>2015-03-27T09:57:15Z</time>
      </trkpt>
      <trkpt lat="48.6327" lon="7.44209">
        <ele>200.09</ele>
        <time>2015-03-27T09:57:16Z</time>
      </trkpt>
      <trkpt lat="48.63268" lon="7.44202">
        <ele>200.09</ele>
        <time>2015-03-27T09:57:17Z</time>
      </trkpt>
      <trkpt lat="48.63266" lon="7.44195">
        <ele>200.09</ele>
        <time>2015-03-27T09:57:18Z</time>
      </trkpt>
      <trkpt lat="48.63265" lon="7.44187">
        <ele>200.09</ele>
        <time>2015-03-27T09:57:19Z</time>
      </trkpt>
      <trkpt lat="48.63259" lon="7.44072">
        <ele>202.49</ele>
        <time>2015-03-27T09:57:34Z</time>
      </trkpt>
      <trkpt lat="48.63268" lon="7.43954">
        <ele>202.98</ele>
        <time>2015-03-27T09:57:47Z</time>
      </trkpt>
      <trkpt lat="48.63268" lon="7.43945">
        <ele>202.98</ele>
        <time>2015-03-27T09:57:48Z</time>
      </trkpt>
      <trkpt lat="48.63268" lon="7.43936">
        <ele>202.98</ele>
        <time>2015-03-27T09:57:49Z</time>
      </trkpt>
      <trkpt lat="48.63267" lon="7.43927">
        <ele>202.98</ele>
        <time>2015-03-27T09:57:50Z</time>
      </trkpt>
      <trkpt lat="48.63265" lon="7.43918">
        <ele>202.98</ele>
        <time>2015-03-27T09:57:51Z</time>
      </trkpt>
      <trkpt lat="48.63263" lon="7.4391">
        <ele>202.98</ele>
        <time>2015-03-27T09:57:52Z</time>
      </trkpt>
      <trkpt lat="48.6326" lon="7.43903">
        <ele>202.98</ele>
        <time>2015-03-27T09:57:53Z</time>
      </trkpt>
      <trkpt lat="48.63257" lon="7.43896">
        <ele>202.98</ele>
        <time>2015-03-27T09:57:54Z</time>
      </trkpt>
      <trkpt lat="48.63254" lon="7.4389">
        <ele>202.98</ele>
        <time>2015-03-27T09:57:55Z</time>
      </trkpt>
      <trkpt lat="48.6325" lon="7.43885">
        <ele>202.98</ele>
        <time>2015-03-27T09:57:56Z</time>
      </trkpt>
      <trkpt lat="48.63248" lon="7.43879">
        <ele>202.98</ele>
        <time>2015-03-27T09:57:57Z</time>
      </trkpt>
      <trkpt lat="48.63245" lon="7.43872">
        <ele>202.98</ele>
        <time>2015-03-27T09:57:58Z</time>
      </trkpt>
      <trkpt lat="48.63243" lon="7.43865">
        <ele>202.98</ele>
        <time>2015-03-27T09:57:59Z</time>
      </trkpt>
      <trkpt lat="48.63241" lon="7.43859">
        <ele>202.98</ele>
        <time>2015-03-27T09:58:00Z</time>
      </trkpt>
      <trkpt lat="48.6324" lon="7.43852">
        <ele>202.98</ele>
        <time>2015-03-27T09:58:01Z</time>
      </trkpt>
      <trkpt lat="48.63239" lon="7.43844">
        <ele>203.46</ele>
        <time>2015-03-27T09:58:02Z</time>
      </trkpt>
      <trkpt lat="48.63238" lon="7.43837">
        <ele>203.46</ele>
        <time>2015-03-27T09:58:03Z</time>
      </trkpt>
      <trkpt lat="48.63238" lon="7.43828">
        <ele>203.46</ele>
        <time>2015-03-27T09:58:04Z</time>
      </trkpt>
      <trkpt lat="48.63236" lon="7.43706">
        <ele>205.86</ele>
        <time>2015-03-27T09:58:18Z</time>
      </trkpt>
      <trkpt lat="48.63262" lon="7.43557">
        <ele>210.67</ele>
        <time>2015-03-27T09:58:38Z</time>
      </trkpt>
      <trkpt lat="48.63279" lon="7.43429">
        <ele>214.51</ele>
        <time>2015-03-27T09:58:55Z</time>
      </trkpt>
      <trkpt lat="48.63274" lon="7.43291">
        <ele>215.47</ele>
        <time>2015-03-27T09:59:09Z</time>
      </trkpt>
      <trkpt lat="48.63264" lon="7.43093">
        <ele>214.99</ele>
        <time>2015-03-27T09:59:26Z</time>
      </trkpt>
      <trkpt lat="48.63247" lon="7.42844">
        <ele>211.15</ele>
        <time>2015-03-27T09:59:47Z</time>
      </trkpt>
      <trkpt lat="48.63246" lon="7.4266">
        <ele>210.19</ele>
        <time>2015-03-27T10:00:04Z</time>
      </trkpt>
      <trkpt lat="48.63245" lon="7.42624">
        <ele>209.7</ele>
        <time>2015-03-27T10:00:08Z</time>
      </trkpt>
      <trkpt lat="48.63243" lon="7.42616">
        <ele>209.7</ele>
        <time>2015-03-27T10:00:09Z</time>
      </trkpt>
      <trkpt lat="48.63241" lon="7.42607">
        <ele>209.7</ele>
        <time>2015-03-27T10:00:10Z</time>
      </trkpt>
      <trkpt lat="48.63234" lon="7.42581">
        <ele>209.22</ele>
        <time>2015-03-27T10:00:13Z</time>
      </trkpt>
      <trkpt lat="48.63233" lon="7.42572">
        <ele>209.22</ele>
        <time>2015-03-27T10:00:14Z</time>
      </trkpt>
      <trkpt lat="48.63221" lon="7.42405">
        <ele>212.59</ele>
        <time>2015-03-27T10:00:34Z</time>
      </trkpt>
      <trkpt lat="48.63219" lon="7.42291">
        <ele>216.91</ele>
        <time>2015-03-27T10:00:49Z</time>
      </trkpt>
      <trkpt lat="48.63218" lon="7.42194">
        <ele>220.28</ele>
        <time>2015-03-27T10:01:00Z</time>
      </trkpt>
      <trkpt lat="48.63219" lon="7.42186">
        <ele>220.28</ele>
        <time>2015-03-27T10:01:01Z</time>
      </trkpt>
      <trkpt lat="48.63257" lon="7.42022">
        <ele>221.72</ele>
        <time>2015-03-27T10:01:21Z</time>
      </trkpt>
      <trkpt lat="48.63307" lon="7.41864">
        <ele>224.61</ele>
        <time>2015-03-27T10:01:43Z</time>
      </trkpt>
      <trkpt lat="48.63333" lon="7.41768">
        <ele>226.05</ele>
        <time>2015-03-27T10:01:58Z</time>
      </trkpt>
      <trkpt lat="48.63335" lon="7.41757">
        <ele>226.53</ele>
        <time>2015-03-27T10:02:00Z</time>
      </trkpt>
      <trkpt lat="48.63345" lon="7.41736">
        <ele>226.53</ele>
        <time>2015-03-27T10:02:03Z</time>
      </trkpt>
      <trkpt lat="48.63391" lon="7.41679">
        <ele>227.49</ele>
        <time>2015-03-27T10:02:13Z</time>
      </trkpt>
      <trkpt lat="48.63495" lon="7.41588">
        <ele>232.78</ele>
        <time>2015-03-27T10:02:33Z</time>
      </trkpt>
      <trkpt lat="48.63604" lon="7.415">
        <ele>232.78</ele>
        <time>2015-03-27T10:02:55Z</time>
      </trkpt>
      <trkpt lat="48.63705" lon="7.41419">
        <ele>234.7</ele>
        <time>2015-03-27T10:03:15Z</time>
      </trkpt>
      <trkpt lat="48.63779" lon="7.41353">
        <ele>236.14</ele>
        <time>2015-03-27T10:03:30Z</time>
      </trkpt>
      <trkpt lat="48.6387" lon="7.41255">
        <ele>236.14</ele>
        <time>2015-03-27T10:03:51Z</time>
      </trkpt>
      <trkpt lat="48.63942" lon="7.41134">
        <ele>234.22</ele>
        <time>2015-03-27T10:04:11Z</time>
      </trkpt>
      <trkpt lat="48.63995" lon="7.41001">
        <ele>235.18</ele>
        <time>2015-03-27T10:04:30Z</time>
      </trkpt>
      <trkpt lat="48.64051" lon="7.40836">
        <ele>237.1</ele>
        <time>2015-03-27T10:04:52Z</time>
      </trkpt>
      <trkpt lat="48.64111" lon="7.40667">
        <ele>235.66</ele>
        <time>2015-03-27T10:05:14Z</time>
      </trkpt>
      <trkpt lat="48.64158" lon="7.40529">
        <ele>235.66</ele>
        <time>2015-03-27T10:05:32Z</time>
      </trkpt>
      <trkpt lat="48.64214" lon="7.40363">
        <ele>236.14</ele>
        <time>2015-03-27T10:05:54Z</time>
      </trkpt>
      <trkpt lat="48.64227" lon="7.40328">
        <ele>236.62</ele>
        <time>2015-03-27T10:05:59Z</time>
      </trkpt>
      <trkpt lat="48.6423" lon="7.40323">
        <ele>236.62</ele>
        <time>2015-03-27T10:06:00Z</time>
      </trkpt>
      <trkpt lat="48.64233" lon="7.4032">
        <ele>237.1</ele>
        <time>2015-03-27T10:06:01Z</time>
      </trkpt>
      <trkpt lat="48.64236" lon="7.40319">
        <ele>237.1</ele>
        <time>2015-03-27T10:06:02Z</time>
      </trkpt>
      <trkpt lat="48.6424" lon="7.40319">
        <ele>237.58</ele>
        <time>2015-03-27T10:06:03Z</time>
      </trkpt>
      <trkpt lat="48.64244" lon="7.4032">
        <ele>237.58</ele>
        <time>2015-03-27T10:06:04Z</time>
      </trkpt>
      <trkpt lat="48.64248" lon="7.40321">
        <ele>238.06</ele>
        <time>2015-03-27T10:06:05Z</time>
      </trkpt>
      <trkpt lat="48.64251" lon="7.40323">
        <ele>238.54</ele>
        <time>2015-03-27T10:06:06Z</time>
      </trkpt>
      <trkpt lat="48.64255" lon="7.40323">
        <ele>238.54</ele>
        <time>2015-03-27T10:06:07Z</time>
      </trkpt>
      <trkpt lat="48.64258" lon="7.40321">
        <ele>239.02</ele>
        <time>2015-03-27T10:06:08Z</time>
      </trkpt>
      <trkpt lat="48.64262" lon="7.40316">
        <ele>239.02</ele>
        <time>2015-03-27T10:06:09Z</time>
      </trkpt>
      <trkpt lat="48.64266" lon="7.40311">
        <ele>239.02</ele>
        <time>2015-03-27T10:06:10Z</time>
      </trkpt>
      <trkpt lat="48.64269" lon="7.40304">
        <ele>239.02</ele>
        <time>2015-03-27T10:06:11Z</time>
      </trkpt>
      <trkpt lat="48.64273" lon="7.40297">
        <ele>239.51</ele>
        <time>2015-03-27T10:06:12Z</time>
      </trkpt>
      <trkpt lat="48.64276" lon="7.40289">
        <ele>239.51</ele>
        <time>2015-03-27T10:06:13Z</time>
      </trkpt>
      <trkpt lat="48.64319" lon="7.40157">
        <ele>237.58</ele>
        <time>2015-03-27T10:06:30Z</time>
      </trkpt>
      <trkpt lat="48.6432" lon="7.40148">
        <ele>237.58</ele>
        <time>2015-03-27T10:06:31Z</time>
      </trkpt>
      <trkpt lat="48.64327" lon="7.40087">
        <ele>237.58</ele>
        <time>2015-03-27T10:06:38Z</time>
      </trkpt>
      <trkpt lat="48.64329" lon="7.40079">
        <ele>237.58</ele>
        <time>2015-03-27T10:06:39Z</time>
      </trkpt>
      <trkpt lat="48.64362" lon="7.39968">
        <ele>238.06</ele>
        <time>2015-03-27T10:06:54Z</time>
      </trkpt>
      <trkpt lat="48.64362" lon="7.39961">
        <ele>238.06</ele>
        <time>2015-03-27T10:06:55Z</time>
      </trkpt>
      <trkpt lat="48.64361" lon="7.39946">
        <ele>238.06</ele>
        <time>2015-03-27T10:06:57Z</time>
      </trkpt>
      <trkpt lat="48.64336" lon="7.39816">
        <ele>239.51</ele>
        <time>2015-03-27T10:07:13Z</time>
      </trkpt>
      <trkpt lat="48.64325" lon="7.39667">
        <ele>239.99</ele>
        <time>2015-03-27T10:07:29Z</time>
      </trkpt>
      <trkpt lat="48.64306" lon="7.39574">
        <ele>238.54</ele>
        <time>2015-03-27T10:07:39Z</time>
      </trkpt>
      <trkpt lat="48.64302" lon="7.39566">
        <ele>238.06</ele>
        <time>2015-03-27T10:07:40Z</time>
      </trkpt>
      <trkpt lat="48.64298" lon="7.39558">
        <ele>238.06</ele>
        <time>2015-03-27T10:07:41Z</time>
      </trkpt>
      <trkpt lat="48.64216" lon="7.39426">
        <ele>235.66</ele>
        <time>2015-03-27T10:07:57Z</time>
      </trkpt>
      <trkpt lat="48.64202" lon="7.39385">
        <ele>234.7</ele>
        <time>2015-03-27T10:08:01Z</time>
      </trkpt>
      <trkpt lat="48.642" lon="7.39374">
        <ele>234.7</ele>
        <time>2015-03-27T10:08:02Z</time>
      </trkpt>
      <trkpt lat="48.64199" lon="7.39363">
        <ele>234.7</ele>
        <time>2015-03-27T10:08:03Z</time>
      </trkpt>
      <trkpt lat="48.64199" lon="7.39352">
        <ele>234.7</ele>
        <time>2015-03-27T10:08:04Z</time>
      </trkpt>
      <trkpt lat="48.64201" lon="7.39341">
        <ele>234.7</ele>
        <time>2015-03-27T10:08:05Z</time>
      </trkpt>
      <trkpt lat="48.64202" lon="7.3933">
        <ele>234.7</ele>
        <time>2015-03-27T10:08:06Z</time>
      </trkpt>
      <trkpt lat="48.64214" lon="7.39239">
        <ele>235.66</ele>
        <time>2015-03-27T10:08:15Z</time>
      </trkpt>
      <trkpt lat="48.64213" lon="7.39228">
        <ele>235.66</ele>
        <time>2015-03-27T10:08:16Z</time>
      </trkpt>
      <trkpt lat="48.64212" lon="7.39218">
        <ele>235.66</ele>
        <time>2015-03-27T10:08:17Z</time>
      </trkpt>
      <trkpt lat="48.64211" lon="7.39208">
        <ele>236.14</ele>
        <time>2015-03-27T10:08:18Z</time>
      </trkpt>
      <trkpt lat="48.64209" lon="7.39198">
        <ele>236.14</ele>
        <time>2015-03-27T10:08:19Z</time>
      </trkpt>
      <trkpt lat="48.64202" lon="7.39171">
        <ele>236.62</ele>
        <time>2015-03-27T10:08:22Z</time>
      </trkpt>
      <trkpt lat="48.64199" lon="7.39163">
        <ele>236.62</ele>
        <time>2015-03-27T10:08:23Z</time>
      </trkpt>
      <trkpt lat="48.64196" lon="7.39155">
        <ele>237.1</ele>
        <time>2015-03-27T10:08:24Z</time>
      </trkpt>
      <trkpt lat="48.64179" lon="7.39127">
        <ele>238.06</ele>
        <time>2015-03-27T10:08:28Z</time>
      </trkpt>
      <trkpt lat="48.64174" lon="7.39122">
        <ele>237.58</ele>
        <time>2015-03-27T10:08:29Z</time>
      </trkpt>
      <trkpt lat="48.64163" lon="7.39112">
        <ele>238.06</ele>
        <time>2015-03-27T10:08:31Z</time>
      </trkpt>
      <trkpt lat="48.64158" lon="7.39108">
        <ele>238.06</ele>
        <time>2015-03-27T10:08:32Z</time>
      </trkpt>
      <trkpt lat="48.64065" lon="7.39045">
        <ele>241.43</ele>
        <time>2015-03-27T10:08:50Z</time>
      </trkpt>
      <trkpt lat="48.64061" lon="7.39041">
        <ele>241.91</ele>
        <time>2015-03-27T10:08:51Z</time>
      </trkpt>
      <trkpt lat="48.64057" lon="7.39037">
        <ele>241.91</ele>
        <time>2015-03-27T10:08:52Z</time>
      </trkpt>
      <trkpt lat="48.64009" lon="7.38976">
        <ele>243.35</ele>
        <time>2015-03-27T10:09:05Z</time>
      </trkpt>
      <trkpt lat="48.63985" lon="7.38925">
        <ele>244.31</ele>
        <time>2015-03-27T10:09:14Z</time>
      </trkpt>
      <trkpt lat="48.63984" lon="7.38918">
        <ele>244.31</ele>
        <time>2015-03-27T10:09:15Z</time>
      </trkpt>
      <trkpt lat="48.63984" lon="7.38911">
        <ele>244.79</ele>
        <time>2015-03-27T10:09:16Z</time>
      </trkpt>
      <trkpt lat="48.63984" lon="7.38905">
        <ele>244.79</ele>
        <time>2015-03-27T10:09:17Z</time>
      </trkpt>
      <trkpt lat="48.63985" lon="7.38899">
        <ele>245.27</ele>
        <time>2015-03-27T10:09:18Z</time>
      </trkpt>
      <trkpt lat="48.63986" lon="7.38893">
        <ele>245.27</ele>
        <time>2015-03-27T10:09:19Z</time>
      </trkpt>
      <trkpt lat="48.64" lon="7.3881">
        <ele>247.68</ele>
        <time>2015-03-27T10:09:30Z</time>
      </trkpt>
      <trkpt lat="48.64" lon="7.38801">
        <ele>247.68</ele>
        <time>2015-03-27T10:09:31Z</time>
      </trkpt>
      <trkpt lat="48.64" lon="7.38792">
        <ele>247.68</ele>
        <time>2015-03-27T10:09:32Z</time>
      </trkpt>
      <trkpt lat="48.63979" lon="7.38662">
        <ele>247.2</ele>
        <time>2015-03-27T10:09:47Z</time>
      </trkpt>
      <trkpt lat="48.63927" lon="7.38509">
        <ele>245.75</ele>
        <time>2015-03-27T10:10:09Z</time>
      </trkpt>
      <trkpt lat="48.63868" lon="7.38406">
        <ele>244.31</ele>
        <time>2015-03-27T10:10:28Z</time>
      </trkpt>
      <trkpt lat="48.63789" lon="7.38323">
        <ele>245.27</ele>
        <time>2015-03-27T10:10:48Z</time>
      </trkpt>
      <trkpt lat="48.63699" lon="7.38248">
        <ele>246.72</ele>
        <time>2015-03-27T10:11:08Z</time>
      </trkpt>
      <trkpt lat="48.63597" lon="7.3817">
        <ele>250.08</ele>
        <time>2015-03-27T10:11:30Z</time>
      </trkpt>
      <trkpt lat="48.63537" lon="7.38092">
        <ele>253.93</ele>
        <time>2015-03-27T10:11:44Z</time>
      </trkpt>
      <trkpt lat="48.63534" lon="7.38084">
        <ele>253.93</ele>
        <time>2015-03-27T10:11:45Z</time>
      </trkpt>
      <trkpt lat="48.63531" lon="7.38076">
        <ele>253.93</ele>
        <time>2015-03-27T10:11:46Z</time>
      </trkpt>
      <trkpt lat="48.63527" lon="7.3805">
        <ele>254.89</ele>
        <time>2015-03-27T10:11:49Z</time>
      </trkpt>
      <trkpt lat="48.63526" lon="7.38041">
        <ele>254.89</ele>
        <time>2015-03-27T10:11:50Z</time>
      </trkpt>
      <trkpt lat="48.63527" lon="7.38031">
        <ele>255.37</ele>
        <time>2015-03-27T10:11:51Z</time>
      </trkpt>
      <trkpt lat="48.63524" lon="7.37963">
        <ele>255.85</ele>
        <time>2015-03-27T10:11:58Z</time>
      </trkpt>
      <trkpt lat="48.63521" lon="7.37955">
        <ele>256.33</ele>
        <time>2015-03-27T10:11:59Z</time>
      </trkpt>
      <trkpt lat="48.63519" lon="7.37946">
        <ele>256.81</ele>
        <time>2015-03-27T10:12:00Z</time>
      </trkpt>
      <trkpt lat="48.63515" lon="7.37938">
        <ele>256.81</ele>
        <time>2015-03-27T10:12:01Z</time>
      </trkpt>
      <trkpt lat="48.63512" lon="7.37931">
        <ele>257.29</ele>
        <time>2015-03-27T10:12:02Z</time>
      </trkpt>
      <trkpt lat="48.63462" lon="7.37812">
        <ele>258.25</ele>
        <time>2015-03-27T10:12:18Z</time>
      </trkpt>
      <trkpt lat="48.63459" lon="7.37796">
        <ele>258.25</ele>
        <time>2015-03-27T10:12:20Z</time>
      </trkpt>
      <trkpt lat="48.63439" lon="7.37658">
        <ele>259.69</ele>
        <time>2015-03-27T10:12:38Z</time>
      </trkpt>
      <trkpt lat="48.63414" lon="7.37499">
        <ele>264.98</ele>
        <time>2015-03-27T10:13:01Z</time>
      </trkpt>
      <trkpt lat="48.63404" lon="7.37423">
        <ele>269.31</ele>
        <time>2015-03-27T10:13:12Z</time>
      </trkpt>
      <trkpt lat="48.63381" lon="7.37282">
        <ele>279.4</ele>
        <time>2015-03-27T10:13:33Z</time>
      </trkpt>
      <trkpt lat="48.63354" lon="7.37146">
        <ele>289.01</ele>
        <time>2015-03-27T10:13:53Z</time>
      </trkpt>
      <trkpt lat="48.63321" lon="7.37008">
        <ele>299.59</ele>
        <time>2015-03-27T10:14:14Z</time>
      </trkpt>
      <trkpt lat="48.63313" lon="7.36972">
        <ele>302.95</ele>
        <time>2015-03-27T10:14:19Z</time>
      </trkpt>
      <trkpt lat="48.63304" lon="7.3685">
        <ele>310.64</ele>
        <time>2015-03-27T10:14:36Z</time>
      </trkpt>
      <trkpt lat="48.63308" lon="7.36832">
        <ele>304.39</ele>
        <time>2015-03-27T10:14:50Z</time>
      </trkpt>
      <trkpt lat="48.63308" lon="7.3682">
        <ele>292.86</ele>
        <time>2015-03-27T10:15:15Z</time>
      </trkpt>
      <trkpt lat="48.63309" lon="7.36822">
        <ele>289.97</ele>
        <time>2015-03-27T10:15:41Z</time>
      </trkpt>
      <trkpt lat="48.6331" lon="7.36822">
        <ele>289.01</ele>
        <time>2015-03-27T10:16:01Z</time>
      </trkpt>
      <trkpt lat="48.6331" lon="7.36819">
        <ele>288.53</ele>
        <time>2015-03-27T10:16:22Z</time>
      </trkpt>
      <trkpt lat="48.63309" lon="7.36817">
        <ele>288.05</ele>
        <time>2015-03-27T10:16:23Z</time>
      </trkpt>
      <trkpt lat="48.63309" lon="7.36815">
        <ele>288.53</ele>
        <time>2015-03-27T10:16:24Z</time>
      </trkpt>
      <trkpt lat="48.63308" lon="7.36813">
        <ele>288.53</ele>
        <time>2015-03-27T10:16:25Z</time>
      </trkpt>
      <trkpt lat="48.63307" lon="7.3681">
        <ele>288.53</ele>
        <time>2015-03-27T10:16:26Z</time>
      </trkpt>
      <trkpt lat="48.63293" lon="7.36748">
        <ele>293.34</ele>
        <time>2015-03-27T10:16:37Z</time>
      </trkpt>
      <trkpt lat="48.63266" lon="7.36623">
        <ele>302.47</ele>
        <time>2015-03-27T10:16:52Z</time>
      </trkpt>
      <trkpt lat="48.63226" lon="7.36508">
        <ele>310.16</ele>
        <time>2015-03-27T10:17:07Z</time>
      </trkpt>
      <trkpt lat="48.63162" lon="7.36434">
        <ele>315.93</ele>
        <time>2015-03-27T10:17:20Z</time>
      </trkpt>
      <trkpt lat="48.63056" lon="7.3633">
        <ele>325.54</ele>
        <time>2015-03-27T10:17:39Z</time>
      </trkpt>
      <trkpt lat="48.63007" lon="7.36244">
        <ele>332.27</ele>
        <time>2015-03-27T10:17:51Z</time>
      </trkpt>
      <trkpt lat="48.63001" lon="7.36137">
        <ele>337.08</ele>
        <time>2015-03-27T10:18:02Z</time>
      </trkpt>
      <trkpt lat="48.63041" lon="7.35979">
        <ele>337.08</ele>
        <time>2015-03-27T10:18:16Z</time>
      </trkpt>
      <trkpt lat="48.63062" lon="7.35847">
        <ele>336.6</ele>
        <time>2015-03-27T10:18:28Z</time>
      </trkpt>
      <trkpt lat="48.63069" lon="7.35641">
        <ele>330.35</ele>
        <time>2015-03-27T10:18:48Z</time>
      </trkpt>
      <trkpt lat="48.63081" lon="7.35448">
        <ele>318.33</ele>
        <time>2015-03-27T10:19:08Z</time>
      </trkpt>
      <trkpt lat="48.63068" lon="7.35294">
        <ele>315.93</ele>
        <time>2015-03-27T10:19:27Z</time>
      </trkpt>
      <trkpt lat="48.63052" lon="7.35147">
        <ele>312.09</ele>
        <time>2015-03-27T10:19:43Z</time>
      </trkpt>
      <trkpt lat="48.63086" lon="7.35009">
        <ele>305.84</ele>
        <time>2015-03-27T10:19:58Z</time>
      </trkpt>
      <trkpt lat="48.63139" lon="7.34869">
        <ele>301.03</ele>
        <time>2015-03-27T10:20:16Z</time>
      </trkpt>
      <trkpt lat="48.63159" lon="7.34757">
        <ele>297.18</ele>
        <time>2015-03-27T10:20:30Z</time>
      </trkpt>
      <trkpt lat="48.63174" lon="7.34668">
        <ele>298.63</ele>
        <time>2015-03-27T10:20:42Z</time>
      </trkpt>
      <trkpt lat="48.63166" lon="7.34573">
        <ele>298.63</ele>
        <time>2015-03-27T10:20:55Z</time>
      </trkpt>
      <trkpt lat="48.63158" lon="7.34464">
        <ele>301.99</ele>
        <time>2015-03-27T10:21:10Z</time>
      </trkpt>
      <trkpt lat="48.63147" lon="7.34338">
        <ele>303.91</ele>
        <time>2015-03-27T10:21:27Z</time>
      </trkpt>
      <trkpt lat="48.63148" lon="7.34185">
        <ele>306.8</ele>
        <time>2015-03-27T10:21:48Z</time>
      </trkpt>
      <trkpt lat="48.63155" lon="7.34067">
        <ele>308.72</ele>
        <time>2015-03-27T10:22:04Z</time>
      </trkpt>
      <trkpt lat="48.63144" lon="7.33955">
        <ele>313.53</ele>
        <time>2015-03-27T10:22:19Z</time>
      </trkpt>
      <trkpt lat="48.63128" lon="7.33815">
        <ele>307.76</ele>
        <time>2015-03-27T10:22:37Z</time>
      </trkpt>
      <trkpt lat="48.63107" lon="7.33666">
        <ele>309.68</ele>
        <time>2015-03-27T10:22:57Z</time>
      </trkpt>
      <trkpt lat="48.63098" lon="7.33624">
        <ele>310.64</ele>
        <time>2015-03-27T10:23:03Z</time>
      </trkpt>
      <trkpt lat="48.63095" lon="7.33618">
        <ele>310.64</ele>
        <time>2015-03-27T10:23:04Z</time>
      </trkpt>
      <trkpt lat="48.63079" lon="7.33585">
        <ele>311.12</ele>
        <time>2015-03-27T10:23:10Z</time>
      </trkpt>
      <trkpt lat="48.63075" lon="7.3358">
        <ele>311.12</ele>
        <time>2015-03-27T10:23:11Z</time>
      </trkpt>
      <trkpt lat="48.63072" lon="7.33576">
        <ele>311.6</ele>
        <time>2015-03-27T10:23:12Z</time>
      </trkpt>
      <trkpt lat="48.6299" lon="7.33524">
        <ele>312.09</ele>
        <time>2015-03-27T10:23:29Z</time>
      </trkpt>
      <trkpt lat="48.62889" lon="7.33463">
        <ele>313.05</ele>
        <time>2015-03-27T10:23:50Z</time>
      </trkpt>
      <trkpt lat="48.62833" lon="7.33388">
        <ele>314.97</ele>
        <time>2015-03-27T10:24:03Z</time>
      </trkpt>
      <trkpt lat="48.62792" lon="7.33262">
        <ele>316.89</ele>
        <time>2015-03-27T10:24:19Z</time>
      </trkpt>
      <trkpt lat="48.62791" lon="7.33254">
        <ele>317.37</ele>
        <time>2015-03-27T10:24:20Z</time>
      </trkpt>
      <trkpt lat="48.62775" lon="7.3313">
        <ele>319.78</ele>
        <time>2015-03-27T10:24:36Z</time>
      </trkpt>
      <trkpt lat="48.62766" lon="7.33033">
        <ele>321.7</ele>
        <time>2015-03-27T10:24:49Z</time>
      </trkpt>
      <trkpt lat="48.62764" lon="7.32924">
        <ele>323.14</ele>
        <time>2015-03-27T10:25:04Z</time>
      </trkpt>
      <trkpt lat="48.62782" lon="7.32799">
        <ele>324.1</ele>
        <time>2015-03-27T10:25:21Z</time>
      </trkpt>
      <trkpt lat="48.62826" lon="7.32698">
        <ele>325.06</ele>
        <time>2015-03-27T10:25:37Z</time>
      </trkpt>
      <trkpt lat="48.62889" lon="7.32604">
        <ele>326.5</ele>
        <time>2015-03-27T10:25:52Z</time>
      </trkpt>
      <trkpt lat="48.62964" lon="7.32494">
        <ele>326.02</ele>
        <time>2015-03-27T10:26:10Z</time>
      </trkpt>
      <trkpt lat="48.62996" lon="7.3239">
        <ele>327.47</ele>
        <time>2015-03-27T10:26:25Z</time>
      </trkpt>
      <trkpt lat="48.63002" lon="7.32252">
        <ele>329.87</ele>
        <time>2015-03-27T10:26:43Z</time>
      </trkpt>
      <trkpt lat="48.62989" lon="7.32105">
        <ele>334.2</ele>
        <time>2015-03-27T10:27:01Z</time>
      </trkpt>
      <trkpt lat="48.62984" lon="7.31986">
        <ele>338.52</ele>
        <time>2015-03-27T10:27:17Z</time>
      </trkpt>
      <trkpt lat="48.63017" lon="7.31882">
        <ele>342.37</ele>
        <time>2015-03-27T10:27:31Z</time>
      </trkpt>
      <trkpt lat="48.63093" lon="7.31791">
        <ele>346.69</ele>
        <time>2015-03-27T10:27:50Z</time>
      </trkpt>
      <trkpt lat="48.63115" lon="7.31779">
        <ele>348.13</ele>
        <time>2015-03-27T10:27:55Z</time>
      </trkpt>
      <trkpt lat="48.63119" lon="7.31778">
        <ele>348.62</ele>
        <time>2015-03-27T10:27:56Z</time>
      </trkpt>
      <trkpt lat="48.63124" lon="7.31778">
        <ele>349.1</ele>
        <time>2015-03-27T10:27:57Z</time>
      </trkpt>
      <trkpt lat="48.63208" lon="7.31794">
        <ele>357.75</ele>
        <time>2015-03-27T10:28:13Z</time>
      </trkpt>
      <trkpt lat="48.63286" lon="7.3183">
        <ele>361.59</ele>
        <time>2015-03-27T10:28:29Z</time>
      </trkpt>
      <trkpt lat="48.63369" lon="7.31845">
        <ele>364.96</ele>
        <time>2015-03-27T10:28:44Z</time>
      </trkpt>
      <trkpt lat="48.63374" lon="7.31842">
        <ele>365.44</ele>
        <time>2015-03-27T10:28:45Z</time>
      </trkpt>
      <trkpt lat="48.63379" lon="7.31839">
        <ele>365.44</ele>
        <time>2015-03-27T10:28:46Z</time>
      </trkpt>
      <trkpt lat="48.63383" lon="7.31835">
        <ele>365.92</ele>
        <time>2015-03-27T10:28:47Z</time>
      </trkpt>
      <trkpt lat="48.63387" lon="7.3183">
        <ele>365.92</ele>
        <time>2015-03-27T10:28:48Z</time>
      </trkpt>
      <trkpt lat="48.6339" lon="7.31825">
        <ele>365.92</ele>
        <time>2015-03-27T10:28:49Z</time>
      </trkpt>
      <trkpt lat="48.63393" lon="7.31819">
        <ele>366.4</ele>
        <time>2015-03-27T10:28:50Z</time>
      </trkpt>
      <trkpt lat="48.63396" lon="7.31812">
        <ele>366.4</ele>
        <time>2015-03-27T10:28:51Z</time>
      </trkpt>
      <trkpt lat="48.63409" lon="7.3178">
        <ele>366.88</ele>
        <time>2015-03-27T10:28:56Z</time>
      </trkpt>
      <trkpt lat="48.63454" lon="7.31691">
        <ele>364</ele>
        <time>2015-03-27T10:29:11Z</time>
      </trkpt>
      <trkpt lat="48.6351" lon="7.31598">
        <ele>361.11</ele>
        <time>2015-03-27T10:29:28Z</time>
      </trkpt>
      <trkpt lat="48.6356" lon="7.31493">
        <ele>361.11</ele>
        <time>2015-03-27T10:29:45Z</time>
      </trkpt>
      <trkpt lat="48.63562" lon="7.31486">
        <ele>361.11</ele>
        <time>2015-03-27T10:29:46Z</time>
      </trkpt>
      <trkpt lat="48.63564" lon="7.31392">
        <ele>361.11</ele>
        <time>2015-03-27T10:30:00Z</time>
      </trkpt>
      <trkpt lat="48.63552" lon="7.31329">
        <ele>361.59</ele>
        <time>2015-03-27T10:30:10Z</time>
      </trkpt>
      <trkpt lat="48.63543" lon="7.31301">
        <ele>362.07</ele>
        <time>2015-03-27T10:30:15Z</time>
      </trkpt>
      <trkpt lat="48.63538" lon="7.31265">
        <ele>362.55</ele>
        <time>2015-03-27T10:30:20Z</time>
      </trkpt>
      <trkpt lat="48.63535" lon="7.31155">
        <ele>364</ele>
        <time>2015-03-27T10:30:34Z</time>
      </trkpt>
      <trkpt lat="48.63533" lon="7.31146">
        <ele>364</ele>
        <time>2015-03-27T10:30:35Z</time>
      </trkpt>
      <trkpt lat="48.63518" lon="7.31077">
        <ele>364.48</ele>
        <time>2015-03-27T10:30:43Z</time>
      </trkpt>
      <trkpt lat="48.63512" lon="7.30928">
        <ele>364</ele>
        <time>2015-03-27T10:31:00Z</time>
      </trkpt>
      <trkpt lat="48.6351" lon="7.30803">
        <ele>365.44</ele>
        <time>2015-03-27T10:31:17Z</time>
      </trkpt>
      <trkpt lat="48.63479" lon="7.30712">
        <ele>365.44</ele>
        <time>2015-03-27T10:31:32Z</time>
      </trkpt>
      <trkpt lat="48.63477" lon="7.30705">
        <ele>365.44</ele>
        <time>2015-03-27T10:31:33Z</time>
      </trkpt>
      <trkpt lat="48.63455" lon="7.30587">
        <ele>364.96</ele>
        <time>2015-03-27T10:31:51Z</time>
      </trkpt>
      <trkpt lat="48.63454" lon="7.3058">
        <ele>364.96</ele>
        <time>2015-03-27T10:31:52Z</time>
      </trkpt>
      <trkpt lat="48.63455" lon="7.30572">
        <ele>364.48</ele>
        <time>2015-03-27T10:31:53Z</time>
      </trkpt>
      <trkpt lat="48.63458" lon="7.30565">
        <ele>364</ele>
        <time>2015-03-27T10:31:54Z</time>
      </trkpt>
      <trkpt lat="48.63462" lon="7.30559">
        <ele>364</ele>
        <time>2015-03-27T10:31:55Z</time>
      </trkpt>
      <trkpt lat="48.63467" lon="7.30556">
        <ele>364</ele>
        <time>2015-03-27T10:31:56Z</time>
      </trkpt>
      <trkpt lat="48.63473" lon="7.30554">
        <ele>364.48</ele>
        <time>2015-03-27T10:31:57Z</time>
      </trkpt>
      <trkpt lat="48.63516" lon="7.30539">
        <ele>365.92</ele>
        <time>2015-03-27T10:32:05Z</time>
      </trkpt>
      <trkpt lat="48.6352" lon="7.30535">
        <ele>366.4</ele>
        <time>2015-03-27T10:32:06Z</time>
      </trkpt>
      <trkpt lat="48.63524" lon="7.30531">
        <ele>366.4</ele>
        <time>2015-03-27T10:32:07Z</time>
      </trkpt>
      <trkpt lat="48.63545" lon="7.30503">
        <ele>368.32</ele>
        <time>2015-03-27T10:32:13Z</time>
      </trkpt>
      <trkpt lat="48.63547" lon="7.30497">
        <ele>368.8</ele>
        <time>2015-03-27T10:32:14Z</time>
      </trkpt>
      <trkpt lat="48.63549" lon="7.30491">
        <ele>369.28</ele>
        <time>2015-03-27T10:32:15Z</time>
      </trkpt>
      <trkpt lat="48.6355" lon="7.30485">
        <ele>369.76</ele>
        <time>2015-03-27T10:32:16Z</time>
      </trkpt>
      <trkpt lat="48.63551" lon="7.30479">
        <ele>369.76</ele>
        <time>2015-03-27T10:32:17Z</time>
      </trkpt>
      <trkpt lat="48.63551" lon="7.30472">
        <ele>369.76</ele>
        <time>2015-03-27T10:32:18Z</time>
      </trkpt>
      <trkpt lat="48.6355" lon="7.30466">
        <ele>370.24</ele>
        <time>2015-03-27T10:32:19Z</time>
      </trkpt>
      <trkpt lat="48.63548" lon="7.30459">
        <ele>370.73</ele>
        <time>2015-03-27T10:32:20Z</time>
      </trkpt>
      <trkpt lat="48.63547" lon="7.30453">
        <ele>371.21</ele>
        <time>2015-03-27T10:32:21Z</time>
      </trkpt>
      <trkpt lat="48.63546" lon="7.30446">
        <ele>371.21</ele>
        <time>2015-03-27T10:32:22Z</time>
      </trkpt>
      <trkpt lat="48.63546" lon="7.3044">
        <ele>371.69</ele>
        <time>2015-03-27T10:32:23Z</time>
      </trkpt>
      <trkpt lat="48.63544" lon="7.30428">
        <ele>371.69</ele>
        <time>2015-03-27T10:32:25Z</time>
      </trkpt>
      <trkpt lat="48.63543" lon="7.30422">
        <ele>372.17</ele>
        <time>2015-03-27T10:32:26Z</time>
      </trkpt>
      <trkpt lat="48.63558" lon="7.30382">
        <ele>374.09</ele>
        <time>2015-03-27T10:32:35Z</time>
      </trkpt>
      <trkpt lat="48.63614" lon="7.30367">
        <ele>378.9</ele>
        <time>2015-03-27T10:32:52Z</time>
      </trkpt>
      <trkpt lat="48.63685" lon="7.30348">
        <ele>386.59</ele>
        <time>2015-03-27T10:33:12Z</time>
      </trkpt>
      <trkpt lat="48.63756" lon="7.3032">
        <ele>392.36</ele>
        <time>2015-03-27T10:33:32Z</time>
      </trkpt>
      <trkpt lat="48.63815" lon="7.30298">
        <ele>399.08</ele>
        <time>2015-03-27T10:33:50Z</time>
      </trkpt>
      <trkpt lat="48.63868" lon="7.30309">
        <ele>402.45</ele>
        <time>2015-03-27T10:34:04Z</time>
      </trkpt>
      <trkpt lat="48.6387" lon="7.30314">
        <ele>402.45</ele>
        <time>2015-03-27T10:34:05Z</time>
      </trkpt>
      <trkpt lat="48.63871" lon="7.30319">
        <ele>402.93</ele>
        <time>2015-03-27T10:34:06Z</time>
      </trkpt>
      <trkpt lat="48.63871" lon="7.30325">
        <ele>403.41</ele>
        <time>2015-03-27T10:34:07Z</time>
      </trkpt>
      <trkpt lat="48.6387" lon="7.3033">
        <ele>403.89</ele>
        <time>2015-03-27T10:34:08Z</time>
      </trkpt>
      <trkpt lat="48.63868" lon="7.30334">
        <ele>404.37</ele>
        <time>2015-03-27T10:34:09Z</time>
      </trkpt>
      <trkpt lat="48.63866" lon="7.30339">
        <ele>405.33</ele>
        <time>2015-03-27T10:34:10Z</time>
      </trkpt>
      <trkpt lat="48.63864" lon="7.30343">
        <ele>405.81</ele>
        <time>2015-03-27T10:34:11Z</time>
      </trkpt>
      <trkpt lat="48.63815" lon="7.30392">
        <ele>412.06</ele>
        <time>2015-03-27T10:34:27Z</time>
      </trkpt>
      <trkpt lat="48.63755" lon="7.3045">
        <ele>417.35</ele>
        <time>2015-03-27T10:34:46Z</time>
      </trkpt>
      <trkpt lat="48.63698" lon="7.30503">
        <ele>421.19</ele>
        <time>2015-03-27T10:35:06Z</time>
      </trkpt>
      <trkpt lat="48.63689" lon="7.30572">
        <ele>424.56</ele>
        <time>2015-03-27T10:35:19Z</time>
      </trkpt>
      <trkpt lat="48.63686" lon="7.30673">
        <ele>427.44</ele>
        <time>2015-03-27T10:35:38Z</time>
      </trkpt>
      <trkpt lat="48.63678" lon="7.30752">
        <ele>430.81</ele>
        <time>2015-03-27T10:35:53Z</time>
      </trkpt>
      <trkpt lat="48.63707" lon="7.30828">
        <ele>431.77</ele>
        <time>2015-03-27T10:36:08Z</time>
      </trkpt>
      <trkpt lat="48.63724" lon="7.30931">
        <ele>433.21</ele>
        <time>2015-03-27T10:36:26Z</time>
      </trkpt>
      <trkpt lat="48.63752" lon="7.31028">
        <ele>432.73</ele>
        <time>2015-03-27T10:36:44Z</time>
      </trkpt>
      <trkpt lat="48.63776" lon="7.31126">
        <ele>432.25</ele>
        <time>2015-03-27T10:37:01Z</time>
      </trkpt>
      <trkpt lat="48.63796" lon="7.31232">
        <ele>434.65</ele>
        <time>2015-03-27T10:37:20Z</time>
      </trkpt>
      <trkpt lat="48.63815" lon="7.31345">
        <ele>438.98</ele>
        <time>2015-03-27T10:37:40Z</time>
      </trkpt>
      <trkpt lat="48.63833" lon="7.31456">
        <ele>441.38</ele>
        <time>2015-03-27T10:38:00Z</time>
      </trkpt>
      <trkpt lat="48.63867" lon="7.31552">
        <ele>441.38</ele>
        <time>2015-03-27T10:38:19Z</time>
      </trkpt>
      <trkpt lat="48.63917" lon="7.31651">
        <ele>443.31</ele>
        <time>2015-03-27T10:38:39Z</time>
      </trkpt>
      <trkpt lat="48.6392" lon="7.31657">
        <ele>443.31</ele>
        <time>2015-03-27T10:38:40Z</time>
      </trkpt>
      <trkpt lat="48.63923" lon="7.31662">
        <ele>443.31</ele>
        <time>2015-03-27T10:38:41Z</time>
      </trkpt>
      <trkpt lat="48.63927" lon="7.31667">
        <ele>443.31</ele>
        <time>2015-03-27T10:38:42Z</time>
      </trkpt>
      <trkpt lat="48.63944" lon="7.31684">
        <ele>443.31</ele>
        <time>2015-03-27T10:38:46Z</time>
      </trkpt>
      <trkpt lat="48.64032" lon="7.3173">
        <ele>445.23</ele>
        <time>2015-03-27T10:39:00Z</time>
      </trkpt>
      <trkpt lat="48.64144" lon="7.31797">
        <ele>449.55</ele>
        <time>2015-03-27T10:39:18Z</time>
      </trkpt>
      <trkpt lat="48.64236" lon="7.31828">
        <ele>452.92</ele>
        <time>2015-03-27T10:39:33Z</time>
      </trkpt>
      <trkpt lat="48.64295" lon="7.31822">
        <ele>454.36</ele>
        <time>2015-03-27T10:39:42Z</time>
      </trkpt>
      <trkpt lat="48.643" lon="7.31819">
        <ele>454.36</ele>
        <time>2015-03-27T10:39:43Z</time>
      </trkpt>
      <trkpt lat="48.64305" lon="7.31814">
        <ele>454.84</ele>
        <time>2015-03-27T10:39:44Z</time>
      </trkpt>
      <trkpt lat="48.64307" lon="7.31809">
        <ele>454.84</ele>
        <time>2015-03-27T10:39:45Z</time>
      </trkpt>
      <trkpt lat="48.64308" lon="7.31802">
        <ele>455.32</ele>
        <time>2015-03-27T10:39:46Z</time>
      </trkpt>
      <trkpt lat="48.64308" lon="7.31795">
        <ele>455.32</ele>
        <time>2015-03-27T10:39:47Z</time>
      </trkpt>
      <trkpt lat="48.64307" lon="7.31787">
        <ele>455.32</ele>
        <time>2015-03-27T10:39:48Z</time>
      </trkpt>
      <trkpt lat="48.64283" lon="7.31683">
        <ele>458.69</ele>
        <time>2015-03-27T10:40:04Z</time>
      </trkpt>
      <trkpt lat="48.64247" lon="7.31533">
        <ele>465.42</ele>
        <time>2015-03-27T10:40:28Z</time>
      </trkpt>
      <trkpt lat="48.64223" lon="7.31431">
        <ele>469.74</ele>
        <time>2015-03-27T10:40:45Z</time>
      </trkpt>
      <trkpt lat="48.64196" lon="7.3135">
        <ele>469.74</ele>
        <time>2015-03-27T10:40:59Z</time>
      </trkpt>
      <trkpt lat="48.64145" lon="7.3122">
        <ele>470.7</ele>
        <time>2015-03-27T10:41:21Z</time>
      </trkpt>
      <trkpt lat="48.64115" lon="7.31133">
        <ele>470.7</ele>
        <time>2015-03-27T10:41:32Z</time>
      </trkpt>
      <trkpt lat="48.64114" lon="7.31124">
        <ele>470.7</ele>
        <time>2015-03-27T10:41:33Z</time>
      </trkpt>
      <trkpt lat="48.64119" lon="7.30981">
        <ele>466.86</ele>
        <time>2015-03-27T10:41:47Z</time>
      </trkpt>
      <trkpt lat="48.64135" lon="7.30776">
        <ele>464.93</ele>
        <time>2015-03-27T10:42:10Z</time>
      </trkpt>
      <trkpt lat="48.64141" lon="7.30639">
        <ele>465.42</ele>
        <time>2015-03-27T10:42:24Z</time>
      </trkpt>
      <trkpt lat="48.64143" lon="7.30629">
        <ele>465.42</ele>
        <time>2015-03-27T10:42:25Z</time>
      </trkpt>
      <trkpt lat="48.64146" lon="7.30619">
        <ele>465.42</ele>
        <time>2015-03-27T10:42:26Z</time>
      </trkpt>
      <trkpt lat="48.64149" lon="7.30609">
        <ele>465.42</ele>
        <time>2015-03-27T10:42:27Z</time>
      </trkpt>
      <trkpt lat="48.64153" lon="7.30599">
        <ele>464.93</ele>
        <time>2015-03-27T10:42:28Z</time>
      </trkpt>
      <trkpt lat="48.64187" lon="7.30485">
        <ele>464.93</ele>
        <time>2015-03-27T10:42:42Z</time>
      </trkpt>
      <trkpt lat="48.64189" lon="7.30478">
        <ele>464.93</ele>
        <time>2015-03-27T10:42:43Z</time>
      </trkpt>
      <trkpt lat="48.6419" lon="7.30472">
        <ele>465.42</ele>
        <time>2015-03-27T10:42:44Z</time>
      </trkpt>
      <trkpt lat="48.64193" lon="7.30376">
        <ele>469.74</ele>
        <time>2015-03-27T10:42:58Z</time>
      </trkpt>
      <trkpt lat="48.64171" lon="7.30278">
        <ele>475.51</ele>
        <time>2015-03-27T10:43:15Z</time>
      </trkpt>
      <trkpt lat="48.64164" lon="7.30185">
        <ele>481.76</ele>
        <time>2015-03-27T10:43:31Z</time>
      </trkpt>
      <trkpt lat="48.64148" lon="7.30091">
        <ele>488.49</ele>
        <time>2015-03-27T10:43:49Z</time>
      </trkpt>
      <trkpt lat="48.64148" lon="7.2999">
        <ele>495.22</ele>
        <time>2015-03-27T10:44:06Z</time>
      </trkpt>
      <trkpt lat="48.64165" lon="7.29875">
        <ele>494.74</ele>
        <time>2015-03-27T10:44:24Z</time>
      </trkpt>
      <trkpt lat="48.64177" lon="7.29762">
        <ele>496.18</ele>
        <time>2015-03-27T10:44:42Z</time>
      </trkpt>
      <trkpt lat="48.64189" lon="7.29662">
        <ele>497.62</ele>
        <time>2015-03-27T10:44:59Z</time>
      </trkpt>
      <trkpt lat="48.64168" lon="7.29601">
        <ele>501.95</ele>
        <time>2015-03-27T10:45:11Z</time>
      </trkpt>
      <trkpt lat="48.64126" lon="7.29601">
        <ele>503.87</ele>
        <time>2015-03-27T10:45:23Z</time>
      </trkpt>
      <trkpt lat="48.64048" lon="7.29635">
        <ele>510.6</ele>
        <time>2015-03-27T10:45:44Z</time>
      </trkpt>
      <trkpt lat="48.63992" lon="7.29671">
        <ele>516.37</ele>
        <time>2015-03-27T10:46:00Z</time>
      </trkpt>
      <trkpt lat="48.63947" lon="7.29706">
        <ele>520.69</ele>
        <time>2015-03-27T10:46:12Z</time>
      </trkpt>
      <trkpt lat="48.63893" lon="7.2974">
        <ele>526.94</ele>
        <time>2015-03-27T10:46:28Z</time>
      </trkpt>
      <trkpt lat="48.63815" lon="7.29776">
        <ele>536.07</ele>
        <time>2015-03-27T10:46:47Z</time>
      </trkpt>
      <trkpt lat="48.63767" lon="7.29754">
        <ele>537.51</ele>
        <time>2015-03-27T10:46:59Z</time>
      </trkpt>
      <trkpt lat="48.63731" lon="7.29681">
        <ele>536.55</ele>
        <time>2015-03-27T10:47:15Z</time>
      </trkpt>
      <trkpt lat="48.63709" lon="7.29607">
        <ele>535.11</ele>
        <time>2015-03-27T10:47:29Z</time>
      </trkpt>
      <trkpt lat="48.63721" lon="7.29593">
        <ele>536.55</ele>
        <time>2015-03-27T10:47:34Z</time>
      </trkpt>
      <trkpt lat="48.63724" lon="7.29595">
        <ele>536.55</ele>
        <time>2015-03-27T10:47:35Z</time>
      </trkpt>
      <trkpt lat="48.63726" lon="7.29598">
        <ele>536.55</ele>
        <time>2015-03-27T10:47:36Z</time>
      </trkpt>
      <trkpt lat="48.63728" lon="7.29601">
        <ele>537.03</ele>
        <time>2015-03-27T10:47:37Z</time>
      </trkpt>
      <trkpt lat="48.6373" lon="7.29604">
        <ele>536.07</ele>
        <time>2015-03-27T10:47:38Z</time>
      </trkpt>
      <trkpt lat="48.63758" lon="7.29667">
        <ele>542.8</ele>
        <time>2015-03-27T10:47:53Z</time>
      </trkpt>
      <trkpt lat="48.63807" lon="7.29694">
        <ele>550.97</ele>
        <time>2015-03-27T10:48:10Z</time>
      </trkpt>
      <trkpt lat="48.63855" lon="7.29679">
        <ele>553.86</ele>
        <time>2015-03-27T10:48:24Z</time>
      </trkpt>
      <trkpt lat="48.63911" lon="7.29616">
        <ele>550.49</ele>
        <time>2015-03-27T10:48:44Z</time>
      </trkpt>
      <trkpt lat="48.63955" lon="7.29562">
        <ele>551.93</ele>
        <time>2015-03-27T10:49:01Z</time>
      </trkpt>
      <trkpt lat="48.64008" lon="7.29516">
        <ele>553.86</ele>
        <time>2015-03-27T10:49:19Z</time>
      </trkpt>
      <trkpt lat="48.6406" lon="7.29471">
        <ele>556.26</ele>
        <time>2015-03-27T10:49:37Z</time>
      </trkpt>
      <trkpt lat="48.64117" lon="7.29426">
        <ele>560.59</ele>
        <time>2015-03-27T10:49:55Z</time>
      </trkpt>
      <trkpt lat="48.64159" lon="7.29395">
        <ele>562.99</ele>
        <time>2015-03-27T10:50:09Z</time>
      </trkpt>
      <trkpt lat="48.64207" lon="7.29364">
        <ele>564.43</ele>
        <time>2015-03-27T10:50:24Z</time>
      </trkpt>
      <trkpt lat="48.6426" lon="7.29346">
        <ele>567.8</ele>
        <time>2015-03-27T10:50:40Z</time>
      </trkpt>
      <trkpt lat="48.64324" lon="7.29345">
        <ele>574.04</ele>
        <time>2015-03-27T10:50:59Z</time>
      </trkpt>
      <trkpt lat="48.64356" lon="7.29406">
        <ele>578.37</ele>
        <time>2015-03-27T10:51:11Z</time>
      </trkpt>
      <trkpt lat="48.64359" lon="7.29506">
        <ele>588.46</ele>
        <time>2015-03-27T10:51:30Z</time>
      </trkpt>
      <trkpt lat="48.64352" lon="7.29594">
        <ele>596.64</ele>
        <time>2015-03-27T10:51:48Z</time>
      </trkpt>
      <trkpt lat="48.64344" lon="7.29706">
        <ele>607.21</ele>
        <time>2015-03-27T10:52:11Z</time>
      </trkpt>
      <trkpt lat="48.64341" lon="7.29791">
        <ele>615.38</ele>
        <time>2015-03-27T10:52:29Z</time>
      </trkpt>
      <trkpt lat="48.64363" lon="7.2989">
        <ele>623.07</ele>
        <time>2015-03-27T10:52:49Z</time>
      </trkpt>
      <trkpt lat="48.64393" lon="7.29958">
        <ele>626.92</ele>
        <time>2015-03-27T10:53:08Z</time>
      </trkpt>
      <trkpt lat="48.64453" lon="7.30001">
        <ele>627.4</ele>
        <time>2015-03-27T10:53:28Z</time>
      </trkpt>
      <trkpt lat="48.64515" lon="7.3001">
        <ele>623.07</ele>
        <time>2015-03-27T10:53:45Z</time>
      </trkpt>
      <trkpt lat="48.64563" lon="7.29982">
        <ele>621.15</ele>
        <time>2015-03-27T10:54:00Z</time>
      </trkpt>
      <trkpt lat="48.64612" lon="7.29933">
        <ele>623.55</ele>
        <time>2015-03-27T10:54:17Z</time>
      </trkpt>
      <trkpt lat="48.64672" lon="7.29908">
        <ele>625.47</ele>
        <time>2015-03-27T10:54:34Z</time>
      </trkpt>
      <trkpt lat="48.64727" lon="7.29885">
        <ele>626.44</ele>
        <time>2015-03-27T10:54:49Z</time>
      </trkpt>
      <trkpt lat="48.64731" lon="7.29882">
        <ele>626.44</ele>
        <time>2015-03-27T10:54:50Z</time>
      </trkpt>
      <trkpt lat="48.64734" lon="7.29878">
        <ele>625.96</ele>
        <time>2015-03-27T10:54:51Z</time>
      </trkpt>
      <trkpt lat="48.64737" lon="7.29875">
        <ele>625.96</ele>
        <time>2015-03-27T10:54:52Z</time>
      </trkpt>
      <trkpt lat="48.6474" lon="7.29871">
        <ele>625.96</ele>
        <time>2015-03-27T10:54:53Z</time>
      </trkpt>
      <trkpt lat="48.64775" lon="7.29789">
        <ele>628.36</ele>
        <time>2015-03-27T10:55:11Z</time>
      </trkpt>
      <trkpt lat="48.64799" lon="7.29711">
        <ele>632.2</ele>
        <time>2015-03-27T10:55:29Z</time>
      </trkpt>
      <trkpt lat="48.64818" lon="7.29648">
        <ele>634.13</ele>
        <time>2015-03-27T10:55:43Z</time>
      </trkpt>
      <trkpt lat="48.64851" lon="7.29577">
        <ele>637.01</ele>
        <time>2015-03-27T10:56:01Z</time>
      </trkpt>
      <trkpt lat="48.64893" lon="7.29538">
        <ele>638.93</ele>
        <time>2015-03-27T10:56:16Z</time>
      </trkpt>
      <trkpt lat="48.64946" lon="7.29519">
        <ele>644.7</ele>
        <time>2015-03-27T10:56:32Z</time>
      </trkpt>
      <trkpt lat="48.65008" lon="7.29497">
        <ele>651.43</ele>
        <time>2015-03-27T10:56:51Z</time>
      </trkpt>
      <trkpt lat="48.6507" lon="7.29464">
        <ele>657.2</ele>
        <time>2015-03-27T10:57:10Z</time>
      </trkpt>
      <trkpt lat="48.65119" lon="7.29414">
        <ele>659.6</ele>
        <time>2015-03-27T10:57:27Z</time>
      </trkpt>
      <trkpt lat="48.65137" lon="7.29327">
        <ele>661.52</ele>
        <time>2015-03-27T10:57:43Z</time>
      </trkpt>
      <trkpt lat="48.65171" lon="7.29229">
        <ele>664.89</ele>
        <time>2015-03-27T10:58:02Z</time>
      </trkpt>
      <trkpt lat="48.65201" lon="7.29128">
        <ele>666.33</ele>
        <time>2015-03-27T10:58:22Z</time>
      </trkpt>
      <trkpt lat="48.65197" lon="7.29039">
        <ele>664.41</ele>
        <time>2015-03-27T10:58:37Z</time>
      </trkpt>
      <trkpt lat="48.6518" lon="7.28978">
        <ele>666.81</ele>
        <time>2015-03-27T10:58:48Z</time>
      </trkpt>
      <trkpt lat="48.65178" lon="7.28973">
        <ele>666.81</ele>
        <time>2015-03-27T10:58:49Z</time>
      </trkpt>
      <trkpt lat="48.65122" lon="7.28887">
        <ele>669.7</ele>
        <time>2015-03-27T10:59:08Z</time>
      </trkpt>
      <trkpt lat="48.65084" lon="7.28868">
        <ele>671.62</ele>
        <time>2015-03-27T10:59:16Z</time>
      </trkpt>
      <trkpt lat="48.65078" lon="7.28868">
        <ele>671.62</ele>
        <time>2015-03-27T10:59:17Z</time>
      </trkpt>
      <trkpt lat="48.65073" lon="7.28869">
        <ele>672.1</ele>
        <time>2015-03-27T10:59:18Z</time>
      </trkpt>
      <trkpt lat="48.6497" lon="7.28889">
        <ele>675.94</ele>
        <time>2015-03-27T10:59:36Z</time>
      </trkpt>
      <trkpt lat="48.64868" lon="7.28868">
        <ele>677.39</ele>
        <time>2015-03-27T10:59:50Z</time>
      </trkpt>
      <trkpt lat="48.64778" lon="7.28793">
        <ele>673.54</ele>
        <time>2015-03-27T11:00:04Z</time>
      </trkpt>
      <trkpt lat="48.64774" lon="7.28784">
        <ele>673.54</ele>
        <time>2015-03-27T11:00:05Z</time>
      </trkpt>
      <trkpt lat="48.64769" lon="7.28775">
        <ele>673.54</ele>
        <time>2015-03-27T11:00:06Z</time>
      </trkpt>
      <trkpt lat="48.64766" lon="7.28764">
        <ele>673.06</ele>
        <time>2015-03-27T11:00:07Z</time>
      </trkpt>
      <trkpt lat="48.64762" lon="7.28754">
        <ele>672.58</ele>
        <time>2015-03-27T11:00:08Z</time>
      </trkpt>
      <trkpt lat="48.64759" lon="7.28742">
        <ele>672.58</ele>
        <time>2015-03-27T11:00:09Z</time>
      </trkpt>
      <trkpt lat="48.64757" lon="7.2873">
        <ele>672.1</ele>
        <time>2015-03-27T11:00:10Z</time>
      </trkpt>
      <trkpt lat="48.64754" lon="7.28718">
        <ele>672.1</ele>
        <time>2015-03-27T11:00:11Z</time>
      </trkpt>
      <trkpt lat="48.64731" lon="7.28547">
        <ele>669.22</ele>
        <time>2015-03-27T11:00:24Z</time>
      </trkpt>
      <trkpt lat="48.64685" lon="7.28313">
        <ele>660.56</ele>
        <time>2015-03-27T11:00:41Z</time>
      </trkpt>
      <trkpt lat="48.64619" lon="7.281">
        <ele>652.39</ele>
        <time>2015-03-27T11:00:57Z</time>
      </trkpt>
      <trkpt lat="48.64605" lon="7.28032">
        <ele>649.51</ele>
        <time>2015-03-27T11:01:02Z</time>
      </trkpt>
      <trkpt lat="48.64604" lon="7.28017">
        <ele>648.55</ele>
        <time>2015-03-27T11:01:03Z</time>
      </trkpt>
      <trkpt lat="48.64605" lon="7.27836">
        <ele>642.3</ele>
        <time>2015-03-27T11:01:15Z</time>
      </trkpt>
      <trkpt lat="48.64597" lon="7.27621">
        <ele>635.57</ele>
        <time>2015-03-27T11:01:30Z</time>
      </trkpt>
      <trkpt lat="48.64595" lon="7.27606">
        <ele>634.61</ele>
        <time>2015-03-27T11:01:31Z</time>
      </trkpt>
      <trkpt lat="48.64593" lon="7.27591">
        <ele>634.13</ele>
        <time>2015-03-27T11:01:32Z</time>
      </trkpt>
      <trkpt lat="48.64551" lon="7.27437">
        <ele>627.88</ele>
        <time>2015-03-27T11:01:42Z</time>
      </trkpt>
      <trkpt lat="48.64549" lon="7.27421">
        <ele>627.4</ele>
        <time>2015-03-27T11:01:43Z</time>
      </trkpt>
      <trkpt lat="48.64531" lon="7.27229">
        <ele>620.67</ele>
        <time>2015-03-27T11:01:55Z</time>
      </trkpt>
      <trkpt lat="48.64524" lon="7.27199">
        <ele>619.23</ele>
        <time>2015-03-27T11:01:57Z</time>
      </trkpt>
      <trkpt lat="48.6452" lon="7.27184">
        <ele>618.75</ele>
        <time>2015-03-27T11:01:58Z</time>
      </trkpt>
      <trkpt lat="48.64498" lon="7.27131">
        <ele>615.86</ele>
        <time>2015-03-27T11:02:02Z</time>
      </trkpt>
      <trkpt lat="48.64491" lon="7.27121">
        <ele>615.38</ele>
        <time>2015-03-27T11:02:03Z</time>
      </trkpt>
      <trkpt lat="48.64482" lon="7.27112">
        <ele>614.42</ele>
        <time>2015-03-27T11:02:04Z</time>
      </trkpt>
      <trkpt lat="48.64471" lon="7.27106">
        <ele>613.94</ele>
        <time>2015-03-27T11:02:05Z</time>
      </trkpt>
      <trkpt lat="48.6446" lon="7.27103">
        <ele>613.46</ele>
        <time>2015-03-27T11:02:06Z</time>
      </trkpt>
      <trkpt lat="48.64448" lon="7.27102">
        <ele>612.98</ele>
        <time>2015-03-27T11:02:07Z</time>
      </trkpt>
      <trkpt lat="48.64435" lon="7.27102">
        <ele>612.5</ele>
        <time>2015-03-27T11:02:08Z</time>
      </trkpt>
      <trkpt lat="48.64423" lon="7.27106">
        <ele>611.54</ele>
        <time>2015-03-27T11:02:09Z</time>
      </trkpt>
      <trkpt lat="48.64411" lon="7.27111">
        <ele>611.06</ele>
        <time>2015-03-27T11:02:10Z</time>
      </trkpt>
      <trkpt lat="48.64398" lon="7.27118">
        <ele>610.09</ele>
        <time>2015-03-27T11:02:11Z</time>
      </trkpt>
      <trkpt lat="48.64386" lon="7.27126">
        <ele>609.61</ele>
        <time>2015-03-27T11:02:12Z</time>
      </trkpt>
      <trkpt lat="48.64374" lon="7.27136">
        <ele>609.13</ele>
        <time>2015-03-27T11:02:13Z</time>
      </trkpt>
      <trkpt lat="48.64363" lon="7.27147">
        <ele>608.65</ele>
        <time>2015-03-27T11:02:14Z</time>
      </trkpt>
      <trkpt lat="48.64352" lon="7.27159">
        <ele>608.17</ele>
        <time>2015-03-27T11:02:15Z</time>
      </trkpt>
      <trkpt lat="48.64246" lon="7.27268">
        <ele>603.36</ele>
        <time>2015-03-27T11:02:25Z</time>
      </trkpt>
      <trkpt lat="48.64185" lon="7.27377">
        <ele>599.04</ele>
        <time>2015-03-27T11:02:33Z</time>
      </trkpt>
      <trkpt lat="48.64175" lon="7.27388">
        <ele>598.56</ele>
        <time>2015-03-27T11:02:34Z</time>
      </trkpt>
      <trkpt lat="48.64163" lon="7.27397">
        <ele>598.08</ele>
        <time>2015-03-27T11:02:35Z</time>
      </trkpt>
      <trkpt lat="48.64151" lon="7.27403">
        <ele>597.12</ele>
        <time>2015-03-27T11:02:36Z</time>
      </trkpt>
      <trkpt lat="48.64138" lon="7.27406">
        <ele>596.64</ele>
        <time>2015-03-27T11:02:37Z</time>
      </trkpt>
      <trkpt lat="48.64125" lon="7.27402">
        <ele>596.15</ele>
        <time>2015-03-27T11:02:38Z</time>
      </trkpt>
      <trkpt lat="48.64114" lon="7.27392">
        <ele>596.15</ele>
        <time>2015-03-27T11:02:39Z</time>
      </trkpt>
      <trkpt lat="48.64106" lon="7.27379">
        <ele>595.67</ele>
        <time>2015-03-27T11:02:40Z</time>
      </trkpt>
      <trkpt lat="48.641" lon="7.27362">
        <ele>595.19</ele>
        <time>2015-03-27T11:02:41Z</time>
      </trkpt>
      <trkpt lat="48.64096" lon="7.27344">
        <ele>595.19</ele>
        <time>2015-03-27T11:02:42Z</time>
      </trkpt>
      <trkpt lat="48.64094" lon="7.27326">
        <ele>594.71</ele>
        <time>2015-03-27T11:02:43Z</time>
      </trkpt>
      <trkpt lat="48.64093" lon="7.27309">
        <ele>594.71</ele>
        <time>2015-03-27T11:02:44Z</time>
      </trkpt>
      <trkpt lat="48.64093" lon="7.27292">
        <ele>594.23</ele>
        <time>2015-03-27T11:02:45Z</time>
      </trkpt>
      <trkpt lat="48.64077" lon="7.27117">
        <ele>591.35</ele>
        <time>2015-03-27T11:02:57Z</time>
      </trkpt>
      <trkpt lat="48.64078" lon="7.27104">
        <ele>591.35</ele>
        <time>2015-03-27T11:02:58Z</time>
      </trkpt>
      <trkpt lat="48.6408" lon="7.27091">
        <ele>591.35</ele>
        <time>2015-03-27T11:02:59Z</time>
      </trkpt>
      <trkpt lat="48.64083" lon="7.27078">
        <ele>590.87</ele>
        <time>2015-03-27T11:03:00Z</time>
      </trkpt>
      <trkpt lat="48.64087" lon="7.27067">
        <ele>590.87</ele>
        <time>2015-03-27T11:03:01Z</time>
      </trkpt>
      <trkpt lat="48.64092" lon="7.27056">
        <ele>590.87</ele>
        <time>2015-03-27T11:03:02Z</time>
      </trkpt>
      <trkpt lat="48.64147" lon="7.26905">
        <ele>591.35</ele>
        <time>2015-03-27T11:03:16Z</time>
      </trkpt>
      <trkpt lat="48.64194" lon="7.26699">
        <ele>590.39</ele>
        <time>2015-03-27T11:03:34Z</time>
      </trkpt>
      <trkpt lat="48.64207" lon="7.26621">
        <ele>589.91</ele>
        <time>2015-03-27T11:03:41Z</time>
      </trkpt>
      <trkpt lat="48.64186" lon="7.26513">
        <ele>587.5</ele>
        <time>2015-03-27T11:03:51Z</time>
      </trkpt>
      <trkpt lat="48.64182" lon="7.26479">
        <ele>587.02</ele>
        <time>2015-03-27T11:03:54Z</time>
      </trkpt>
      <trkpt lat="48.64181" lon="7.26467">
        <ele>587.02</ele>
        <time>2015-03-27T11:03:55Z</time>
      </trkpt>
      <trkpt lat="48.64182" lon="7.26455">
        <ele>587.02</ele>
        <time>2015-03-27T11:03:56Z</time>
      </trkpt>
      <trkpt lat="48.64184" lon="7.26443">
        <ele>587.02</ele>
        <time>2015-03-27T11:03:57Z</time>
      </trkpt>
      <trkpt lat="48.64186" lon="7.26431">
        <ele>586.54</ele>
        <time>2015-03-27T11:03:58Z</time>
      </trkpt>
      <trkpt lat="48.64189" lon="7.2642">
        <ele>586.54</ele>
        <time>2015-03-27T11:03:59Z</time>
      </trkpt>
      <trkpt lat="48.64193" lon="7.2641">
        <ele>586.54</ele>
        <time>2015-03-27T11:04:00Z</time>
      </trkpt>
      <trkpt lat="48.64236" lon="7.26279">
        <ele>585.1</ele>
        <time>2015-03-27T11:04:13Z</time>
      </trkpt>
      <trkpt lat="48.64237" lon="7.26256">
        <ele>585.1</ele>
        <time>2015-03-27T11:04:15Z</time>
      </trkpt>
      <trkpt lat="48.64219" lon="7.26089">
        <ele>583.18</ele>
        <time>2015-03-27T11:04:30Z</time>
      </trkpt>
      <trkpt lat="48.64168" lon="7.25915">
        <ele>579.81</ele>
        <time>2015-03-27T11:04:45Z</time>
      </trkpt>
      <trkpt lat="48.64131" lon="7.25824">
        <ele>578.37</ele>
        <time>2015-03-27T11:04:53Z</time>
      </trkpt>
      <trkpt lat="48.64124" lon="7.25815">
        <ele>577.89</ele>
        <time>2015-03-27T11:04:54Z</time>
      </trkpt>
      <trkpt lat="48.64117" lon="7.25807">
        <ele>577.89</ele>
        <time>2015-03-27T11:04:55Z</time>
      </trkpt>
      <trkpt lat="48.64109" lon="7.25799">
        <ele>577.89</ele>
        <time>2015-03-27T11:04:56Z</time>
      </trkpt>
      <trkpt lat="48.64101" lon="7.25793">
        <ele>577.89</ele>
        <time>2015-03-27T11:04:57Z</time>
      </trkpt>
      <trkpt lat="48.64092" lon="7.25788">
        <ele>577.89</ele>
        <time>2015-03-27T11:04:58Z</time>
      </trkpt>
      <trkpt lat="48.64084" lon="7.25784">
        <ele>577.41</ele>
        <time>2015-03-27T11:04:59Z</time>
      </trkpt>
      <trkpt lat="48.64074" lon="7.2578">
        <ele>576.93</ele>
        <time>2015-03-27T11:05:00Z</time>
      </trkpt>
      <trkpt lat="48.64024" lon="7.25771">
        <ele>575.01</ele>
        <time>2015-03-27T11:05:05Z</time>
      </trkpt>
      <trkpt lat="48.64" lon="7.25777">
        <ele>574.53</ele>
        <time>2015-03-27T11:05:07Z</time>
      </trkpt>
      <trkpt lat="48.63966" lon="7.25766">
        <ele>573.08</ele>
        <time>2015-03-27T11:05:11Z</time>
      </trkpt>
      <trkpt lat="48.63937" lon="7.25728">
        <ele>572.6</ele>
        <time>2015-03-27T11:05:18Z</time>
      </trkpt>
      <trkpt lat="48.64038" lon="7.25671">
        <ele>560.11</ele>
        <time>2015-03-27T11:05:21Z</time>
      </trkpt>
      <trkpt lat="48.64168" lon="7.25597">
        <ele>541.84</ele>
        <time>2015-03-27T11:05:36Z</time>
      </trkpt>
      <trkpt lat="48.64193" lon="7.25586">
        <ele>541.84</ele>
        <time>2015-03-27T11:05:39Z</time>
      </trkpt>
      <trkpt lat="48.64206" lon="7.25572">
        <ele>540.88</ele>
        <time>2015-03-27T11:05:41Z</time>
      </trkpt>
      <trkpt lat="48.64212" lon="7.25563">
        <ele>539.92</ele>
        <time>2015-03-27T11:05:42Z</time>
      </trkpt>
      <trkpt lat="48.64217" lon="7.25552">
        <ele>539.44</ele>
        <time>2015-03-27T11:05:43Z</time>
      </trkpt>
      <trkpt lat="48.64221" lon="7.25541">
        <ele>538.48</ele>
        <time>2015-03-27T11:05:44Z</time>
      </trkpt>
      <trkpt lat="48.64224" lon="7.25528">
        <ele>537.99</ele>
        <time>2015-03-27T11:05:45Z</time>
      </trkpt>
      <trkpt lat="48.64227" lon="7.25516">
        <ele>537.51</ele>
        <time>2015-03-27T11:05:46Z</time>
      </trkpt>
      <trkpt lat="48.64272" lon="7.25321">
        <ele>527.9</ele>
        <time>2015-03-27T11:06:01Z</time>
      </trkpt>
      <trkpt lat="48.64278" lon="7.25312">
        <ele>527.9</ele>
        <time>2015-03-27T11:06:02Z</time>
      </trkpt>
      <trkpt lat="48.64285" lon="7.25305">
        <ele>528.38</ele>
        <time>2015-03-27T11:06:03Z</time>
      </trkpt>
      <trkpt lat="48.64291" lon="7.25301">
        <ele>527.9</ele>
        <time>2015-03-27T11:06:04Z</time>
      </trkpt>
      <trkpt lat="48.64296" lon="7.253">
        <ele>527.9</ele>
        <time>2015-03-27T11:06:05Z</time>
      </trkpt>
      <trkpt lat="48.64301" lon="7.25301">
        <ele>527.9</ele>
        <time>2015-03-27T11:06:06Z</time>
      </trkpt>
      <trkpt lat="48.64304" lon="7.25302">
        <ele>527.9</ele>
        <time>2015-03-27T11:06:07Z</time>
      </trkpt>
      <trkpt lat="48.64307" lon="7.25305">
        <ele>527.9</ele>
        <time>2015-03-27T11:06:08Z</time>
      </trkpt>
      <trkpt lat="48.6431" lon="7.2531">
        <ele>528.38</ele>
        <time>2015-03-27T11:06:09Z</time>
      </trkpt>
      <trkpt lat="48.64312" lon="7.25315">
        <ele>528.38</ele>
        <time>2015-03-27T11:06:10Z</time>
      </trkpt>
      <trkpt lat="48.64314" lon="7.25321">
        <ele>528.86</ele>
        <time>2015-03-27T11:06:11Z</time>
      </trkpt>
      <trkpt lat="48.64318" lon="7.25332">
        <ele>528.86</ele>
        <time>2015-03-27T11:06:12Z</time>
      </trkpt>
      <trkpt lat="48.64346" lon="7.25479">
        <ele>541.36</ele>
        <time>2015-03-27T11:06:22Z</time>
      </trkpt>
      <trkpt lat="48.64378" lon="7.25678">
        <ele>546.65</ele>
        <time>2015-03-27T11:06:37Z</time>
      </trkpt>
      <trkpt lat="48.64438" lon="7.2585">
        <ele>550.01</ele>
        <time>2015-03-27T11:06:53Z</time>
      </trkpt>
      <trkpt lat="48.64526" lon="7.25971">
        <ele>552.9</ele>
        <time>2015-03-27T11:07:08Z</time>
      </trkpt>
      <trkpt lat="48.64578" lon="7.26023">
        <ele>554.34</ele>
        <time>2015-03-27T11:07:16Z</time>
      </trkpt>
      <trkpt lat="48.64586" lon="7.26027">
        <ele>554.34</ele>
        <time>2015-03-27T11:07:17Z</time>
      </trkpt>
      <trkpt lat="48.64593" lon="7.2603">
        <ele>554.82</ele>
        <time>2015-03-27T11:07:18Z</time>
      </trkpt>
      <trkpt lat="48.64601" lon="7.26032">
        <ele>554.82</ele>
        <time>2015-03-27T11:07:19Z</time>
      </trkpt>
      <trkpt lat="48.64609" lon="7.26032">
        <ele>554.82</ele>
        <time>2015-03-27T11:07:20Z</time>
      </trkpt>
      <trkpt lat="48.64617" lon="7.2603">
        <ele>554.82</ele>
        <time>2015-03-27T11:07:21Z</time>
      </trkpt>
      <trkpt lat="48.64624" lon="7.26027">
        <ele>555.3</ele>
        <time>2015-03-27T11:07:22Z</time>
      </trkpt>
      <trkpt lat="48.64631" lon="7.26023">
        <ele>555.3</ele>
        <time>2015-03-27T11:07:23Z</time>
      </trkpt>
      <trkpt lat="48.64637" lon="7.26017">
        <ele>555.3</ele>
        <time>2015-03-27T11:07:24Z</time>
      </trkpt>
      <trkpt lat="48.64642" lon="7.2601">
        <ele>555.3</ele>
        <time>2015-03-27T11:07:25Z</time>
      </trkpt>
      <trkpt lat="48.64667" lon="7.25968">
        <ele>556.26</ele>
        <time>2015-03-27T11:07:30Z</time>
      </trkpt>
      <trkpt lat="48.64673" lon="7.25961">
        <ele>556.26</ele>
        <time>2015-03-27T11:07:31Z</time>
      </trkpt>
      <trkpt lat="48.64679" lon="7.25955">
        <ele>556.26</ele>
        <time>2015-03-27T11:07:32Z</time>
      </trkpt>
      <trkpt lat="48.64685" lon="7.25951">
        <ele>556.26</ele>
        <time>2015-03-27T11:07:33Z</time>
      </trkpt>
      <trkpt lat="48.64691" lon="7.25947">
        <ele>555.78</ele>
        <time>2015-03-27T11:07:34Z</time>
      </trkpt>
      <trkpt lat="48.64724" lon="7.25942">
        <ele>556.26</ele>
        <time>2015-03-27T11:07:43Z</time>
      </trkpt>
      <trkpt lat="48.6473" lon="7.25948">
        <ele>556.74</ele>
        <time>2015-03-27T11:07:44Z</time>
      </trkpt>
      <trkpt lat="48.64738" lon="7.25954">
        <ele>556.74</ele>
        <time>2015-03-27T11:07:45Z</time>
      </trkpt>
      <trkpt lat="48.64789" lon="7.26017">
        <ele>572.6</ele>
        <time>2015-03-27T11:07:46Z</time>
      </trkpt>
      <trkpt lat="48.64797" lon="7.26016">
        <ele>575.01</ele>
        <time>2015-03-27T11:07:47Z</time>
      </trkpt>
      <trkpt lat="48.64803" lon="7.26015">
        <ele>576.93</ele>
        <time>2015-03-27T11:07:48Z</time>
      </trkpt>
      <trkpt lat="48.6481" lon="7.26015">
        <ele>578.85</ele>
        <time>2015-03-27T11:07:49Z</time>
      </trkpt>
      <trkpt lat="48.64816" lon="7.26014">
        <ele>580.77</ele>
        <time>2015-03-27T11:07:50Z</time>
      </trkpt>
      <trkpt lat="48.64858" lon="7.25995">
        <ele>593.75</ele>
        <time>2015-03-27T11:07:56Z</time>
      </trkpt>
      <trkpt lat="48.64863" lon="7.25985">
        <ele>593.75</ele>
        <time>2015-03-27T11:07:57Z</time>
      </trkpt>
      <trkpt lat="48.64869" lon="7.25974">
        <ele>594.71</ele>
        <time>2015-03-27T11:07:58Z</time>
      </trkpt>
      <trkpt lat="48.64878" lon="7.25952">
        <ele>595.67</ele>
        <time>2015-03-27T11:08:00Z</time>
      </trkpt>
      <trkpt lat="48.64882" lon="7.2594">
        <ele>596.15</ele>
        <time>2015-03-27T11:08:01Z</time>
      </trkpt>
      <trkpt lat="48.64885" lon="7.25928">
        <ele>596.15</ele>
        <time>2015-03-27T11:08:02Z</time>
      </trkpt>
      <trkpt lat="48.64913" lon="7.25783">
        <ele>601.92</ele>
        <time>2015-03-27T11:08:14Z</time>
      </trkpt>
      <trkpt lat="48.64907" lon="7.25613">
        <ele>609.13</ele>
        <time>2015-03-27T11:08:26Z</time>
      </trkpt>
      <trkpt lat="48.64894" lon="7.254">
        <ele>609.13</ele>
        <time>2015-03-27T11:08:40Z</time>
      </trkpt>
      <trkpt lat="48.64905" lon="7.25267">
        <ele>608.65</ele>
        <time>2015-03-27T11:08:48Z</time>
      </trkpt>
      <trkpt lat="48.64905" lon="7.2525">
        <ele>608.65</ele>
        <time>2015-03-27T11:08:49Z</time>
      </trkpt>
      <trkpt lat="48.64903" lon="7.25233">
        <ele>608.65</ele>
        <time>2015-03-27T11:08:50Z</time>
      </trkpt>
      <trkpt lat="48.649" lon="7.25216">
        <ele>608.65</ele>
        <time>2015-03-27T11:08:51Z</time>
      </trkpt>
      <trkpt lat="48.64897" lon="7.25199">
        <ele>609.13</ele>
        <time>2015-03-27T11:08:52Z</time>
      </trkpt>
      <trkpt lat="48.64892" lon="7.25184">
        <ele>608.65</ele>
        <time>2015-03-27T11:08:53Z</time>
      </trkpt>
      <trkpt lat="48.64887" lon="7.2517">
        <ele>607.21</ele>
        <time>2015-03-27T11:08:54Z</time>
      </trkpt>
      <trkpt lat="48.64881" lon="7.25156">
        <ele>605.29</ele>
        <time>2015-03-27T11:08:55Z</time>
      </trkpt>
      <trkpt lat="48.6486" lon="7.2508">
        <ele>587.5</ele>
        <time>2015-03-27T11:09:00Z</time>
      </trkpt>
      <trkpt lat="48.64858" lon="7.25064">
        <ele>586.54</ele>
        <time>2015-03-27T11:09:01Z</time>
      </trkpt>
      <trkpt lat="48.64859" lon="7.25046">
        <ele>585.58</ele>
        <time>2015-03-27T11:09:02Z</time>
      </trkpt>
      <trkpt lat="48.64862" lon="7.25028">
        <ele>584.14</ele>
        <time>2015-03-27T11:09:03Z</time>
      </trkpt>
      <trkpt lat="48.64869" lon="7.25013">
        <ele>583.18</ele>
        <time>2015-03-27T11:09:04Z</time>
      </trkpt>
      <trkpt lat="48.64876" lon="7.25001">
        <ele>582.7</ele>
        <time>2015-03-27T11:09:05Z</time>
      </trkpt>
      <trkpt lat="48.64885" lon="7.24991">
        <ele>582.22</ele>
        <time>2015-03-27T11:09:06Z</time>
      </trkpt>
      <trkpt lat="48.64895" lon="7.24986">
        <ele>582.22</ele>
        <time>2015-03-27T11:09:07Z</time>
      </trkpt>
      <trkpt lat="48.64906" lon="7.24982">
        <ele>582.7</ele>
        <time>2015-03-27T11:09:08Z</time>
      </trkpt>
      <trkpt lat="48.64917" lon="7.2498">
        <ele>582.7</ele>
        <time>2015-03-27T11:09:09Z</time>
      </trkpt>
      <trkpt lat="48.64983" lon="7.24975">
        <ele>582.7</ele>
        <time>2015-03-27T11:09:15Z</time>
      </trkpt>
      <trkpt lat="48.65005" lon="7.24977">
        <ele>582.22</ele>
        <time>2015-03-27T11:09:17Z</time>
      </trkpt>
      <trkpt lat="48.6509" lon="7.2499">
        <ele>580.29</ele>
        <time>2015-03-27T11:09:25Z</time>
      </trkpt>
      <trkpt lat="48.651" lon="7.24988">
        <ele>580.29</ele>
        <time>2015-03-27T11:09:26Z</time>
      </trkpt>
      <trkpt lat="48.6511" lon="7.24984">
        <ele>579.81</ele>
        <time>2015-03-27T11:09:27Z</time>
      </trkpt>
      <trkpt lat="48.6512" lon="7.24977">
        <ele>578.85</ele>
        <time>2015-03-27T11:09:28Z</time>
      </trkpt>
      <trkpt lat="48.65129" lon="7.2497">
        <ele>577.89</ele>
        <time>2015-03-27T11:09:29Z</time>
      </trkpt>
      <trkpt lat="48.65211" lon="7.24865">
        <ele>568.28</ele>
        <time>2015-03-27T11:09:39Z</time>
      </trkpt>
      <trkpt lat="48.6532" lon="7.24678">
        <ele>557.22</ele>
        <time>2015-03-27T11:09:53Z</time>
      </trkpt>
      <trkpt lat="48.65379" lon="7.24508">
        <ele>550.97</ele>
        <time>2015-03-27T11:10:04Z</time>
      </trkpt>
      <trkpt lat="48.6539" lon="7.24365">
        <ele>538.48</ele>
        <time>2015-03-27T11:10:13Z</time>
      </trkpt>
      <trkpt lat="48.6539" lon="7.24349">
        <ele>537.03</ele>
        <time>2015-03-27T11:10:14Z</time>
      </trkpt>
      <trkpt lat="48.65389" lon="7.24332">
        <ele>535.11</ele>
        <time>2015-03-27T11:10:15Z</time>
      </trkpt>
      <trkpt lat="48.65387" lon="7.24316">
        <ele>533.67</ele>
        <time>2015-03-27T11:10:16Z</time>
      </trkpt>
      <trkpt lat="48.65385" lon="7.243">
        <ele>532.23</ele>
        <time>2015-03-27T11:10:17Z</time>
      </trkpt>
      <trkpt lat="48.65382" lon="7.24284">
        <ele>530.79</ele>
        <time>2015-03-27T11:10:18Z</time>
      </trkpt>
      <trkpt lat="48.65364" lon="7.24191">
        <ele>524.06</ele>
        <time>2015-03-27T11:10:24Z</time>
      </trkpt>
      <trkpt lat="48.65363" lon="7.24175">
        <ele>522.61</ele>
        <time>2015-03-27T11:10:25Z</time>
      </trkpt>
      <trkpt lat="48.65363" lon="7.24158">
        <ele>521.65</ele>
        <time>2015-03-27T11:10:26Z</time>
      </trkpt>
      <trkpt lat="48.65365" lon="7.2414">
        <ele>520.69</ele>
        <time>2015-03-27T11:10:27Z</time>
      </trkpt>
      <trkpt lat="48.65368" lon="7.24123">
        <ele>520.21</ele>
        <time>2015-03-27T11:10:28Z</time>
      </trkpt>
      <trkpt lat="48.65388" lon="7.24022">
        <ele>515.4</ele>
        <time>2015-03-27T11:10:34Z</time>
      </trkpt>
      <trkpt lat="48.65383" lon="7.23853">
        <ele>507.71</ele>
        <time>2015-03-27T11:10:44Z</time>
      </trkpt>
      <trkpt lat="48.65348" lon="7.23703">
        <ele>500.5</ele>
        <time>2015-03-27T11:10:54Z</time>
      </trkpt>
      <trkpt lat="48.65344" lon="7.23679">
        <ele>499.06</ele>
        <time>2015-03-27T11:10:56Z</time>
      </trkpt>
      <trkpt lat="48.65343" lon="7.23666">
        <ele>498.58</ele>
        <time>2015-03-27T11:10:57Z</time>
      </trkpt>
      <trkpt lat="48.65345" lon="7.23653">
        <ele>498.1</ele>
        <time>2015-03-27T11:10:58Z</time>
      </trkpt>
      <trkpt lat="48.65349" lon="7.2364">
        <ele>497.62</ele>
        <time>2015-03-27T11:10:59Z</time>
      </trkpt>
      <trkpt lat="48.65354" lon="7.23628">
        <ele>497.14</ele>
        <time>2015-03-27T11:11:00Z</time>
      </trkpt>
      <trkpt lat="48.65359" lon="7.23616">
        <ele>496.66</ele>
        <time>2015-03-27T11:11:01Z</time>
      </trkpt>
      <trkpt lat="48.65379" lon="7.2358">
        <ele>493.77</ele>
        <time>2015-03-27T11:11:05Z</time>
      </trkpt>
      <trkpt lat="48.65386" lon="7.23573">
        <ele>492.81</ele>
        <time>2015-03-27T11:11:06Z</time>
      </trkpt>
      <trkpt lat="48.65394" lon="7.23568">
        <ele>491.85</ele>
        <time>2015-03-27T11:11:07Z</time>
      </trkpt>
      <trkpt lat="48.65402" lon="7.23564">
        <ele>490.89</ele>
        <time>2015-03-27T11:11:08Z</time>
      </trkpt>
      <trkpt lat="48.65411" lon="7.23563">
        <ele>489.45</ele>
        <time>2015-03-27T11:11:09Z</time>
      </trkpt>
      <trkpt lat="48.65422" lon="7.23562">
        <ele>488.97</ele>
        <time>2015-03-27T11:11:10Z</time>
      </trkpt>
      <trkpt lat="48.65433" lon="7.23562">
        <ele>487.53</ele>
        <time>2015-03-27T11:11:11Z</time>
      </trkpt>
      <trkpt lat="48.65444" lon="7.23563">
        <ele>486.56</ele>
        <time>2015-03-27T11:11:12Z</time>
      </trkpt>
      <trkpt lat="48.6546" lon="7.23572">
        <ele>486.08</ele>
        <time>2015-03-27T11:11:13Z</time>
      </trkpt>
      <trkpt lat="48.65475" lon="7.2358">
        <ele>485.6</ele>
        <time>2015-03-27T11:11:14Z</time>
      </trkpt>
      <trkpt lat="48.65488" lon="7.23587">
        <ele>485.12</ele>
        <time>2015-03-27T11:11:15Z</time>
      </trkpt>
      <trkpt lat="48.65538" lon="7.23642">
        <ele>469.74</ele>
        <time>2015-03-27T11:11:16Z</time>
      </trkpt>
      <trkpt lat="48.65623" lon="7.23671">
        <ele>465.9</ele>
        <time>2015-03-27T11:11:27Z</time>
      </trkpt>
      <trkpt lat="48.65743" lon="7.23653">
        <ele>466.38</ele>
        <time>2015-03-27T11:11:45Z</time>
      </trkpt>
      <trkpt lat="48.65824" lon="7.23636">
        <ele>463.49</ele>
        <time>2015-03-27T11:11:56Z</time>
      </trkpt>
      <trkpt lat="48.65831" lon="7.23631">
        <ele>463.01</ele>
        <time>2015-03-27T11:11:57Z</time>
      </trkpt>
      <trkpt lat="48.65838" lon="7.23624">
        <ele>462.05</ele>
        <time>2015-03-27T11:11:58Z</time>
      </trkpt>
      <trkpt lat="48.65844" lon="7.23616">
        <ele>461.57</ele>
        <time>2015-03-27T11:11:59Z</time>
      </trkpt>
      <trkpt lat="48.6585" lon="7.23607">
        <ele>461.09</ele>
        <time>2015-03-27T11:12:00Z</time>
      </trkpt>
      <trkpt lat="48.65854" lon="7.23596">
        <ele>460.13</ele>
        <time>2015-03-27T11:12:01Z</time>
      </trkpt>
      <trkpt lat="48.65858" lon="7.23584">
        <ele>459.65</ele>
        <time>2015-03-27T11:12:02Z</time>
      </trkpt>
      <trkpt lat="48.6586" lon="7.23573">
        <ele>459.17</ele>
        <time>2015-03-27T11:12:03Z</time>
      </trkpt>
      <trkpt lat="48.65861" lon="7.2356">
        <ele>458.69</ele>
        <time>2015-03-27T11:12:04Z</time>
      </trkpt>
      <trkpt lat="48.65861" lon="7.23548">
        <ele>458.69</ele>
        <time>2015-03-27T11:12:05Z</time>
      </trkpt>
      <trkpt lat="48.6586" lon="7.23538">
        <ele>458.21</ele>
        <time>2015-03-27T11:12:06Z</time>
      </trkpt>
      <trkpt lat="48.65858" lon="7.2351">
        <ele>456.76</ele>
        <time>2015-03-27T11:12:13Z</time>
      </trkpt>
      <trkpt lat="48.65857" lon="7.23511">
        <ele>456.76</ele>
        <time>2015-03-27T11:12:28Z</time>
      </trkpt>
      <trkpt lat="48.65855" lon="7.23501">
        <ele>456.28</ele>
        <time>2015-03-27T11:12:31Z</time>
      </trkpt>
      <trkpt lat="48.65838" lon="7.234">
        <ele>454.84</ele>
        <time>2015-03-27T11:12:44Z</time>
      </trkpt>
      <trkpt lat="48.65806" lon="7.23284">
        <ele>450.52</ele>
        <time>2015-03-27T11:12:54Z</time>
      </trkpt>
      <trkpt lat="48.658" lon="7.23273">
        <ele>450.03</ele>
        <time>2015-03-27T11:12:55Z</time>
      </trkpt>
      <trkpt lat="48.65792" lon="7.23263">
        <ele>449.07</ele>
        <time>2015-03-27T11:12:56Z</time>
      </trkpt>
      <trkpt lat="48.65763" lon="7.23223">
        <ele>446.67</ele>
        <time>2015-03-27T11:13:00Z</time>
      </trkpt>
      <trkpt lat="48.65757" lon="7.23211">
        <ele>446.19</ele>
        <time>2015-03-27T11:13:01Z</time>
      </trkpt>
      <trkpt lat="48.65752" lon="7.23197">
        <ele>445.71</ele>
        <time>2015-03-27T11:13:02Z</time>
      </trkpt>
      <trkpt lat="48.65749" lon="7.23183">
        <ele>445.71</ele>
        <time>2015-03-27T11:13:03Z</time>
      </trkpt>
      <trkpt lat="48.65748" lon="7.23167">
        <ele>445.23</ele>
        <time>2015-03-27T11:13:04Z</time>
      </trkpt>
      <trkpt lat="48.65747" lon="7.23151">
        <ele>444.75</ele>
        <time>2015-03-27T11:13:05Z</time>
      </trkpt>
      <trkpt lat="48.65748" lon="7.23136">
        <ele>444.27</ele>
        <time>2015-03-27T11:13:06Z</time>
      </trkpt>
      <trkpt lat="48.65751" lon="7.2312">
        <ele>443.79</ele>
        <time>2015-03-27T11:13:07Z</time>
      </trkpt>
      <trkpt lat="48.65754" lon="7.23105">
        <ele>443.31</ele>
        <time>2015-03-27T11:13:08Z</time>
      </trkpt>
      <trkpt lat="48.65758" lon="7.23092">
        <ele>443.31</ele>
        <time>2015-03-27T11:13:09Z</time>
      </trkpt>
      <trkpt lat="48.65763" lon="7.23079">
        <ele>442.82</ele>
        <time>2015-03-27T11:13:10Z</time>
      </trkpt>
      <trkpt lat="48.65769" lon="7.23067">
        <ele>442.34</ele>
        <time>2015-03-27T11:13:11Z</time>
      </trkpt>
      <trkpt lat="48.65776" lon="7.23056">
        <ele>441.86</ele>
        <time>2015-03-27T11:13:12Z</time>
      </trkpt>
      <trkpt lat="48.65877" lon="7.22921">
        <ele>434.65</ele>
        <time>2015-03-27T11:13:24Z</time>
      </trkpt>
      <trkpt lat="48.66004" lon="7.22711">
        <ele>422.64</ele>
        <time>2015-03-27T11:13:41Z</time>
      </trkpt>
      <trkpt lat="48.66025" lon="7.22659">
        <ele>419.75</ele>
        <time>2015-03-27T11:13:45Z</time>
      </trkpt>
      <trkpt lat="48.66028" lon="7.22643">
        <ele>419.27</ele>
        <time>2015-03-27T11:13:46Z</time>
      </trkpt>
      <trkpt lat="48.66031" lon="7.22628">
        <ele>418.79</ele>
        <time>2015-03-27T11:13:47Z</time>
      </trkpt>
      <trkpt lat="48.66032" lon="7.22612">
        <ele>417.83</ele>
        <time>2015-03-27T11:13:48Z</time>
      </trkpt>
      <trkpt lat="48.66034" lon="7.22596">
        <ele>417.35</ele>
        <time>2015-03-27T11:13:49Z</time>
      </trkpt>
      <trkpt lat="48.66031" lon="7.22515">
        <ele>413.98</ele>
        <time>2015-03-27T11:13:54Z</time>
      </trkpt>
      <trkpt lat="48.66024" lon="7.22437">
        <ele>410.14</ele>
        <time>2015-03-27T11:13:59Z</time>
      </trkpt>
      <trkpt lat="48.66026" lon="7.22421">
        <ele>409.66</ele>
        <time>2015-03-27T11:14:00Z</time>
      </trkpt>
      <trkpt lat="48.6603" lon="7.22406">
        <ele>408.7</ele>
        <time>2015-03-27T11:14:01Z</time>
      </trkpt>
      <trkpt lat="48.66035" lon="7.22393">
        <ele>408.22</ele>
        <time>2015-03-27T11:14:02Z</time>
      </trkpt>
      <trkpt lat="48.66042" lon="7.2238">
        <ele>407.74</ele>
        <time>2015-03-27T11:14:03Z</time>
      </trkpt>
      <trkpt lat="48.66049" lon="7.22368">
        <ele>407.26</ele>
        <time>2015-03-27T11:14:04Z</time>
      </trkpt>
      <trkpt lat="48.66057" lon="7.22357">
        <ele>406.29</ele>
        <time>2015-03-27T11:14:05Z</time>
      </trkpt>
      <trkpt lat="48.66065" lon="7.22349">
        <ele>405.81</ele>
        <time>2015-03-27T11:14:06Z</time>
      </trkpt>
      <trkpt lat="48.66073" lon="7.22341">
        <ele>405.33</ele>
        <time>2015-03-27T11:14:07Z</time>
      </trkpt>
      <trkpt lat="48.66082" lon="7.22336">
        <ele>404.85</ele>
        <time>2015-03-27T11:14:08Z</time>
      </trkpt>
      <trkpt lat="48.66091" lon="7.22333">
        <ele>403.89</ele>
        <time>2015-03-27T11:14:09Z</time>
      </trkpt>
      <trkpt lat="48.66102" lon="7.22331">
        <ele>403.41</ele>
        <time>2015-03-27T11:14:10Z</time>
      </trkpt>
      <trkpt lat="48.66113" lon="7.22331">
        <ele>402.93</ele>
        <time>2015-03-27T11:14:11Z</time>
      </trkpt>
      <trkpt lat="48.66125" lon="7.22331">
        <ele>402.45</ele>
        <time>2015-03-27T11:14:12Z</time>
      </trkpt>
      <trkpt lat="48.66251" lon="7.22334">
        <ele>396.68</ele>
        <time>2015-03-27T11:14:24Z</time>
      </trkpt>
      <trkpt lat="48.66325" lon="7.22291">
        <ele>396.2</ele>
        <time>2015-03-27T11:14:32Z</time>
      </trkpt>
      <trkpt lat="48.66334" lon="7.22279">
        <ele>396.2</ele>
        <time>2015-03-27T11:14:33Z</time>
      </trkpt>
      <trkpt lat="48.66432" lon="7.22129">
        <ele>396.68</ele>
        <time>2015-03-27T11:14:45Z</time>
      </trkpt>
      <trkpt lat="48.6647" lon="7.22088">
        <ele>396.68</ele>
        <time>2015-03-27T11:14:49Z</time>
      </trkpt>
      <trkpt lat="48.66479" lon="7.22075">
        <ele>396.68</ele>
        <time>2015-03-27T11:14:50Z</time>
      </trkpt>
      <trkpt lat="48.66486" lon="7.2206">
        <ele>396.2</ele>
        <time>2015-03-27T11:14:51Z</time>
      </trkpt>
      <trkpt lat="48.66493" lon="7.22044">
        <ele>396.2</ele>
        <time>2015-03-27T11:14:52Z</time>
      </trkpt>
      <trkpt lat="48.66498" lon="7.22027">
        <ele>395.72</ele>
        <time>2015-03-27T11:14:53Z</time>
      </trkpt>
      <trkpt lat="48.66503" lon="7.22009">
        <ele>395.72</ele>
        <time>2015-03-27T11:14:54Z</time>
      </trkpt>
      <trkpt lat="48.66507" lon="7.2199">
        <ele>395.24</ele>
        <time>2015-03-27T11:14:55Z</time>
      </trkpt>
      <trkpt lat="48.66554" lon="7.21804">
        <ele>392.84</ele>
        <time>2015-03-27T11:15:05Z</time>
      </trkpt>
      <trkpt lat="48.66562" lon="7.21789">
        <ele>392.84</ele>
        <time>2015-03-27T11:15:06Z</time>
      </trkpt>
      <trkpt lat="48.66571" lon="7.21777">
        <ele>392.84</ele>
        <time>2015-03-27T11:15:07Z</time>
      </trkpt>
      <trkpt lat="48.66581" lon="7.21765">
        <ele>392.36</ele>
        <time>2015-03-27T11:15:08Z</time>
      </trkpt>
      <trkpt lat="48.66592" lon="7.21756">
        <ele>392.36</ele>
        <time>2015-03-27T11:15:09Z</time>
      </trkpt>
      <trkpt lat="48.66605" lon="7.21751">
        <ele>391.87</ele>
        <time>2015-03-27T11:15:10Z</time>
      </trkpt>
      <trkpt lat="48.66618" lon="7.21749">
        <ele>391.87</ele>
        <time>2015-03-27T11:15:11Z</time>
      </trkpt>
      <trkpt lat="48.66632" lon="7.21752">
        <ele>391.39</ele>
        <time>2015-03-27T11:15:12Z</time>
      </trkpt>
      <trkpt lat="48.66646" lon="7.21757">
        <ele>391.39</ele>
        <time>2015-03-27T11:15:13Z</time>
      </trkpt>
      <trkpt lat="48.66659" lon="7.21765">
        <ele>390.91</ele>
        <time>2015-03-27T11:15:14Z</time>
      </trkpt>
      <trkpt lat="48.66672" lon="7.21775">
        <ele>390.91</ele>
        <time>2015-03-27T11:15:15Z</time>
      </trkpt>
      <trkpt lat="48.66684" lon="7.21788">
        <ele>390.91</ele>
        <time>2015-03-27T11:15:16Z</time>
      </trkpt>
      <trkpt lat="48.66694" lon="7.21803">
        <ele>390.43</ele>
        <time>2015-03-27T11:15:17Z</time>
      </trkpt>
      <trkpt lat="48.66704" lon="7.21818">
        <ele>390.43</ele>
        <time>2015-03-27T11:15:18Z</time>
      </trkpt>
      <trkpt lat="48.66713" lon="7.21834">
        <ele>389.95</ele>
        <time>2015-03-27T11:15:19Z</time>
      </trkpt>
      <trkpt lat="48.66741" lon="7.21877">
        <ele>389.47</ele>
        <time>2015-03-27T11:15:22Z</time>
      </trkpt>
      <trkpt lat="48.66751" lon="7.21888">
        <ele>388.99</ele>
        <time>2015-03-27T11:15:23Z</time>
      </trkpt>
      <trkpt lat="48.66761" lon="7.21899">
        <ele>388.99</ele>
        <time>2015-03-27T11:15:24Z</time>
      </trkpt>
      <trkpt lat="48.66861" lon="7.21978">
        <ele>386.11</ele>
        <time>2015-03-27T11:15:34Z</time>
      </trkpt>
      <trkpt lat="48.66936" lon="7.2199">
        <ele>383.7</ele>
        <time>2015-03-27T11:15:41Z</time>
      </trkpt>
      <trkpt lat="48.66947" lon="7.21988">
        <ele>383.7</ele>
        <time>2015-03-27T11:15:42Z</time>
      </trkpt>
      <trkpt lat="48.66967" lon="7.21979">
        <ele>382.74</ele>
        <time>2015-03-27T11:15:44Z</time>
      </trkpt>
      <trkpt lat="48.66977" lon="7.21971">
        <ele>382.74</ele>
        <time>2015-03-27T11:15:45Z</time>
      </trkpt>
      <trkpt lat="48.66986" lon="7.21962">
        <ele>382.26</ele>
        <time>2015-03-27T11:15:46Z</time>
      </trkpt>
      <trkpt lat="48.67073" lon="7.21842">
        <ele>378.9</ele>
        <time>2015-03-27T11:15:56Z</time>
      </trkpt>
      <trkpt lat="48.6708" lon="7.21828">
        <ele>378.42</ele>
        <time>2015-03-27T11:15:57Z</time>
      </trkpt>
      <trkpt lat="48.67088" lon="7.21812">
        <ele>377.94</ele>
        <time>2015-03-27T11:15:58Z</time>
      </trkpt>
      <trkpt lat="48.67101" lon="7.21778">
        <ele>377.45</ele>
        <time>2015-03-27T11:16:00Z</time>
      </trkpt>
      <trkpt lat="48.67131" lon="7.21655">
        <ele>372.65</ele>
        <time>2015-03-27T11:16:07Z</time>
      </trkpt>
      <trkpt lat="48.67133" lon="7.21636">
        <ele>371.69</ele>
        <time>2015-03-27T11:16:08Z</time>
      </trkpt>
      <trkpt lat="48.67135" lon="7.21446">
        <ele>364.48</ele>
        <time>2015-03-27T11:16:18Z</time>
      </trkpt>
      <trkpt lat="48.67133" lon="7.2123">
        <ele>354.38</ele>
        <time>2015-03-27T11:16:29Z</time>
      </trkpt>
      <trkpt lat="48.67134" lon="7.21211">
        <ele>352.94</ele>
        <time>2015-03-27T11:16:30Z</time>
      </trkpt>
      <trkpt lat="48.67136" lon="7.21193">
        <ele>351.5</ele>
        <time>2015-03-27T11:16:31Z</time>
      </trkpt>
      <trkpt lat="48.67142" lon="7.21177">
        <ele>350.54</ele>
        <time>2015-03-27T11:16:32Z</time>
      </trkpt>
      <trkpt lat="48.67151" lon="7.21164">
        <ele>349.58</ele>
        <time>2015-03-27T11:16:33Z</time>
      </trkpt>
      <trkpt lat="48.67161" lon="7.21154">
        <ele>348.62</ele>
        <time>2015-03-27T11:16:34Z</time>
      </trkpt>
      <trkpt lat="48.67173" lon="7.21148">
        <ele>348.13</ele>
        <time>2015-03-27T11:16:35Z</time>
      </trkpt>
      <trkpt lat="48.67186" lon="7.21146">
        <ele>347.17</ele>
        <time>2015-03-27T11:16:36Z</time>
      </trkpt>
      <trkpt lat="48.67198" lon="7.21146">
        <ele>346.21</ele>
        <time>2015-03-27T11:16:37Z</time>
      </trkpt>
      <trkpt lat="48.6721" lon="7.21146">
        <ele>345.25</ele>
        <time>2015-03-27T11:16:38Z</time>
      </trkpt>
      <trkpt lat="48.67221" lon="7.21144">
        <ele>344.29</ele>
        <time>2015-03-27T11:16:39Z</time>
      </trkpt>
      <trkpt lat="48.67232" lon="7.21141">
        <ele>343.81</ele>
        <time>2015-03-27T11:16:40Z</time>
      </trkpt>
      <trkpt lat="48.67243" lon="7.21136">
        <ele>343.33</ele>
        <time>2015-03-27T11:16:41Z</time>
      </trkpt>
      <trkpt lat="48.67252" lon="7.2113">
        <ele>342.37</ele>
        <time>2015-03-27T11:16:42Z</time>
      </trkpt>
      <trkpt lat="48.67262" lon="7.21123">
        <ele>341.89</ele>
        <time>2015-03-27T11:16:43Z</time>
      </trkpt>
      <trkpt lat="48.67271" lon="7.21116">
        <ele>341.41</ele>
        <time>2015-03-27T11:16:44Z</time>
      </trkpt>
      <trkpt lat="48.67358" lon="7.21009">
        <ele>333.23</ele>
        <time>2015-03-27T11:16:56Z</time>
      </trkpt>
      <trkpt lat="48.67421" lon="7.20842">
        <ele>325.54</ele>
        <time>2015-03-27T11:17:09Z</time>
      </trkpt>
      <trkpt lat="48.67455" lon="7.20668">
        <ele>317.85</ele>
        <time>2015-03-27T11:17:21Z</time>
      </trkpt>
      <trkpt lat="48.67453" lon="7.20483">
        <ele>310.64</ele>
        <time>2015-03-27T11:17:33Z</time>
      </trkpt>
      <trkpt lat="48.67455" lon="7.20469">
        <ele>310.16</ele>
        <time>2015-03-27T11:17:34Z</time>
      </trkpt>
      <trkpt lat="48.67458" lon="7.20456">
        <ele>309.68</ele>
        <time>2015-03-27T11:17:35Z</time>
      </trkpt>
      <trkpt lat="48.67463" lon="7.20444">
        <ele>309.68</ele>
        <time>2015-03-27T11:17:36Z</time>
      </trkpt>
      <trkpt lat="48.67468" lon="7.20433">
        <ele>309.2</ele>
        <time>2015-03-27T11:17:37Z</time>
      </trkpt>
      <trkpt lat="48.67474" lon="7.20423">
        <ele>309.2</ele>
        <time>2015-03-27T11:17:38Z</time>
      </trkpt>
      <trkpt lat="48.67553" lon="7.20313">
        <ele>305.84</ele>
        <time>2015-03-27T11:17:50Z</time>
      </trkpt>
      <trkpt lat="48.67605" lon="7.20185">
        <ele>303.43</ele>
        <time>2015-03-27T11:18:01Z</time>
      </trkpt>
      <trkpt lat="48.67667" lon="7.20054">
        <ele>299.11</ele>
        <time>2015-03-27T11:18:12Z</time>
      </trkpt>
      <trkpt lat="48.67669" lon="7.20042">
        <ele>298.15</ele>
        <time>2015-03-27T11:18:13Z</time>
      </trkpt>
      <trkpt lat="48.67668" lon="7.20031">
        <ele>297.67</ele>
        <time>2015-03-27T11:18:14Z</time>
      </trkpt>
      <trkpt lat="48.67665" lon="7.20019">
        <ele>297.18</ele>
        <time>2015-03-27T11:18:15Z</time>
      </trkpt>
      <trkpt lat="48.67661" lon="7.20007">
        <ele>296.7</ele>
        <time>2015-03-27T11:18:16Z</time>
      </trkpt>
      <trkpt lat="48.67656" lon="7.19996">
        <ele>296.22</ele>
        <time>2015-03-27T11:18:17Z</time>
      </trkpt>
      <trkpt lat="48.67647" lon="7.19987">
        <ele>295.74</ele>
        <time>2015-03-27T11:18:18Z</time>
      </trkpt>
      <trkpt lat="48.67636" lon="7.19979">
        <ele>295.26</ele>
        <time>2015-03-27T11:18:19Z</time>
      </trkpt>
      <trkpt lat="48.67548" lon="7.19913">
        <ele>291.42</ele>
        <time>2015-03-27T11:18:28Z</time>
      </trkpt>
      <trkpt lat="48.67544" lon="7.19904">
        <ele>290.94</ele>
        <time>2015-03-27T11:18:29Z</time>
      </trkpt>
      <trkpt lat="48.67544" lon="7.19894">
        <ele>290.46</ele>
        <time>2015-03-27T11:18:30Z</time>
      </trkpt>
      <trkpt lat="48.67546" lon="7.19884">
        <ele>289.97</ele>
        <time>2015-03-27T11:18:31Z</time>
      </trkpt>
      <trkpt lat="48.6755" lon="7.19875">
        <ele>289.49</ele>
        <time>2015-03-27T11:18:32Z</time>
      </trkpt>
      <trkpt lat="48.67554" lon="7.19869">
        <ele>289.01</ele>
        <time>2015-03-27T11:18:33Z</time>
      </trkpt>
      <trkpt lat="48.67558" lon="7.19864">
        <ele>288.53</ele>
        <time>2015-03-27T11:18:34Z</time>
      </trkpt>
      <trkpt lat="48.67563" lon="7.19861">
        <ele>288.05</ele>
        <time>2015-03-27T11:18:35Z</time>
      </trkpt>
      <trkpt lat="48.67569" lon="7.19858">
        <ele>287.57</ele>
        <time>2015-03-27T11:18:36Z</time>
      </trkpt>
      <trkpt lat="48.67576" lon="7.19855">
        <ele>287.09</ele>
        <time>2015-03-27T11:18:37Z</time>
      </trkpt>
      <trkpt lat="48.67583" lon="7.19853">
        <ele>286.61</ele>
        <time>2015-03-27T11:18:38Z</time>
      </trkpt>
      <trkpt lat="48.6768" lon="7.19832">
        <ele>281.32</ele>
        <time>2015-03-27T11:18:47Z</time>
      </trkpt>
      <trkpt lat="48.67803" lon="7.19756">
        <ele>274.59</ele>
        <time>2015-03-27T11:18:58Z</time>
      </trkpt>
      <trkpt lat="48.67946" lon="7.19682">
        <ele>266.9</ele>
        <time>2015-03-27T11:19:11Z</time>
      </trkpt>
      <trkpt lat="48.67958" lon="7.19681">
        <ele>266.42</ele>
        <time>2015-03-27T11:19:12Z</time>
      </trkpt>
      <trkpt lat="48.67969" lon="7.1968">
        <ele>265.94</ele>
        <time>2015-03-27T11:19:13Z</time>
      </trkpt>
      <trkpt lat="48.6798" lon="7.19682">
        <ele>265.46</ele>
        <time>2015-03-27T11:19:14Z</time>
      </trkpt>
      <trkpt lat="48.67991" lon="7.19683">
        <ele>264.5</ele>
        <time>2015-03-27T11:19:15Z</time>
      </trkpt>
      <trkpt lat="48.68088" lon="7.19721">
        <ele>258.73</ele>
        <time>2015-03-27T11:19:24Z</time>
      </trkpt>
      <trkpt lat="48.68099" lon="7.19722">
        <ele>258.25</ele>
        <time>2015-03-27T11:19:25Z</time>
      </trkpt>
      <trkpt lat="48.68109" lon="7.19722">
        <ele>257.29</ele>
        <time>2015-03-27T11:19:26Z</time>
      </trkpt>
      <trkpt lat="48.68242" lon="7.19709">
        <ele>250.08</ele>
        <time>2015-03-27T11:19:41Z</time>
      </trkpt>
      <trkpt lat="48.68349" lon="7.19654">
        <ele>248.64</ele>
        <time>2015-03-27T11:19:56Z</time>
      </trkpt>
      <trkpt lat="48.6844" lon="7.19642">
        <ele>248.16</ele>
        <time>2015-03-27T11:20:09Z</time>
      </trkpt>
      <trkpt lat="48.68572" lon="7.1967">
        <ele>249.12</ele>
        <time>2015-03-27T11:20:28Z</time>
      </trkpt>
      <trkpt lat="48.68584" lon="7.19673">
        <ele>249.12</ele>
        <time>2015-03-27T11:20:30Z</time>
      </trkpt>
      <trkpt lat="48.6859" lon="7.19672">
        <ele>249.12</ele>
        <time>2015-03-27T11:20:31Z</time>
      </trkpt>
      <trkpt lat="48.68596" lon="7.19668">
        <ele>249.12</ele>
        <time>2015-03-27T11:20:32Z</time>
      </trkpt>
      <trkpt lat="48.68603" lon="7.19663">
        <ele>249.12</ele>
        <time>2015-03-27T11:20:33Z</time>
      </trkpt>
      <trkpt lat="48.68608" lon="7.19657">
        <ele>249.6</ele>
        <time>2015-03-27T11:20:34Z</time>
      </trkpt>
      <trkpt lat="48.68612" lon="7.19647">
        <ele>249.6</ele>
        <time>2015-03-27T11:20:35Z</time>
      </trkpt>
      <trkpt lat="48.68615" lon="7.19636">
        <ele>249.6</ele>
        <time>2015-03-27T11:20:36Z</time>
      </trkpt>
      <trkpt lat="48.68617" lon="7.19624">
        <ele>249.12</ele>
        <time>2015-03-27T11:20:37Z</time>
      </trkpt>
      <trkpt lat="48.68618" lon="7.1961">
        <ele>249.12</ele>
        <time>2015-03-27T11:20:38Z</time>
      </trkpt>
      <trkpt lat="48.68624" lon="7.19415">
        <ele>248.16</ele>
        <time>2015-03-27T11:20:53Z</time>
      </trkpt>
      <trkpt lat="48.68609" lon="7.19282">
        <ele>247.2</ele>
        <time>2015-03-27T11:21:08Z</time>
      </trkpt>
      <trkpt lat="48.68583" lon="7.19168">
        <ele>247.68</ele>
        <time>2015-03-27T11:21:24Z</time>
      </trkpt>
      <trkpt lat="48.68544" lon="7.19036">
        <ele>247.68</ele>
        <time>2015-03-27T11:21:44Z</time>
      </trkpt>
      <trkpt lat="48.68516" lon="7.18889">
        <ele>245.27</ele>
        <time>2015-03-27T11:22:04Z</time>
      </trkpt>
      <trkpt lat="48.68517" lon="7.18744">
        <ele>243.35</ele>
        <time>2015-03-27T11:22:22Z</time>
      </trkpt>
      <trkpt lat="48.68526" lon="7.18595">
        <ele>240.47</ele>
        <time>2015-03-27T11:22:41Z</time>
      </trkpt>
      <trkpt lat="48.68538" lon="7.18442">
        <ele>238.06</ele>
        <time>2015-03-27T11:23:00Z</time>
      </trkpt>
      <trkpt lat="48.68545" lon="7.18299">
        <ele>236.14</ele>
        <time>2015-03-27T11:23:17Z</time>
      </trkpt>
      <trkpt lat="48.68548" lon="7.18153">
        <ele>232.78</ele>
        <time>2015-03-27T11:23:35Z</time>
      </trkpt>
      <trkpt lat="48.68536" lon="7.17982">
        <ele>232.78</ele>
        <time>2015-03-27T11:23:56Z</time>
      </trkpt>
      <trkpt lat="48.68532" lon="7.17821">
        <ele>232.78</ele>
        <time>2015-03-27T11:24:13Z</time>
      </trkpt>
      <trkpt lat="48.68547" lon="7.17728">
        <ele>231.33</ele>
        <time>2015-03-27T11:24:23Z</time>
      </trkpt>
      <trkpt lat="48.68551" lon="7.1772">
        <ele>231.33</ele>
        <time>2015-03-27T11:24:24Z</time>
      </trkpt>
      <trkpt lat="48.68556" lon="7.17712">
        <ele>231.33</ele>
        <time>2015-03-27T11:24:25Z</time>
      </trkpt>
      <trkpt lat="48.68626" lon="7.17638">
        <ele>236.14</ele>
        <time>2015-03-27T11:24:39Z</time>
      </trkpt>
      <trkpt lat="48.6871" lon="7.17558">
        <ele>247.68</ele>
        <time>2015-03-27T11:25:01Z</time>
      </trkpt>
      <trkpt lat="48.68783" lon="7.17474">
        <ele>262.58</ele>
        <time>2015-03-27T11:25:25Z</time>
      </trkpt>
      <trkpt lat="48.68849" lon="7.17382">
        <ele>277</ele>
        <time>2015-03-27T11:25:49Z</time>
      </trkpt>
      <trkpt lat="48.68886" lon="7.17301">
        <ele>289.49</ele>
        <time>2015-03-27T11:26:06Z</time>
      </trkpt>
      <trkpt lat="48.68923" lon="7.17194">
        <ele>298.63</ele>
        <time>2015-03-27T11:26:27Z</time>
      </trkpt>
      <trkpt lat="48.68959" lon="7.17103">
        <ele>296.7</ele>
        <time>2015-03-27T11:26:45Z</time>
      </trkpt>
      <trkpt lat="48.68997" lon="7.17012">
        <ele>297.18</ele>
        <time>2015-03-27T11:27:03Z</time>
      </trkpt>
      <trkpt lat="48.69025" lon="7.16924">
        <ele>297.18</ele>
        <time>2015-03-27T11:27:20Z</time>
      </trkpt>
      <trkpt lat="48.69059" lon="7.16871">
        <ele>299.59</ele>
        <time>2015-03-27T11:27:33Z</time>
      </trkpt>
      <trkpt lat="48.69087" lon="7.16809">
        <ele>303.91</ele>
        <time>2015-03-27T11:27:47Z</time>
      </trkpt>
      <trkpt lat="48.69075" lon="7.16703">
        <ele>306.32</ele>
        <time>2015-03-27T11:28:07Z</time>
      </trkpt>
      <trkpt lat="48.69089" lon="7.16635">
        <ele>306.8</ele>
        <time>2015-03-27T11:28:21Z</time>
      </trkpt>
      <trkpt lat="48.69139" lon="7.16577">
        <ele>316.41</ele>
        <time>2015-03-27T11:28:37Z</time>
      </trkpt>
      <trkpt lat="48.69174" lon="7.16481">
        <ele>323.62</ele>
        <time>2015-03-27T11:28:57Z</time>
      </trkpt>
      <trkpt lat="48.69205" lon="7.16386">
        <ele>329.39</ele>
        <time>2015-03-27T11:29:16Z</time>
      </trkpt>
      <trkpt lat="48.69214" lon="7.16293">
        <ele>332.27</ele>
        <time>2015-03-27T11:29:33Z</time>
      </trkpt>
      <trkpt lat="48.69201" lon="7.16174">
        <ele>334.2</ele>
        <time>2015-03-27T11:29:55Z</time>
      </trkpt>
      <trkpt lat="48.69194" lon="7.16076">
        <ele>339.48</ele>
        <time>2015-03-27T11:30:13Z</time>
      </trkpt>
      <trkpt lat="48.69182" lon="7.15969">
        <ele>342.37</ele>
        <time>2015-03-27T11:30:33Z</time>
      </trkpt>
      <trkpt lat="48.69151" lon="7.15879">
        <ele>346.69</ele>
        <time>2015-03-27T11:30:52Z</time>
      </trkpt>
      <trkpt lat="48.69101" lon="7.1582">
        <ele>351.02</ele>
        <time>2015-03-27T11:31:09Z</time>
      </trkpt>
      <trkpt lat="48.69039" lon="7.15757">
        <ele>354.86</ele>
        <time>2015-03-27T11:31:30Z</time>
      </trkpt>
      <trkpt lat="48.69034" lon="7.15694">
        <ele>356.79</ele>
        <time>2015-03-27T11:31:42Z</time>
      </trkpt>
      <trkpt lat="48.69068" lon="7.15643">
        <ele>359.19</ele>
        <time>2015-03-27T11:31:55Z</time>
      </trkpt>
      <trkpt lat="48.69142" lon="7.15603">
        <ele>366.88</ele>
        <time>2015-03-27T11:32:16Z</time>
      </trkpt>
      <trkpt lat="48.69161" lon="7.15587">
        <ele>367.84</ele>
        <time>2015-03-27T11:32:22Z</time>
      </trkpt>
      <trkpt lat="48.6916" lon="7.15583">
        <ele>368.32</ele>
        <time>2015-03-27T11:32:23Z</time>
      </trkpt>
      <trkpt lat="48.69157" lon="7.15579">
        <ele>368.32</ele>
        <time>2015-03-27T11:32:24Z</time>
      </trkpt>
      <trkpt lat="48.69153" lon="7.15575">
        <ele>368.32</ele>
        <time>2015-03-27T11:32:25Z</time>
      </trkpt>
      <trkpt lat="48.69149" lon="7.15572">
        <ele>368.32</ele>
        <time>2015-03-27T11:32:26Z</time>
      </trkpt>
      <trkpt lat="48.69144" lon="7.1557">
        <ele>368.32</ele>
        <time>2015-03-27T11:32:27Z</time>
      </trkpt>
      <trkpt lat="48.6914" lon="7.15569">
        <ele>368.32</ele>
        <time>2015-03-27T11:32:28Z</time>
      </trkpt>
      <trkpt lat="48.69134" lon="7.15568">
        <ele>368.32</ele>
        <time>2015-03-27T11:32:29Z</time>
      </trkpt>
      <trkpt lat="48.69129" lon="7.15567">
        <ele>368.32</ele>
        <time>2015-03-27T11:32:30Z</time>
      </trkpt>
      <trkpt lat="48.69049" lon="7.15532">
        <ele>368.32</ele>
        <time>2015-03-27T11:32:47Z</time>
      </trkpt>
      <trkpt lat="48.68955" lon="7.15475">
        <ele>367.84</ele>
        <time>2015-03-27T11:33:09Z</time>
      </trkpt>
      <trkpt lat="48.6887" lon="7.15427">
        <ele>371.21</ele>
        <time>2015-03-27T11:33:29Z</time>
      </trkpt>
      <trkpt lat="48.6878" lon="7.15386">
        <ele>373.13</ele>
        <time>2015-03-27T11:33:49Z</time>
      </trkpt>
      <trkpt lat="48.68693" lon="7.15368">
        <ele>375.05</ele>
        <time>2015-03-27T11:34:09Z</time>
      </trkpt>
      <trkpt lat="48.68604" lon="7.1536">
        <ele>379.38</ele>
        <time>2015-03-27T11:34:29Z</time>
      </trkpt>
      <trkpt lat="48.68523" lon="7.15375">
        <ele>384.66</ele>
        <time>2015-03-27T11:34:49Z</time>
      </trkpt>
      <trkpt lat="48.68444" lon="7.15424">
        <ele>388.99</ele>
        <time>2015-03-27T11:35:10Z</time>
      </trkpt>
      <trkpt lat="48.68433" lon="7.15429">
        <ele>388.99</ele>
        <time>2015-03-27T11:35:13Z</time>
      </trkpt>
      <trkpt lat="48.68373" lon="7.15442">
        <ele>394.76</ele>
        <time>2015-03-27T11:35:28Z</time>
      </trkpt>
      <trkpt lat="48.68295" lon="7.15463">
        <ele>398.6</ele>
        <time>2015-03-27T11:35:47Z</time>
      </trkpt>
      <trkpt lat="48.68213" lon="7.1547">
        <ele>404.85</ele>
        <time>2015-03-27T11:36:05Z</time>
      </trkpt>
      <trkpt lat="48.68108" lon="7.15498">
        <ele>410.62</ele>
        <time>2015-03-27T11:36:27Z</time>
      </trkpt>
      <trkpt lat="48.68014" lon="7.15543">
        <ele>415.43</ele>
        <time>2015-03-27T11:36:44Z</time>
      </trkpt>
      <trkpt lat="48.67928" lon="7.15577">
        <ele>415.91</ele>
        <time>2015-03-27T11:36:56Z</time>
      </trkpt>
      <trkpt lat="48.6781" lon="7.15621">
        <ele>412.54</ele>
        <time>2015-03-27T11:37:07Z</time>
      </trkpt>
      <trkpt lat="48.67695" lon="7.15707">
        <ele>401.97</ele>
        <time>2015-03-27T11:37:20Z</time>
      </trkpt>
      <trkpt lat="48.67666" lon="7.15735">
        <ele>400.05</ele>
        <time>2015-03-27T11:37:24Z</time>
      </trkpt>
      <trkpt lat="48.67659" lon="7.15739">
        <ele>400.05</ele>
        <time>2015-03-27T11:37:25Z</time>
      </trkpt>
      <trkpt lat="48.67651" lon="7.1574">
        <ele>400.05</ele>
        <time>2015-03-27T11:37:26Z</time>
      </trkpt>
      <trkpt lat="48.67643" lon="7.15739">
        <ele>399.57</ele>
        <time>2015-03-27T11:37:27Z</time>
      </trkpt>
      <trkpt lat="48.67637" lon="7.15735">
        <ele>399.57</ele>
        <time>2015-03-27T11:37:28Z</time>
      </trkpt>
      <trkpt lat="48.67631" lon="7.15729">
        <ele>399.57</ele>
        <time>2015-03-27T11:37:29Z</time>
      </trkpt>
      <trkpt lat="48.67626" lon="7.15723">
        <ele>399.08</ele>
        <time>2015-03-27T11:37:30Z</time>
      </trkpt>
      <trkpt lat="48.6762" lon="7.15715">
        <ele>399.08</ele>
        <time>2015-03-27T11:37:31Z</time>
      </trkpt>
      <trkpt lat="48.67615" lon="7.15706">
        <ele>398.6</ele>
        <time>2015-03-27T11:37:32Z</time>
      </trkpt>
      <trkpt lat="48.67611" lon="7.15696">
        <ele>398.12</ele>
        <time>2015-03-27T11:37:33Z</time>
      </trkpt>
      <trkpt lat="48.67608" lon="7.15684">
        <ele>397.64</ele>
        <time>2015-03-27T11:37:34Z</time>
      </trkpt>
      <trkpt lat="48.67608" lon="7.15672">
        <ele>397.16</ele>
        <time>2015-03-27T11:37:35Z</time>
      </trkpt>
      <trkpt lat="48.6761" lon="7.15659">
        <ele>397.16</ele>
        <time>2015-03-27T11:37:36Z</time>
      </trkpt>
      <trkpt lat="48.67614" lon="7.15648">
        <ele>396.68</ele>
        <time>2015-03-27T11:37:37Z</time>
      </trkpt>
      <trkpt lat="48.67619" lon="7.15636">
        <ele>396.68</ele>
        <time>2015-03-27T11:37:38Z</time>
      </trkpt>
      <trkpt lat="48.67632" lon="7.156">
        <ele>396.2</ele>
        <time>2015-03-27T11:37:41Z</time>
      </trkpt>
      <trkpt lat="48.67635" lon="7.15588">
        <ele>396.2</ele>
        <time>2015-03-27T11:37:42Z</time>
      </trkpt>
      <trkpt lat="48.67637" lon="7.15576">
        <ele>395.72</ele>
        <time>2015-03-27T11:37:43Z</time>
      </trkpt>
      <trkpt lat="48.67638" lon="7.15563">
        <ele>395.24</ele>
        <time>2015-03-27T11:37:44Z</time>
      </trkpt>
      <trkpt lat="48.67636" lon="7.1555">
        <ele>394.76</ele>
        <time>2015-03-27T11:37:45Z</time>
      </trkpt>
      <trkpt lat="48.67634" lon="7.15538">
        <ele>394.28</ele>
        <time>2015-03-27T11:37:46Z</time>
      </trkpt>
      <trkpt lat="48.6763" lon="7.15526">
        <ele>394.28</ele>
        <time>2015-03-27T11:37:47Z</time>
      </trkpt>
      <trkpt lat="48.67624" lon="7.15514">
        <ele>393.8</ele>
        <time>2015-03-27T11:37:48Z</time>
      </trkpt>
      <trkpt lat="48.67619" lon="7.15503">
        <ele>393.32</ele>
        <time>2015-03-27T11:37:49Z</time>
      </trkpt>
      <trkpt lat="48.67604" lon="7.15469">
        <ele>392.36</ele>
        <time>2015-03-27T11:37:52Z</time>
      </trkpt>
      <trkpt lat="48.67601" lon="7.15456">
        <ele>391.87</ele>
        <time>2015-03-27T11:37:53Z</time>
      </trkpt>
      <trkpt lat="48.67599" lon="7.15443">
        <ele>391.39</ele>
        <time>2015-03-27T11:37:54Z</time>
      </trkpt>
      <trkpt lat="48.6759" lon="7.15268">
        <ele>385.63</ele>
        <time>2015-03-27T11:38:08Z</time>
      </trkpt>
      <trkpt lat="48.67592" lon="7.15033">
        <ele>378.42</ele>
        <time>2015-03-27T11:38:25Z</time>
      </trkpt>
      <trkpt lat="48.67589" lon="7.15018">
        <ele>377.94</ele>
        <time>2015-03-27T11:38:26Z</time>
      </trkpt>
      <trkpt lat="48.67541" lon="7.14867">
        <ele>373.61</ele>
        <time>2015-03-27T11:38:35Z</time>
      </trkpt>
      <trkpt lat="48.67538" lon="7.14849">
        <ele>373.13</ele>
        <time>2015-03-27T11:38:36Z</time>
      </trkpt>
      <trkpt lat="48.67535" lon="7.14831">
        <ele>372.17</ele>
        <time>2015-03-27T11:38:37Z</time>
      </trkpt>
      <trkpt lat="48.67534" lon="7.14813">
        <ele>371.69</ele>
        <time>2015-03-27T11:38:38Z</time>
      </trkpt>
      <trkpt lat="48.67534" lon="7.14796">
        <ele>370.73</ele>
        <time>2015-03-27T11:38:39Z</time>
      </trkpt>
      <trkpt lat="48.67534" lon="7.14779">
        <ele>370.24</ele>
        <time>2015-03-27T11:38:40Z</time>
      </trkpt>
      <trkpt lat="48.67531" lon="7.14656">
        <ele>364.96</ele>
        <time>2015-03-27T11:38:48Z</time>
      </trkpt>
      <trkpt lat="48.67499" lon="7.14533">
        <ele>357.75</ele>
        <time>2015-03-27T11:38:56Z</time>
      </trkpt>
      <trkpt lat="48.67498" lon="7.14518">
        <ele>357.27</ele>
        <time>2015-03-27T11:38:57Z</time>
      </trkpt>
      <trkpt lat="48.67498" lon="7.14502">
        <ele>356.31</ele>
        <time>2015-03-27T11:38:58Z</time>
      </trkpt>
      <trkpt lat="48.67499" lon="7.14486">
        <ele>355.83</ele>
        <time>2015-03-27T11:38:59Z</time>
      </trkpt>
      <trkpt lat="48.67503" lon="7.14469">
        <ele>354.86</ele>
        <time>2015-03-27T11:39:00Z</time>
      </trkpt>
      <trkpt lat="48.67506" lon="7.14452">
        <ele>353.9</ele>
        <time>2015-03-27T11:39:01Z</time>
      </trkpt>
      <trkpt lat="48.67527" lon="7.14348">
        <ele>348.62</ele>
        <time>2015-03-27T11:39:07Z</time>
      </trkpt>
      <trkpt lat="48.67531" lon="7.1433">
        <ele>347.65</ele>
        <time>2015-03-27T11:39:08Z</time>
      </trkpt>
      <trkpt lat="48.67548" lon="7.14245">
        <ele>342.85</ele>
        <time>2015-03-27T11:39:13Z</time>
      </trkpt>
      <trkpt lat="48.67549" lon="7.14227">
        <ele>341.89</ele>
        <time>2015-03-27T11:39:14Z</time>
      </trkpt>
      <trkpt lat="48.6755" lon="7.14209">
        <ele>340.92</ele>
        <time>2015-03-27T11:39:15Z</time>
      </trkpt>
      <trkpt lat="48.67549" lon="7.14191">
        <ele>339.48</ele>
        <time>2015-03-27T11:39:16Z</time>
      </trkpt>
      <trkpt lat="48.67546" lon="7.14173">
        <ele>338.52</ele>
        <time>2015-03-27T11:39:17Z</time>
      </trkpt>
      <trkpt lat="48.67542" lon="7.14156">
        <ele>337.56</ele>
        <time>2015-03-27T11:39:18Z</time>
      </trkpt>
      <trkpt lat="48.67535" lon="7.14141">
        <ele>336.6</ele>
        <time>2015-03-27T11:39:19Z</time>
      </trkpt>
      <trkpt lat="48.67527" lon="7.14128">
        <ele>335.64</ele>
        <time>2015-03-27T11:39:20Z</time>
      </trkpt>
      <trkpt lat="48.67518" lon="7.14116">
        <ele>334.68</ele>
        <time>2015-03-27T11:39:21Z</time>
      </trkpt>
      <trkpt lat="48.67508" lon="7.14104">
        <ele>333.71</ele>
        <time>2015-03-27T11:39:22Z</time>
      </trkpt>
      <trkpt lat="48.675" lon="7.1409">
        <ele>332.75</ele>
        <time>2015-03-27T11:39:23Z</time>
      </trkpt>
      <trkpt lat="48.67493" lon="7.14075">
        <ele>331.79</ele>
        <time>2015-03-27T11:39:24Z</time>
      </trkpt>
      <trkpt lat="48.67443" lon="7.13929">
        <ele>322.66</ele>
        <time>2015-03-27T11:39:34Z</time>
      </trkpt>
      <trkpt lat="48.67438" lon="7.13913">
        <ele>318.33</ele>
        <time>2015-03-27T11:39:39Z</time>
      </trkpt>
      <trkpt lat="48.67436" lon="7.13913">
        <ele>317.37</ele>
        <time>2015-03-27T11:39:40Z</time>
      </trkpt>
      <trkpt lat="48.67434" lon="7.13913">
        <ele>316.89</ele>
        <time>2015-03-27T11:39:41Z</time>
      </trkpt>
      <trkpt lat="48.67432" lon="7.13914">
        <ele>315.93</ele>
        <time>2015-03-27T11:39:42Z</time>
      </trkpt>
      <trkpt lat="48.6743" lon="7.13916">
        <ele>315.45</ele>
        <time>2015-03-27T11:39:43Z</time>
      </trkpt>
      <trkpt lat="48.67428" lon="7.13919">
        <ele>314.97</ele>
        <time>2015-03-27T11:39:44Z</time>
      </trkpt>
      <trkpt lat="48.67426" lon="7.13921">
        <ele>314.49</ele>
        <time>2015-03-27T11:39:45Z</time>
      </trkpt>
      <trkpt lat="48.6738" lon="7.13948">
        <ele>309.68</ele>
        <time>2015-03-27T11:39:58Z</time>
      </trkpt>
      <trkpt lat="48.67345" lon="7.13972">
        <ele>308.72</ele>
        <time>2015-03-27T11:40:05Z</time>
      </trkpt>
      <trkpt lat="48.67282" lon="7.14056">
        <ele>306.32</ele>
        <time>2015-03-27T11:40:17Z</time>
      </trkpt>
      <trkpt lat="48.67276" lon="7.14061">
        <ele>305.84</ele>
        <time>2015-03-27T11:40:18Z</time>
      </trkpt>
      <trkpt lat="48.67269" lon="7.14065">
        <ele>305.36</ele>
        <time>2015-03-27T11:40:19Z</time>
      </trkpt>
      <trkpt lat="48.67262" lon="7.14066">
        <ele>305.36</ele>
        <time>2015-03-27T11:40:20Z</time>
      </trkpt>
      <trkpt lat="48.67255" lon="7.14066">
        <ele>304.88</ele>
        <time>2015-03-27T11:40:21Z</time>
      </trkpt>
      <trkpt lat="48.67248" lon="7.14066">
        <ele>304.88</ele>
        <time>2015-03-27T11:40:22Z</time>
      </trkpt>
      <trkpt lat="48.67189" lon="7.14064">
        <ele>303.91</ele>
        <time>2015-03-27T11:40:32Z</time>
      </trkpt>
      <trkpt lat="48.67118" lon="7.14119">
        <ele>303.91</ele>
        <time>2015-03-27T11:40:46Z</time>
      </trkpt>
      <trkpt lat="48.67022" lon="7.14181">
        <ele>305.36</ele>
        <time>2015-03-27T11:41:04Z</time>
      </trkpt>
      <trkpt lat="48.6691" lon="7.14289">
        <ele>305.84</ele>
        <time>2015-03-27T11:41:24Z</time>
      </trkpt>
      <trkpt lat="48.66812" lon="7.14354">
        <ele>306.8</ele>
        <time>2015-03-27T11:41:39Z</time>
      </trkpt>
      <trkpt lat="48.6664" lon="7.14393">
        <ele>309.68</ele>
        <time>2015-03-27T11:42:02Z</time>
      </trkpt>
      <trkpt lat="48.66505" lon="7.14408">
        <ele>313.05</ele>
        <time>2015-03-27T11:42:21Z</time>
      </trkpt>
      <trkpt lat="48.6639" lon="7.14394">
        <ele>315.93</ele>
        <time>2015-03-27T11:42:40Z</time>
      </trkpt>
      <trkpt lat="48.66349" lon="7.14401">
        <ele>316.89</ele>
        <time>2015-03-27T11:42:47Z</time>
      </trkpt>
      <trkpt lat="48.66344" lon="7.14405">
        <ele>316.89</ele>
        <time>2015-03-27T11:42:48Z</time>
      </trkpt>
      <trkpt lat="48.66339" lon="7.1441">
        <ele>316.89</ele>
        <time>2015-03-27T11:42:49Z</time>
      </trkpt>
      <trkpt lat="48.66288" lon="7.14498">
        <ele>318.33</ele>
        <time>2015-03-27T11:43:00Z</time>
      </trkpt>
      <trkpt lat="48.66229" lon="7.1459">
        <ele>318.33</ele>
        <time>2015-03-27T11:43:14Z</time>
      </trkpt>
      <trkpt lat="48.66151" lon="7.14642">
        <ele>319.78</ele>
        <time>2015-03-27T11:43:30Z</time>
      </trkpt>
      <trkpt lat="48.66035" lon="7.14699">
        <ele>320.74</ele>
        <time>2015-03-27T11:43:51Z</time>
      </trkpt>
      <trkpt lat="48.65925" lon="7.1474">
        <ele>319.78</ele>
        <time>2015-03-27T11:44:09Z</time>
      </trkpt>
      <trkpt lat="48.65796" lon="7.14802">
        <ele>317.85</ele>
        <time>2015-03-27T11:44:29Z</time>
      </trkpt>
      <trkpt lat="48.65686" lon="7.14809">
        <ele>318.33</ele>
        <time>2015-03-27T11:44:46Z</time>
      </trkpt>
      <trkpt lat="48.65587" lon="7.14859">
        <ele>317.37</ele>
        <time>2015-03-27T11:45:03Z</time>
      </trkpt>
      <trkpt lat="48.65476" lon="7.14905">
        <ele>314.01</ele>
        <time>2015-03-27T11:45:21Z</time>
      </trkpt>
      <trkpt lat="48.65395" lon="7.14929">
        <ele>313.05</ele>
        <time>2015-03-27T11:45:34Z</time>
      </trkpt>
      <trkpt lat="48.65389" lon="7.14932">
        <ele>313.05</ele>
        <time>2015-03-27T11:45:35Z</time>
      </trkpt>
      <trkpt lat="48.65383" lon="7.14938">
        <ele>313.05</ele>
        <time>2015-03-27T11:45:36Z</time>
      </trkpt>
      <trkpt lat="48.65378" lon="7.14944">
        <ele>313.05</ele>
        <time>2015-03-27T11:45:37Z</time>
      </trkpt>
      <trkpt lat="48.65373" lon="7.14952">
        <ele>313.05</ele>
        <time>2015-03-27T11:45:38Z</time>
      </trkpt>
      <trkpt lat="48.65369" lon="7.14959">
        <ele>312.57</ele>
        <time>2015-03-27T11:45:39Z</time>
      </trkpt>
      <trkpt lat="48.65366" lon="7.14967">
        <ele>312.57</ele>
        <time>2015-03-27T11:45:40Z</time>
      </trkpt>
      <trkpt lat="48.65363" lon="7.14975">
        <ele>312.09</ele>
        <time>2015-03-27T11:45:41Z</time>
      </trkpt>
      <trkpt lat="48.65361" lon="7.14983">
        <ele>312.09</ele>
        <time>2015-03-27T11:45:42Z</time>
      </trkpt>
      <trkpt lat="48.65352" lon="7.15032">
        <ele>310.64</ele>
        <time>2015-03-27T11:45:52Z</time>
      </trkpt>
      <trkpt lat="48.65357" lon="7.15033">
        <ele>311.6</ele>
        <time>2015-03-27T11:46:07Z</time>
      </trkpt>
      <trkpt lat="48.65358" lon="7.15029">
        <ele>315.93</ele>
        <time>2015-03-27T11:46:26Z</time>
      </trkpt>
      <trkpt lat="48.65357" lon="7.15027">
        <ele>317.85</ele>
        <time>2015-03-27T11:46:45Z</time>
      </trkpt>
      <trkpt lat="48.65356" lon="7.15027">
        <ele>319.78</ele>
        <time>2015-03-27T11:47:02Z</time>
      </trkpt>
      <trkpt lat="48.65357" lon="7.15031">
        <ele>320.74</ele>
        <time>2015-03-27T11:47:19Z</time>
      </trkpt>
      <trkpt lat="48.65357" lon="7.15034">
        <ele>323.14</ele>
        <time>2015-03-27T11:47:37Z</time>
      </trkpt>
      <trkpt lat="48.65357" lon="7.15026">
        <ele>324.58</ele>
        <time>2015-03-27T11:47:43Z</time>
      </trkpt>
      <trkpt lat="48.65362" lon="7.15021">
        <ele>327.47</ele>
        <time>2015-03-27T11:47:55Z</time>
      </trkpt>
      <trkpt lat="48.65361" lon="7.15022">
        <ele>328.91</ele>
        <time>2015-03-27T11:48:14Z</time>
      </trkpt>
      <trkpt lat="48.65361" lon="7.15014">
        <ele>331.79</ele>
        <time>2015-03-27T11:48:41Z</time>
      </trkpt>
      <trkpt lat="48.65366" lon="7.15023">
        <ele>333.71</ele>
        <time>2015-03-27T11:48:55Z</time>
      </trkpt>
      <trkpt lat="48.65367" lon="7.1503">
        <ele>333.71</ele>
        <time>2015-03-27T11:49:10Z</time>
      </trkpt>
      <trkpt lat="48.6536" lon="7.1503">
        <ele>333.71</ele>
        <time>2015-03-27T11:49:26Z</time>
      </trkpt>
      <trkpt lat="48.65352" lon="7.15015">
        <ele>339</ele>
        <time>2015-03-27T11:49:47Z</time>
      </trkpt>
      <trkpt lat="48.65354" lon="7.15019">
        <ele>338.52</ele>
        <time>2015-03-27T11:50:10Z</time>
      </trkpt>
      <trkpt lat="48.65357" lon="7.15024">
        <ele>339</ele>
        <time>2015-03-27T11:50:33Z</time>
      </trkpt>
      <trkpt lat="48.65357" lon="7.15027">
        <ele>337.08</ele>
        <time>2015-03-27T11:50:54Z</time>
      </trkpt>
      <trkpt lat="48.65357" lon="7.15029">
        <ele>336.12</ele>
        <time>2015-03-27T11:51:15Z</time>
      </trkpt>
      <trkpt lat="48.6535" lon="7.15025">
        <ele>333.23</ele>
        <time>2015-03-27T11:51:34Z</time>
      </trkpt>
      <trkpt lat="48.65354" lon="7.15027">
        <ele>332.27</ele>
        <time>2015-03-27T11:51:54Z</time>
      </trkpt>
      <trkpt lat="48.65356" lon="7.15026">
        <ele>333.23</ele>
        <time>2015-03-27T11:52:22Z</time>
      </trkpt>
      <trkpt lat="48.6536" lon="7.1503">
        <ele>333.71</ele>
        <time>2015-03-27T11:52:51Z</time>
      </trkpt>
      <trkpt lat="48.65359" lon="7.15027">
        <ele>332.75</ele>
        <time>2015-03-27T11:53:13Z</time>
      </trkpt>
      <trkpt lat="48.65359" lon="7.15026">
        <ele>334.2</ele>
        <time>2015-03-27T11:53:32Z</time>
      </trkpt>
      <trkpt lat="48.65358" lon="7.15025">
        <ele>334.68</ele>
        <time>2015-03-27T11:53:47Z</time>
      </trkpt>
      <trkpt lat="48.65355" lon="7.15024">
        <ele>334.68</ele>
        <time>2015-03-27T11:53:53Z</time>
      </trkpt>
      <trkpt lat="48.65353" lon="7.15024">
        <ele>334.68</ele>
        <time>2015-03-27T11:53:54Z</time>
      </trkpt>
      <trkpt lat="48.6535" lon="7.15025">
        <ele>334.2</ele>
        <time>2015-03-27T11:53:55Z</time>
      </trkpt>
      <trkpt lat="48.65348" lon="7.15024">
        <ele>334.2</ele>
        <time>2015-03-27T11:53:56Z</time>
      </trkpt>
      <trkpt lat="48.65345" lon="7.15022">
        <ele>333.71</ele>
        <time>2015-03-27T11:53:57Z</time>
      </trkpt>
      <trkpt lat="48.6529" lon="7.15021">
        <ele>335.16</ele>
        <time>2015-03-27T11:54:10Z</time>
      </trkpt>
      <trkpt lat="48.65233" lon="7.15021">
        <ele>333.71</ele>
        <time>2015-03-27T11:54:22Z</time>
      </trkpt>
      <trkpt lat="48.65227" lon="7.15023">
        <ele>333.71</ele>
        <time>2015-03-27T11:54:23Z</time>
      </trkpt>
      <trkpt lat="48.65148" lon="7.15067">
        <ele>330.35</ele>
        <time>2015-03-27T11:54:38Z</time>
      </trkpt>
      <trkpt lat="48.65055" lon="7.15153">
        <ele>327.47</ele>
        <time>2015-03-27T11:54:58Z</time>
      </trkpt>
      <trkpt lat="48.64958" lon="7.15266">
        <ele>321.7</ele>
        <time>2015-03-27T11:55:18Z</time>
      </trkpt>
      <trkpt lat="48.64867" lon="7.15404">
        <ele>313.53</ele>
        <time>2015-03-27T11:55:38Z</time>
      </trkpt>
      <trkpt lat="48.64846" lon="7.15465">
        <ele>313.05</ele>
        <time>2015-03-27T11:55:45Z</time>
      </trkpt>
      <trkpt lat="48.64842" lon="7.15472">
        <ele>313.53</ele>
        <time>2015-03-27T11:55:46Z</time>
      </trkpt>
      <trkpt lat="48.64838" lon="7.15476">
        <ele>314.01</ele>
        <time>2015-03-27T11:55:47Z</time>
      </trkpt>
      <trkpt lat="48.64833" lon="7.15479">
        <ele>314.01</ele>
        <time>2015-03-27T11:55:48Z</time>
      </trkpt>
      <trkpt lat="48.64827" lon="7.1548">
        <ele>314.01</ele>
        <time>2015-03-27T11:55:49Z</time>
      </trkpt>
      <trkpt lat="48.6482" lon="7.15479">
        <ele>313.53</ele>
        <time>2015-03-27T11:55:50Z</time>
      </trkpt>
      <trkpt lat="48.64814" lon="7.15478">
        <ele>313.53</ele>
        <time>2015-03-27T11:55:51Z</time>
      </trkpt>
      <trkpt lat="48.64751" lon="7.15451">
        <ele>317.85</ele>
        <time>2015-03-27T11:56:04Z</time>
      </trkpt>
      <trkpt lat="48.64727" lon="7.15444">
        <ele>321.22</ele>
        <time>2015-03-27T11:56:10Z</time>
      </trkpt>
      <trkpt lat="48.64669" lon="7.15435">
        <ele>330.83</ele>
        <time>2015-03-27T11:56:26Z</time>
      </trkpt>
      <trkpt lat="48.64603" lon="7.1542">
        <ele>338.04</ele>
        <time>2015-03-27T11:56:46Z</time>
      </trkpt>
      <trkpt lat="48.6455" lon="7.15446">
        <ele>344.29</ele>
        <time>2015-03-27T11:57:03Z</time>
      </trkpt>
      <trkpt lat="48.64496" lon="7.1547">
        <ele>349.58</ele>
        <time>2015-03-27T11:57:20Z</time>
      </trkpt>
      <trkpt lat="48.64444" lon="7.15492">
        <ele>357.27</ele>
        <time>2015-03-27T11:57:38Z</time>
      </trkpt>
      <trkpt lat="48.64404" lon="7.15495">
        <ele>359.67</ele>
        <time>2015-03-27T11:57:52Z</time>
      </trkpt>
      <trkpt lat="48.64395" lon="7.15475">
        <ele>361.11</ele>
        <time>2015-03-27T11:57:58Z</time>
      </trkpt>
      <trkpt lat="48.64396" lon="7.1547">
        <ele>362.07</ele>
        <time>2015-03-27T11:57:59Z</time>
      </trkpt>
      <trkpt lat="48.64398" lon="7.15466">
        <ele>362.55</ele>
        <time>2015-03-27T11:58:00Z</time>
      </trkpt>
      <trkpt lat="48.644" lon="7.15462">
        <ele>363.04</ele>
        <time>2015-03-27T11:58:01Z</time>
      </trkpt>
      <trkpt lat="48.64403" lon="7.15458">
        <ele>364</ele>
        <time>2015-03-27T11:58:02Z</time>
      </trkpt>
      <trkpt lat="48.64406" lon="7.15455">
        <ele>364.48</ele>
        <time>2015-03-27T11:58:03Z</time>
      </trkpt>
      <trkpt lat="48.64409" lon="7.15452">
        <ele>364.96</ele>
        <time>2015-03-27T11:58:04Z</time>
      </trkpt>
      <trkpt lat="48.64412" lon="7.1545">
        <ele>365.44</ele>
        <time>2015-03-27T11:58:05Z</time>
      </trkpt>
      <trkpt lat="48.64415" lon="7.15448">
        <ele>365.92</ele>
        <time>2015-03-27T11:58:06Z</time>
      </trkpt>
      <trkpt lat="48.64458" lon="7.15414">
        <ele>369.76</ele>
        <time>2015-03-27T11:58:22Z</time>
      </trkpt>
      <trkpt lat="48.64474" lon="7.15371">
        <ele>373.61</ele>
        <time>2015-03-27T11:58:34Z</time>
      </trkpt>
      <trkpt lat="48.64467" lon="7.15313">
        <ele>377.94</ele>
        <time>2015-03-27T11:58:48Z</time>
      </trkpt>
      <trkpt lat="48.64436" lon="7.15261">
        <ele>382.74</ele>
        <time>2015-03-27T11:59:05Z</time>
      </trkpt>
      <trkpt lat="48.64392" lon="7.15218">
        <ele>386.59</ele>
        <time>2015-03-27T11:59:24Z</time>
      </trkpt>
      <trkpt lat="48.64341" lon="7.15199">
        <ele>390.43</ele>
        <time>2015-03-27T11:59:42Z</time>
      </trkpt>
      <trkpt lat="48.64293" lon="7.15199">
        <ele>395.72</ele>
        <time>2015-03-27T11:59:59Z</time>
      </trkpt>
      <trkpt lat="48.64239" lon="7.15195">
        <ele>400.05</ele>
        <time>2015-03-27T12:00:17Z</time>
      </trkpt>
      <trkpt lat="48.64188" lon="7.15184">
        <ele>404.37</ele>
        <time>2015-03-27T12:00:35Z</time>
      </trkpt>
      <trkpt lat="48.64126" lon="7.1516">
        <ele>411.1</ele>
        <time>2015-03-27T12:00:55Z</time>
      </trkpt>
      <trkpt lat="48.64071" lon="7.15131">
        <ele>416.39</ele>
        <time>2015-03-27T12:01:15Z</time>
      </trkpt>
      <trkpt lat="48.64018" lon="7.15084">
        <ele>424.08</ele>
        <time>2015-03-27T12:01:36Z</time>
      </trkpt>
      <trkpt lat="48.6398" lon="7.15032">
        <ele>432.25</ele>
        <time>2015-03-27T12:01:54Z</time>
      </trkpt>
      <trkpt lat="48.63942" lon="7.14982">
        <ele>438.98</ele>
        <time>2015-03-27T12:02:12Z</time>
      </trkpt>
      <trkpt lat="48.63917" lon="7.14923">
        <ele>443.79</ele>
        <time>2015-03-27T12:02:28Z</time>
      </trkpt>
      <trkpt lat="48.63902" lon="7.14854">
        <ele>448.59</ele>
        <time>2015-03-27T12:02:44Z</time>
      </trkpt>
      <trkpt lat="48.63907" lon="7.14779">
        <ele>449.55</ele>
        <time>2015-03-27T12:03:00Z</time>
      </trkpt>
      <trkpt lat="48.63916" lon="7.14699">
        <ele>452.44</ele>
        <time>2015-03-27T12:03:17Z</time>
      </trkpt>
      <trkpt lat="48.63942" lon="7.14625">
        <ele>451.48</ele>
        <time>2015-03-27T12:03:31Z</time>
      </trkpt>
      <trkpt lat="48.63943" lon="7.14623">
        <ele>450.52</ele>
        <time>2015-03-27T12:03:42Z</time>
      </trkpt>
      <trkpt lat="48.63942" lon="7.14623">
        <ele>449.07</ele>
        <time>2015-03-27T12:04:09Z</time>
      </trkpt>
      <trkpt lat="48.63942" lon="7.14623">
        <ele>448.11</ele>
        <time>2015-03-27T12:04:37Z</time>
      </trkpt>
      <trkpt lat="48.63941" lon="7.14622">
        <ele>448.11</ele>
        <time>2015-03-27T12:04:57Z</time>
      </trkpt>
      <trkpt lat="48.63942" lon="7.14619">
        <ele>446.67</ele>
        <time>2015-03-27T12:05:24Z</time>
      </trkpt>
      <trkpt lat="48.63943" lon="7.14618">
        <ele>446.19</ele>
        <time>2015-03-27T12:05:42Z</time>
      </trkpt>
      <trkpt lat="48.63943" lon="7.14616">
        <ele>446.19</ele>
        <time>2015-03-27T12:05:53Z</time>
      </trkpt>
      <trkpt lat="48.63944" lon="7.14612">
        <ele>445.71</ele>
        <time>2015-03-27T12:05:56Z</time>
      </trkpt>
      <trkpt lat="48.63944" lon="7.1461">
        <ele>445.23</ele>
        <time>2015-03-27T12:05:57Z</time>
      </trkpt>
      <trkpt lat="48.63944" lon="7.14608">
        <ele>445.23</ele>
        <time>2015-03-27T12:05:58Z</time>
      </trkpt>
      <trkpt lat="48.63945" lon="7.14605">
        <ele>444.75</ele>
        <time>2015-03-27T12:05:59Z</time>
      </trkpt>
      <trkpt lat="48.63946" lon="7.14602">
        <ele>444.75</ele>
        <time>2015-03-27T12:06:00Z</time>
      </trkpt>
      <trkpt lat="48.63948" lon="7.14597">
        <ele>444.27</ele>
        <time>2015-03-27T12:06:01Z</time>
      </trkpt>
      <trkpt lat="48.63978" lon="7.14525">
        <ele>441.38</ele>
        <time>2015-03-27T12:06:11Z</time>
      </trkpt>
      <trkpt lat="48.63986" lon="7.14505">
        <ele>440.9</ele>
        <time>2015-03-27T12:06:13Z</time>
      </trkpt>
      <trkpt lat="48.64029" lon="7.14332">
        <ele>435.61</ele>
        <time>2015-03-27T12:06:26Z</time>
      </trkpt>
      <trkpt lat="48.64078" lon="7.14137">
        <ele>428.89</ele>
        <time>2015-03-27T12:06:37Z</time>
      </trkpt>
      <trkpt lat="48.64085" lon="7.14123">
        <ele>428.4</ele>
        <time>2015-03-27T12:06:38Z</time>
      </trkpt>
      <trkpt lat="48.64097" lon="7.14115">
        <ele>427.92</ele>
        <time>2015-03-27T12:06:39Z</time>
      </trkpt>
      <trkpt lat="48.64111" lon="7.14109">
        <ele>426.96</ele>
        <time>2015-03-27T12:06:40Z</time>
      </trkpt>
      <trkpt lat="48.64125" lon="7.14106">
        <ele>426.48</ele>
        <time>2015-03-27T12:06:41Z</time>
      </trkpt>
      <trkpt lat="48.6414" lon="7.14106">
        <ele>426</ele>
        <time>2015-03-27T12:06:42Z</time>
      </trkpt>
      <trkpt lat="48.64156" lon="7.14106">
        <ele>425.04</ele>
        <time>2015-03-27T12:06:43Z</time>
      </trkpt>
      <trkpt lat="48.64187" lon="7.14109">
        <ele>423.6</ele>
        <time>2015-03-27T12:06:45Z</time>
      </trkpt>
      <trkpt lat="48.64202" lon="7.14107">
        <ele>423.12</ele>
        <time>2015-03-27T12:06:46Z</time>
      </trkpt>
      <trkpt lat="48.6422" lon="7.14103">
        <ele>422.16</ele>
        <time>2015-03-27T12:06:47Z</time>
      </trkpt>
      <trkpt lat="48.64249" lon="7.14089">
        <ele>421.19</ele>
        <time>2015-03-27T12:06:49Z</time>
      </trkpt>
      <trkpt lat="48.64261" lon="7.14079">
        <ele>420.71</ele>
        <time>2015-03-27T12:06:50Z</time>
      </trkpt>
      <trkpt lat="48.64273" lon="7.14067">
        <ele>420.23</ele>
        <time>2015-03-27T12:06:51Z</time>
      </trkpt>
      <trkpt lat="48.64296" lon="7.14039">
        <ele>418.79</ele>
        <time>2015-03-27T12:06:53Z</time>
      </trkpt>
      <trkpt lat="48.64316" lon="7.14002">
        <ele>417.83</ele>
        <time>2015-03-27T12:06:55Z</time>
      </trkpt>
      <trkpt lat="48.64328" lon="7.13959">
        <ele>416.39</ele>
        <time>2015-03-27T12:06:57Z</time>
      </trkpt>
      <trkpt lat="48.64331" lon="7.13935">
        <ele>415.91</ele>
        <time>2015-03-27T12:06:58Z</time>
      </trkpt>
      <trkpt lat="48.64334" lon="7.13911">
        <ele>414.95</ele>
        <time>2015-03-27T12:06:59Z</time>
      </trkpt>
      <trkpt lat="48.64338" lon="7.13778">
        <ele>411.1</ele>
        <time>2015-03-27T12:07:05Z</time>
      </trkpt>
      <trkpt lat="48.64333" lon="7.13758">
        <ele>410.62</ele>
        <time>2015-03-27T12:07:06Z</time>
      </trkpt>
      <trkpt lat="48.64325" lon="7.13739">
        <ele>410.14</ele>
        <time>2015-03-27T12:07:07Z</time>
      </trkpt>
      <trkpt lat="48.64307" lon="7.13708">
        <ele>409.18</ele>
        <time>2015-03-27T12:07:09Z</time>
      </trkpt>
      <trkpt lat="48.64282" lon="7.13687">
        <ele>407.74</ele>
        <time>2015-03-27T12:07:11Z</time>
      </trkpt>
      <trkpt lat="48.64269" lon="7.13679">
        <ele>407.26</ele>
        <time>2015-03-27T12:07:12Z</time>
      </trkpt>
      <trkpt lat="48.64254" lon="7.13673">
        <ele>406.77</ele>
        <time>2015-03-27T12:07:13Z</time>
      </trkpt>
      <trkpt lat="48.64239" lon="7.13671">
        <ele>405.81</ele>
        <time>2015-03-27T12:07:14Z</time>
      </trkpt>
      <trkpt lat="48.64224" lon="7.13673">
        <ele>405.33</ele>
        <time>2015-03-27T12:07:15Z</time>
      </trkpt>
      <trkpt lat="48.6421" lon="7.13678">
        <ele>404.85</ele>
        <time>2015-03-27T12:07:16Z</time>
      </trkpt>
      <trkpt lat="48.64197" lon="7.13686">
        <ele>404.37</ele>
        <time>2015-03-27T12:07:17Z</time>
      </trkpt>
      <trkpt lat="48.64184" lon="7.13695">
        <ele>403.41</ele>
        <time>2015-03-27T12:07:18Z</time>
      </trkpt>
      <trkpt lat="48.64171" lon="7.13702">
        <ele>402.93</ele>
        <time>2015-03-27T12:07:19Z</time>
      </trkpt>
      <trkpt lat="48.64157" lon="7.13706">
        <ele>401.97</ele>
        <time>2015-03-27T12:07:20Z</time>
      </trkpt>
      <trkpt lat="48.64141" lon="7.13706">
        <ele>400.53</ele>
        <time>2015-03-27T12:07:21Z</time>
      </trkpt>
      <trkpt lat="48.64127" lon="7.13702">
        <ele>399.08</ele>
        <time>2015-03-27T12:07:22Z</time>
      </trkpt>
      <trkpt lat="48.64116" lon="7.13694">
        <ele>398.12</ele>
        <time>2015-03-27T12:07:23Z</time>
      </trkpt>
      <trkpt lat="48.64106" lon="7.13682">
        <ele>397.16</ele>
        <time>2015-03-27T12:07:24Z</time>
      </trkpt>
      <trkpt lat="48.64098" lon="7.13668">
        <ele>396.2</ele>
        <time>2015-03-27T12:07:25Z</time>
      </trkpt>
      <trkpt lat="48.64091" lon="7.13652">
        <ele>395.24</ele>
        <time>2015-03-27T12:07:26Z</time>
      </trkpt>
      <trkpt lat="48.64084" lon="7.13636">
        <ele>393.8</ele>
        <time>2015-03-27T12:07:27Z</time>
      </trkpt>
      <trkpt lat="48.64005" lon="7.1346">
        <ele>379.38</ele>
        <time>2015-03-27T12:07:37Z</time>
      </trkpt>
      <trkpt lat="48.63995" lon="7.13444">
        <ele>377.94</ele>
        <time>2015-03-27T12:07:38Z</time>
      </trkpt>
      <trkpt lat="48.63953" lon="7.13392">
        <ele>368.8</ele>
        <time>2015-03-27T12:07:42Z</time>
      </trkpt>
      <trkpt lat="48.63859" lon="7.13254">
        <ele>352.46</ele>
        <time>2015-03-27T12:07:53Z</time>
      </trkpt>
      <trkpt lat="48.63827" lon="7.13211">
        <ele>348.62</ele>
        <time>2015-03-27T12:07:57Z</time>
      </trkpt>
      <trkpt lat="48.63774" lon="7.13161">
        <ele>342.37</ele>
        <time>2015-03-27T12:08:03Z</time>
      </trkpt>
      <trkpt lat="48.63766" lon="7.1315">
        <ele>341.41</ele>
        <time>2015-03-27T12:08:04Z</time>
      </trkpt>
      <trkpt lat="48.6375" lon="7.1313">
        <ele>339.96</ele>
        <time>2015-03-27T12:08:06Z</time>
      </trkpt>
      <trkpt lat="48.6374" lon="7.13121">
        <ele>339.48</ele>
        <time>2015-03-27T12:08:07Z</time>
      </trkpt>
      <trkpt lat="48.63673" lon="7.1304">
        <ele>334.2</ele>
        <time>2015-03-27T12:08:15Z</time>
      </trkpt>
      <trkpt lat="48.63667" lon="7.13027">
        <ele>333.23</ele>
        <time>2015-03-27T12:08:16Z</time>
      </trkpt>
      <trkpt lat="48.63608" lon="7.12852">
        <ele>325.54</ele>
        <time>2015-03-27T12:08:29Z</time>
      </trkpt>
      <trkpt lat="48.63575" lon="7.12625">
        <ele>319.3</ele>
        <time>2015-03-27T12:08:46Z</time>
      </trkpt>
      <trkpt lat="48.63541" lon="7.1241">
        <ele>312.57</ele>
        <time>2015-03-27T12:09:06Z</time>
      </trkpt>
      <trkpt lat="48.63472" lon="7.12235">
        <ele>307.76</ele>
        <time>2015-03-27T12:09:22Z</time>
      </trkpt>
      <trkpt lat="48.63376" lon="7.1205">
        <ele>304.88</ele>
        <time>2015-03-27T12:09:41Z</time>
      </trkpt>
      <trkpt lat="48.63274" lon="7.11936">
        <ele>305.84</ele>
        <time>2015-03-27T12:09:59Z</time>
      </trkpt>
      <trkpt lat="48.63147" lon="7.11862">
        <ele>305.84</ele>
        <time>2015-03-27T12:10:16Z</time>
      </trkpt>
      <trkpt lat="48.63047" lon="7.11779">
        <ele>302.95</ele>
        <time>2015-03-27T12:10:30Z</time>
      </trkpt>
      <trkpt lat="48.63025" lon="7.1176">
        <ele>301.51</ele>
        <time>2015-03-27T12:10:35Z</time>
      </trkpt>
      <trkpt lat="48.63022" lon="7.11764">
        <ele>301.03</ele>
        <time>2015-03-27T12:10:36Z</time>
      </trkpt>
      <trkpt lat="48.6302" lon="7.1177">
        <ele>300.55</ele>
        <time>2015-03-27T12:10:37Z</time>
      </trkpt>
      <trkpt lat="48.62973" lon="7.11883">
        <ele>300.55</ele>
        <time>2015-03-27T12:10:52Z</time>
      </trkpt>
      <trkpt lat="48.62944" lon="7.11915">
        <ele>301.51</ele>
        <time>2015-03-27T12:10:59Z</time>
      </trkpt>
      <trkpt lat="48.6294" lon="7.1192">
        <ele>301.51</ele>
        <time>2015-03-27T12:11:00Z</time>
      </trkpt>
      <trkpt lat="48.62881" lon="7.12008">
        <ele>302.47</ele>
        <time>2015-03-27T12:11:17Z</time>
      </trkpt>
      <trkpt lat="48.62846" lon="7.12133">
        <ele>305.36</ele>
        <time>2015-03-27T12:11:34Z</time>
      </trkpt>
      <trkpt lat="48.62844" lon="7.12304">
        <ele>305.84</ele>
        <time>2015-03-27T12:11:50Z</time>
      </trkpt>
      <trkpt lat="48.62843" lon="7.12333">
        <ele>305.36</ele>
        <time>2015-03-27T12:11:52Z</time>
      </trkpt>
      <trkpt lat="48.62837" lon="7.12375">
        <ele>305.36</ele>
        <time>2015-03-27T12:11:55Z</time>
      </trkpt>
      <trkpt lat="48.62833" lon="7.12388">
        <ele>305.36</ele>
        <time>2015-03-27T12:11:56Z</time>
      </trkpt>
      <trkpt lat="48.62829" lon="7.124">
        <ele>305.84</ele>
        <time>2015-03-27T12:11:57Z</time>
      </trkpt>
      <trkpt lat="48.62824" lon="7.12411">
        <ele>305.84</ele>
        <time>2015-03-27T12:11:58Z</time>
      </trkpt>
      <trkpt lat="48.62818" lon="7.12421">
        <ele>306.32</ele>
        <time>2015-03-27T12:11:59Z</time>
      </trkpt>
      <trkpt lat="48.62813" lon="7.1243">
        <ele>306.32</ele>
        <time>2015-03-27T12:12:00Z</time>
      </trkpt>
      <trkpt lat="48.62806" lon="7.12439">
        <ele>306.32</ele>
        <time>2015-03-27T12:12:01Z</time>
      </trkpt>
      <trkpt lat="48.628" lon="7.12447">
        <ele>306.8</ele>
        <time>2015-03-27T12:12:02Z</time>
      </trkpt>
      <trkpt lat="48.62719" lon="7.125">
        <ele>307.76</ele>
        <time>2015-03-27T12:12:13Z</time>
      </trkpt>
      <trkpt lat="48.62591" lon="7.12529">
        <ele>306.32</ele>
        <time>2015-03-27T12:12:28Z</time>
      </trkpt>
      <trkpt lat="48.62583" lon="7.12535">
        <ele>306.32</ele>
        <time>2015-03-27T12:12:29Z</time>
      </trkpt>
      <trkpt lat="48.62576" lon="7.12543">
        <ele>306.32</ele>
        <time>2015-03-27T12:12:30Z</time>
      </trkpt>
      <trkpt lat="48.62566" lon="7.1269">
        <ele>309.2</ele>
        <time>2015-03-27T12:12:43Z</time>
      </trkpt>
      <trkpt lat="48.62579" lon="7.12855">
        <ele>312.57</ele>
        <time>2015-03-27T12:13:00Z</time>
      </trkpt>
      <trkpt lat="48.62561" lon="7.13025">
        <ele>314.01</ele>
        <time>2015-03-27T12:13:17Z</time>
      </trkpt>
      <trkpt lat="48.62547" lon="7.13064">
        <ele>313.53</ele>
        <time>2015-03-27T12:13:22Z</time>
      </trkpt>
      <trkpt lat="48.6251" lon="7.13107">
        <ele>311.6</ele>
        <time>2015-03-27T12:13:31Z</time>
      </trkpt>
      <trkpt lat="48.62504" lon="7.1311">
        <ele>311.12</ele>
        <time>2015-03-27T12:13:32Z</time>
      </trkpt>
      <trkpt lat="48.62445" lon="7.13084">
        <ele>305.36</ele>
        <time>2015-03-27T12:13:33Z</time>
      </trkpt>
      <trkpt lat="48.62423" lon="7.13081">
        <ele>300.55</ele>
        <time>2015-03-27T12:13:37Z</time>
      </trkpt>
      <trkpt lat="48.62417" lon="7.13077">
        <ele>299.59</ele>
        <time>2015-03-27T12:13:38Z</time>
      </trkpt>
      <trkpt lat="48.62323" lon="7.13016">
        <ele>291.9</ele>
        <time>2015-03-27T12:13:51Z</time>
      </trkpt>
      <trkpt lat="48.62205" lon="7.12904">
        <ele>281.32</ele>
        <time>2015-03-27T12:14:10Z</time>
      </trkpt>
      <trkpt lat="48.62199" lon="7.129">
        <ele>281.32</ele>
        <time>2015-03-27T12:14:11Z</time>
      </trkpt>
      <trkpt lat="48.62192" lon="7.12896">
        <ele>280.84</ele>
        <time>2015-03-27T12:14:12Z</time>
      </trkpt>
      <trkpt lat="48.62186" lon="7.12894">
        <ele>279.88</ele>
        <time>2015-03-27T12:14:13Z</time>
      </trkpt>
      <trkpt lat="48.62179" lon="7.12893">
        <ele>279.4</ele>
        <time>2015-03-27T12:14:14Z</time>
      </trkpt>
      <trkpt lat="48.62173" lon="7.12894">
        <ele>278.92</ele>
        <time>2015-03-27T12:14:15Z</time>
      </trkpt>
      <trkpt lat="48.62166" lon="7.12894">
        <ele>278.44</ele>
        <time>2015-03-27T12:14:16Z</time>
      </trkpt>
      <trkpt lat="48.62159" lon="7.12895">
        <ele>277.48</ele>
        <time>2015-03-27T12:14:17Z</time>
      </trkpt>
      <trkpt lat="48.62153" lon="7.12897">
        <ele>277</ele>
        <time>2015-03-27T12:14:18Z</time>
      </trkpt>
      <trkpt lat="48.62147" lon="7.129">
        <ele>276.04</ele>
        <time>2015-03-27T12:14:19Z</time>
      </trkpt>
      <trkpt lat="48.62048" lon="7.1296">
        <ele>267.86</ele>
        <time>2015-03-27T12:14:34Z</time>
      </trkpt>
      <trkpt lat="48.62031" lon="7.12965">
        <ele>267.38</ele>
        <time>2015-03-27T12:14:37Z</time>
      </trkpt>
      <trkpt lat="48.61944" lon="7.12956">
        <ele>267.38</ele>
        <time>2015-03-27T12:14:54Z</time>
      </trkpt>
      <trkpt lat="48.61869" lon="7.12899">
        <ele>265.46</ele>
        <time>2015-03-27T12:15:08Z</time>
      </trkpt>
      <trkpt lat="48.61812" lon="7.12836">
        <ele>265.46</ele>
        <time>2015-03-27T12:15:19Z</time>
      </trkpt>
      <trkpt lat="48.61806" lon="7.12833">
        <ele>265.46</ele>
        <time>2015-03-27T12:15:20Z</time>
      </trkpt>
      <trkpt lat="48.61801" lon="7.1283">
        <ele>265.46</ele>
        <time>2015-03-27T12:15:21Z</time>
      </trkpt>
      <trkpt lat="48.61795" lon="7.12828">
        <ele>265.46</ele>
        <time>2015-03-27T12:15:22Z</time>
      </trkpt>
      <trkpt lat="48.61789" lon="7.12828">
        <ele>265.46</ele>
        <time>2015-03-27T12:15:23Z</time>
      </trkpt>
      <trkpt lat="48.61783" lon="7.12828">
        <ele>265.46</ele>
        <time>2015-03-27T12:15:24Z</time>
      </trkpt>
      <trkpt lat="48.61777" lon="7.1283">
        <ele>265.46</ele>
        <time>2015-03-27T12:15:25Z</time>
      </trkpt>
      <trkpt lat="48.61771" lon="7.12833">
        <ele>265.46</ele>
        <time>2015-03-27T12:15:26Z</time>
      </trkpt>
      <trkpt lat="48.61699" lon="7.12904">
        <ele>267.86</ele>
        <time>2015-03-27T12:15:38Z</time>
      </trkpt>
      <trkpt lat="48.61653" lon="7.12993">
        <ele>272.67</ele>
        <time>2015-03-27T12:15:51Z</time>
      </trkpt>
      <trkpt lat="48.6165" lon="7.12997">
        <ele>272.67</ele>
        <time>2015-03-27T12:15:52Z</time>
      </trkpt>
      <trkpt lat="48.61582" lon="7.13017">
        <ele>276.52</ele>
        <time>2015-03-27T12:16:06Z</time>
      </trkpt>
      <trkpt lat="48.61503" lon="7.12995">
        <ele>280.36</ele>
        <time>2015-03-27T12:16:24Z</time>
      </trkpt>
      <trkpt lat="48.61438" lon="7.12956">
        <ele>283.25</ele>
        <time>2015-03-27T12:16:38Z</time>
      </trkpt>
      <trkpt lat="48.61341" lon="7.12889">
        <ele>286.61</ele>
        <time>2015-03-27T12:16:56Z</time>
      </trkpt>
      <trkpt lat="48.61261" lon="7.12872">
        <ele>288.05</ele>
        <time>2015-03-27T12:17:10Z</time>
      </trkpt>
      <trkpt lat="48.61154" lon="7.12896">
        <ele>290.94</ele>
        <time>2015-03-27T12:17:29Z</time>
      </trkpt>
      <trkpt lat="48.61109" lon="7.12905">
        <ele>292.86</ele>
        <time>2015-03-27T12:17:38Z</time>
      </trkpt>
      <trkpt lat="48.61103" lon="7.12903">
        <ele>293.34</ele>
        <time>2015-03-27T12:17:39Z</time>
      </trkpt>
      <trkpt lat="48.61097" lon="7.12901">
        <ele>293.34</ele>
        <time>2015-03-27T12:17:40Z</time>
      </trkpt>
      <trkpt lat="48.61013" lon="7.12835">
        <ele>296.22</ele>
        <time>2015-03-27T12:17:54Z</time>
      </trkpt>
      <trkpt lat="48.60953" lon="7.1278">
        <ele>298.15</ele>
        <time>2015-03-27T12:18:05Z</time>
      </trkpt>
      <trkpt lat="48.60948" lon="7.12779">
        <ele>298.15</ele>
        <time>2015-03-27T12:18:06Z</time>
      </trkpt>
      <trkpt lat="48.6092" lon="7.1278">
        <ele>298.63</ele>
        <time>2015-03-27T12:18:11Z</time>
      </trkpt>
      <trkpt lat="48.60864" lon="7.12814">
        <ele>300.07</ele>
        <time>2015-03-27T12:18:21Z</time>
      </trkpt>
      <trkpt lat="48.60858" lon="7.12816">
        <ele>300.07</ele>
        <time>2015-03-27T12:18:22Z</time>
      </trkpt>
      <trkpt lat="48.60852" lon="7.12818">
        <ele>300.55</ele>
        <time>2015-03-27T12:18:23Z</time>
      </trkpt>
      <trkpt lat="48.60846" lon="7.12819">
        <ele>300.55</ele>
        <time>2015-03-27T12:18:24Z</time>
      </trkpt>
      <trkpt lat="48.60839" lon="7.12819">
        <ele>301.03</ele>
        <time>2015-03-27T12:18:25Z</time>
      </trkpt>
      <trkpt lat="48.60742" lon="7.12781">
        <ele>302.95</ele>
        <time>2015-03-27T12:18:39Z</time>
      </trkpt>
      <trkpt lat="48.60612" lon="7.12729">
        <ele>305.36</ele>
        <time>2015-03-27T12:18:56Z</time>
      </trkpt>
      <trkpt lat="48.60496" lon="7.12677">
        <ele>307.76</ele>
        <time>2015-03-27T12:19:12Z</time>
      </trkpt>
      <trkpt lat="48.6038" lon="7.12692">
        <ele>309.68</ele>
        <time>2015-03-27T12:19:29Z</time>
      </trkpt>
      <trkpt lat="48.60373" lon="7.12697">
        <ele>309.68</ele>
        <time>2015-03-27T12:19:30Z</time>
      </trkpt>
      <trkpt lat="48.60292" lon="7.12768">
        <ele>309.2</ele>
        <time>2015-03-27T12:19:45Z</time>
      </trkpt>
      <trkpt lat="48.60233" lon="7.12797">
        <ele>311.12</ele>
        <time>2015-03-27T12:19:57Z</time>
      </trkpt>
      <trkpt lat="48.60229" lon="7.12797">
        <ele>311.6</ele>
        <time>2015-03-27T12:19:58Z</time>
      </trkpt>
      <trkpt lat="48.60224" lon="7.12795">
        <ele>311.6</ele>
        <time>2015-03-27T12:19:59Z</time>
      </trkpt>
      <trkpt lat="48.6022" lon="7.12793">
        <ele>312.09</ele>
        <time>2015-03-27T12:20:00Z</time>
      </trkpt>
      <trkpt lat="48.60215" lon="7.12791">
        <ele>312.09</ele>
        <time>2015-03-27T12:20:01Z</time>
      </trkpt>
      <trkpt lat="48.60167" lon="7.12749">
        <ele>314.49</ele>
        <time>2015-03-27T12:20:12Z</time>
      </trkpt>
      <trkpt lat="48.60163" lon="7.12743">
        <ele>314.49</ele>
        <time>2015-03-27T12:20:13Z</time>
      </trkpt>
      <trkpt lat="48.60155" lon="7.12725">
        <ele>314.97</ele>
        <time>2015-03-27T12:20:16Z</time>
      </trkpt>
      <trkpt lat="48.60153" lon="7.12718">
        <ele>314.97</ele>
        <time>2015-03-27T12:20:17Z</time>
      </trkpt>
      <trkpt lat="48.60152" lon="7.12712">
        <ele>314.97</ele>
        <time>2015-03-27T12:20:18Z</time>
      </trkpt>
      <trkpt lat="48.60151" lon="7.12699">
        <ele>315.45</ele>
        <time>2015-03-27T12:20:20Z</time>
      </trkpt>
      <trkpt lat="48.60152" lon="7.12692">
        <ele>315.45</ele>
        <time>2015-03-27T12:20:21Z</time>
      </trkpt>
      <trkpt lat="48.60154" lon="7.12684">
        <ele>315.45</ele>
        <time>2015-03-27T12:20:22Z</time>
      </trkpt>
      <trkpt lat="48.60158" lon="7.12676">
        <ele>315.45</ele>
        <time>2015-03-27T12:20:23Z</time>
      </trkpt>
      <trkpt lat="48.60204" lon="7.12561">
        <ele>316.89</ele>
        <time>2015-03-27T12:20:36Z</time>
      </trkpt>
      <trkpt lat="48.60205" lon="7.12552">
        <ele>316.89</ele>
        <time>2015-03-27T12:20:37Z</time>
      </trkpt>
      <trkpt lat="48.60186" lon="7.12431">
        <ele>317.85</ele>
        <time>2015-03-27T12:20:51Z</time>
      </trkpt>
      <trkpt lat="48.60178" lon="7.12412">
        <ele>318.33</ele>
        <time>2015-03-27T12:20:53Z</time>
      </trkpt>
      <trkpt lat="48.60172" lon="7.12403">
        <ele>318.33</ele>
        <time>2015-03-27T12:20:54Z</time>
      </trkpt>
      <trkpt lat="48.60098" lon="7.12319">
        <ele>317.85</ele>
        <time>2015-03-27T12:21:07Z</time>
      </trkpt>
      <trkpt lat="48.59961" lon="7.1225">
        <ele>319.3</ele>
        <time>2015-03-27T12:21:27Z</time>
      </trkpt>
      <trkpt lat="48.59857" lon="7.12216">
        <ele>321.22</ele>
        <time>2015-03-27T12:21:45Z</time>
      </trkpt>
      <trkpt lat="48.59747" lon="7.12224">
        <ele>322.18</ele>
        <time>2015-03-27T12:22:05Z</time>
      </trkpt>
      <trkpt lat="48.59648" lon="7.12254">
        <ele>319.3</ele>
        <time>2015-03-27T12:22:24Z</time>
      </trkpt>
      <trkpt lat="48.59588" lon="7.12279">
        <ele>320.26</ele>
        <time>2015-03-27T12:22:36Z</time>
      </trkpt>
      <trkpt lat="48.5949" lon="7.1227">
        <ele>323.14</ele>
        <time>2015-03-27T12:22:54Z</time>
      </trkpt>
      <trkpt lat="48.59384" lon="7.12278">
        <ele>327.95</ele>
        <time>2015-03-27T12:23:12Z</time>
      </trkpt>
      <trkpt lat="48.59294" lon="7.12335">
        <ele>328.43</ele>
        <time>2015-03-27T12:23:27Z</time>
      </trkpt>
      <trkpt lat="48.59214" lon="7.12409">
        <ele>330.35</ele>
        <time>2015-03-27T12:23:43Z</time>
      </trkpt>
      <trkpt lat="48.59138" lon="7.12455">
        <ele>331.79</ele>
        <time>2015-03-27T12:23:59Z</time>
      </trkpt>
      <trkpt lat="48.59113" lon="7.12464">
        <ele>331.79</ele>
        <time>2015-03-27T12:24:05Z</time>
      </trkpt>
      <trkpt lat="48.59094" lon="7.12473">
        <ele>332.27</ele>
        <time>2015-03-27T12:24:09Z</time>
      </trkpt>
      <trkpt lat="48.59089" lon="7.12475">
        <ele>332.27</ele>
        <time>2015-03-27T12:24:10Z</time>
      </trkpt>
      <trkpt lat="48.59019" lon="7.12538">
        <ele>332.75</ele>
        <time>2015-03-27T12:24:24Z</time>
      </trkpt>
      <trkpt lat="48.58967" lon="7.12657">
        <ele>334.2</ele>
        <time>2015-03-27T12:24:41Z</time>
      </trkpt>
      <trkpt lat="48.58863" lon="7.12626">
        <ele>366.4</ele>
        <time>2015-03-27T12:24:47Z</time>
      </trkpt>
      <trkpt lat="48.58792" lon="7.12659">
        <ele>382.74</ele>
        <time>2015-03-27T12:25:04Z</time>
      </trkpt>
      <trkpt lat="48.58769" lon="7.12654">
        <ele>380.82</ele>
        <time>2015-03-27T12:25:08Z</time>
      </trkpt>
      <trkpt lat="48.58719" lon="7.12622">
        <ele>380.34</ele>
        <time>2015-03-27T12:25:14Z</time>
      </trkpt>
      <trkpt lat="48.58712" lon="7.1262">
        <ele>381.3</ele>
        <time>2015-03-27T12:25:15Z</time>
      </trkpt>
      <trkpt lat="48.58707" lon="7.1262">
        <ele>381.78</ele>
        <time>2015-03-27T12:25:16Z</time>
      </trkpt>
      <trkpt lat="48.58702" lon="7.12622">
        <ele>381.78</ele>
        <time>2015-03-27T12:25:17Z</time>
      </trkpt>
      <trkpt lat="48.58695" lon="7.12626">
        <ele>382.74</ele>
        <time>2015-03-27T12:25:18Z</time>
      </trkpt>
      <trkpt lat="48.5869" lon="7.12633">
        <ele>382.74</ele>
        <time>2015-03-27T12:25:19Z</time>
      </trkpt>
      <trkpt lat="48.58685" lon="7.12639">
        <ele>381.78</ele>
        <time>2015-03-27T12:25:20Z</time>
      </trkpt>
      <trkpt lat="48.58681" lon="7.12646">
        <ele>380.82</ele>
        <time>2015-03-27T12:25:21Z</time>
      </trkpt>
      <trkpt lat="48.58677" lon="7.12653">
        <ele>380.34</ele>
        <time>2015-03-27T12:25:22Z</time>
      </trkpt>
      <trkpt lat="48.58674" lon="7.1266">
        <ele>379.38</ele>
        <time>2015-03-27T12:25:23Z</time>
      </trkpt>
      <trkpt lat="48.58647" lon="7.12727">
        <ele>376.97</ele>
        <time>2015-03-27T12:25:33Z</time>
      </trkpt>
      <trkpt lat="48.58647" lon="7.12735">
        <ele>377.45</ele>
        <time>2015-03-27T12:25:34Z</time>
      </trkpt>
      <trkpt lat="48.58694" lon="7.12778">
        <ele>377.45</ele>
        <time>2015-03-27T12:25:35Z</time>
      </trkpt>
      <trkpt lat="48.58647" lon="7.12888">
        <ele>443.79</ele>
        <time>2015-03-27T12:25:53Z</time>
      </trkpt>
      <trkpt lat="48.58604" lon="7.12975">
        <ele>466.38</ele>
        <time>2015-03-27T12:26:08Z</time>
      </trkpt>
      <trkpt lat="48.58589" lon="7.13016">
        <ele>477.91</ele>
        <time>2015-03-27T12:26:14Z</time>
      </trkpt>
      <trkpt lat="48.58564" lon="7.13152">
        <ele>479.84</ele>
        <time>2015-03-27T12:26:31Z</time>
      </trkpt>
      <trkpt lat="48.58547" lon="7.13197">
        <ele>471.66</ele>
        <time>2015-03-27T12:26:41Z</time>
      </trkpt>
      <trkpt lat="48.58508" lon="7.13213">
        <ele>463.49</ele>
        <time>2015-03-27T12:26:54Z</time>
      </trkpt>
      <trkpt lat="48.58463" lon="7.13284">
        <ele>454.36</ele>
        <time>2015-03-27T12:27:05Z</time>
      </trkpt>
      <trkpt lat="48.58418" lon="7.13396">
        <ele>442.82</ele>
        <time>2015-03-27T12:27:21Z</time>
      </trkpt>
      <trkpt lat="48.58385" lon="7.13485">
        <ele>435.61</ele>
        <time>2015-03-27T12:27:35Z</time>
      </trkpt>
      <trkpt lat="48.58337" lon="7.13505">
        <ele>431.77</ele>
        <time>2015-03-27T12:27:49Z</time>
      </trkpt>
      <trkpt lat="48.58221" lon="7.13491">
        <ele>401.01</ele>
        <time>2015-03-27T12:27:57Z</time>
      </trkpt>
      <trkpt lat="48.58169" lon="7.13524">
        <ele>429.37</ele>
        <time>2015-03-27T12:28:11Z</time>
      </trkpt>
      <trkpt lat="48.58153" lon="7.13588">
        <ele>442.34</ele>
        <time>2015-03-27T12:28:23Z</time>
      </trkpt>
      <trkpt lat="48.5817" lon="7.13633">
        <ele>451.48</ele>
        <time>2015-03-27T12:28:30Z</time>
      </trkpt>
      <trkpt lat="48.58171" lon="7.13643">
        <ele>451.96</ele>
        <time>2015-03-27T12:28:31Z</time>
      </trkpt>
      <trkpt lat="48.58176" lon="7.13714">
        <ele>447.15</ele>
        <time>2015-03-27T12:28:41Z</time>
      </trkpt>
      <trkpt lat="48.58139" lon="7.13778">
        <ele>438.98</ele>
        <time>2015-03-27T12:28:58Z</time>
      </trkpt>
      <trkpt lat="48.58085" lon="7.13867">
        <ele>430.33</ele>
        <time>2015-03-27T12:29:14Z</time>
      </trkpt>
      <trkpt lat="48.58081" lon="7.13874">
        <ele>429.85</ele>
        <time>2015-03-27T12:29:15Z</time>
      </trkpt>
      <trkpt lat="48.58049" lon="7.13992">
        <ele>424.56</ele>
        <time>2015-03-27T12:29:32Z</time>
      </trkpt>
      <trkpt lat="48.58034" lon="7.13996">
        <ele>424.08</ele>
        <time>2015-03-27T12:29:37Z</time>
      </trkpt>
      <trkpt lat="48.57968" lon="7.13977">
        <ele>403.41</ele>
        <time>2015-03-27T12:29:38Z</time>
      </trkpt>
      <trkpt lat="48.57884" lon="7.13971">
        <ele>401.01</ele>
        <time>2015-03-27T12:29:56Z</time>
      </trkpt>
      <trkpt lat="48.57847" lon="7.1399">
        <ele>400.05</ele>
        <time>2015-03-27T12:30:04Z</time>
      </trkpt>
      <trkpt lat="48.57839" lon="7.13999">
        <ele>400.05</ele>
        <time>2015-03-27T12:30:06Z</time>
      </trkpt>
      <trkpt lat="48.57835" lon="7.14004">
        <ele>399.57</ele>
        <time>2015-03-27T12:30:07Z</time>
      </trkpt>
      <trkpt lat="48.57832" lon="7.1401">
        <ele>399.57</ele>
        <time>2015-03-27T12:30:08Z</time>
      </trkpt>
      <trkpt lat="48.57829" lon="7.14015">
        <ele>399.57</ele>
        <time>2015-03-27T12:30:09Z</time>
      </trkpt>
      <trkpt lat="48.57826" lon="7.14022">
        <ele>399.08</ele>
        <time>2015-03-27T12:30:10Z</time>
      </trkpt>
      <trkpt lat="48.57824" lon="7.14028">
        <ele>399.08</ele>
        <time>2015-03-27T12:30:11Z</time>
      </trkpt>
      <trkpt lat="48.57797" lon="7.14122">
        <ele>400.53</ele>
        <time>2015-03-27T12:30:26Z</time>
      </trkpt>
      <trkpt lat="48.57712" lon="7.14142">
        <ele>425.52</ele>
        <time>2015-03-27T12:30:40Z</time>
      </trkpt>
      <trkpt lat="48.57707" lon="7.14144">
        <ele>433.69</ele>
        <time>2015-03-27T12:30:44Z</time>
      </trkpt>
      <trkpt lat="48.5764" lon="7.14117">
        <ele>423.12</ele>
        <time>2015-03-27T12:30:54Z</time>
      </trkpt>
      <trkpt lat="48.57629" lon="7.14113">
        <ele>421.68</ele>
        <time>2015-03-27T12:30:56Z</time>
      </trkpt>
      <trkpt lat="48.57624" lon="7.14112">
        <ele>421.68</ele>
        <time>2015-03-27T12:30:57Z</time>
      </trkpt>
      <trkpt lat="48.57619" lon="7.14112">
        <ele>421.68</ele>
        <time>2015-03-27T12:30:58Z</time>
      </trkpt>
      <trkpt lat="48.57614" lon="7.14112">
        <ele>421.68</ele>
        <time>2015-03-27T12:30:59Z</time>
      </trkpt>
      <trkpt lat="48.57609" lon="7.14113">
        <ele>421.68</ele>
        <time>2015-03-27T12:31:00Z</time>
      </trkpt>
      <trkpt lat="48.57527" lon="7.14128">
        <ele>421.68</ele>
        <time>2015-03-27T12:31:17Z</time>
      </trkpt>
      <trkpt lat="48.57455" lon="7.14148">
        <ele>425.04</ele>
        <time>2015-03-27T12:31:32Z</time>
      </trkpt>
      <trkpt lat="48.5745" lon="7.1415">
        <ele>424.56</ele>
        <time>2015-03-27T12:31:33Z</time>
      </trkpt>
      <trkpt lat="48.57378" lon="7.14186">
        <ele>421.68</ele>
        <time>2015-03-27T12:31:50Z</time>
      </trkpt>
      <trkpt lat="48.57292" lon="7.14212">
        <ele>426</ele>
        <time>2015-03-27T12:32:05Z</time>
      </trkpt>
      <trkpt lat="48.57204" lon="7.14261">
        <ele>422.64</ele>
        <time>2015-03-27T12:32:23Z</time>
      </trkpt>
      <trkpt lat="48.57147" lon="7.14283">
        <ele>419.27</ele>
        <time>2015-03-27T12:32:33Z</time>
      </trkpt>
      <trkpt lat="48.57143" lon="7.14287">
        <ele>419.27</ele>
        <time>2015-03-27T12:32:34Z</time>
      </trkpt>
      <trkpt lat="48.57085" lon="7.1435">
        <ele>419.75</ele>
        <time>2015-03-27T12:32:48Z</time>
      </trkpt>
      <trkpt lat="48.57035" lon="7.14446">
        <ele>419.27</ele>
        <time>2015-03-27T12:33:04Z</time>
      </trkpt>
      <trkpt lat="48.56978" lon="7.14595">
        <ele>418.79</ele>
        <time>2015-03-27T12:33:24Z</time>
      </trkpt>
      <trkpt lat="48.56917" lon="7.14711">
        <ele>420.23</ele>
        <time>2015-03-27T12:33:43Z</time>
      </trkpt>
      <trkpt lat="48.56846" lon="7.1481">
        <ele>423.6</ele>
        <time>2015-03-27T12:34:03Z</time>
      </trkpt>
      <trkpt lat="48.56775" lon="7.14924">
        <ele>427.92</ele>
        <time>2015-03-27T12:34:21Z</time>
      </trkpt>
      <trkpt lat="48.56713" lon="7.15042">
        <ele>432.25</ele>
        <time>2015-03-27T12:34:39Z</time>
      </trkpt>
      <trkpt lat="48.56652" lon="7.15147">
        <ele>435.13</ele>
        <time>2015-03-27T12:34:56Z</time>
      </trkpt>
      <trkpt lat="48.56599" lon="7.15254">
        <ele>438.98</ele>
        <time>2015-03-27T12:35:13Z</time>
      </trkpt>
      <trkpt lat="48.5659" lon="7.15283">
        <ele>439.46</ele>
        <time>2015-03-27T12:35:17Z</time>
      </trkpt>
      <trkpt lat="48.56582" lon="7.15388">
        <ele>441.38</ele>
        <time>2015-03-27T12:35:32Z</time>
      </trkpt>
      <trkpt lat="48.56583" lon="7.15403">
        <ele>441.38</ele>
        <time>2015-03-27T12:35:34Z</time>
      </trkpt>
      <trkpt lat="48.56583" lon="7.1541">
        <ele>441.38</ele>
        <time>2015-03-27T12:35:35Z</time>
      </trkpt>
      <trkpt lat="48.56565" lon="7.15527">
        <ele>442.82</ele>
        <time>2015-03-27T12:35:50Z</time>
      </trkpt>
      <trkpt lat="48.56524" lon="7.15633">
        <ele>446.19</ele>
        <time>2015-03-27T12:36:08Z</time>
      </trkpt>
      <trkpt lat="48.56454" lon="7.15677">
        <ele>447.63</ele>
        <time>2015-03-27T12:36:23Z</time>
      </trkpt>
      <trkpt lat="48.56374" lon="7.15777">
        <ele>448.59</ele>
        <time>2015-03-27T12:36:40Z</time>
      </trkpt>
      <trkpt lat="48.56298" lon="7.15905">
        <ele>448.59</ele>
        <time>2015-03-27T12:37:00Z</time>
      </trkpt>
      <trkpt lat="48.56283" lon="7.15932">
        <ele>448.59</ele>
        <time>2015-03-27T12:37:05Z</time>
      </trkpt>
      <trkpt lat="48.56245" lon="7.16007">
        <ele>449.55</ele>
        <time>2015-03-27T12:37:19Z</time>
      </trkpt>
      <trkpt lat="48.56198" lon="7.16082">
        <ele>455.32</ele>
        <time>2015-03-27T12:37:35Z</time>
      </trkpt>
      <trkpt lat="48.56152" lon="7.16148">
        <ele>460.61</ele>
        <time>2015-03-27T12:37:53Z</time>
      </trkpt>
      <trkpt lat="48.56092" lon="7.16184">
        <ele>465.42</ele>
        <time>2015-03-27T12:38:09Z</time>
      </trkpt>
      <trkpt lat="48.55993" lon="7.16229">
        <ele>471.66</ele>
        <time>2015-03-27T12:38:29Z</time>
      </trkpt>
      <trkpt lat="48.55917" lon="7.16286">
        <ele>476.95</ele>
        <time>2015-03-27T12:38:49Z</time>
      </trkpt>
      <trkpt lat="48.55871" lon="7.16345">
        <ele>486.56</ele>
        <time>2015-03-27T12:39:06Z</time>
      </trkpt>
      <trkpt lat="48.55824" lon="7.16418">
        <ele>496.66</ele>
        <time>2015-03-27T12:39:25Z</time>
      </trkpt>
      <trkpt lat="48.55787" lon="7.16488">
        <ele>504.83</ele>
        <time>2015-03-27T12:39:40Z</time>
      </trkpt>
      <trkpt lat="48.55748" lon="7.16561">
        <ele>512.52</ele>
        <time>2015-03-27T12:39:56Z</time>
      </trkpt>
      <trkpt lat="48.55717" lon="7.16654">
        <ele>525.02</ele>
        <time>2015-03-27T12:40:17Z</time>
      </trkpt>
      <trkpt lat="48.5567" lon="7.16722">
        <ele>532.23</ele>
        <time>2015-03-27T12:40:33Z</time>
      </trkpt>
      <trkpt lat="48.55631" lon="7.16827">
        <ele>540.88</ele>
        <time>2015-03-27T12:40:54Z</time>
      </trkpt>
      <trkpt lat="48.55599" lon="7.16884">
        <ele>550.97</ele>
        <time>2015-03-27T12:41:13Z</time>
      </trkpt>
      <trkpt lat="48.55542" lon="7.16941">
        <ele>564.91</ele>
        <time>2015-03-27T12:41:33Z</time>
      </trkpt>
      <trkpt lat="48.555" lon="7.17016">
        <ele>576.93</ele>
        <time>2015-03-27T12:41:48Z</time>
      </trkpt>
      <trkpt lat="48.55485" lon="7.17073">
        <ele>586.54</ele>
        <time>2015-03-27T12:42:01Z</time>
      </trkpt>
      <trkpt lat="48.55412" lon="7.17025">
        <ele>580.77</ele>
        <time>2015-03-27T12:42:12Z</time>
      </trkpt>
      <trkpt lat="48.55357" lon="7.16989">
        <ele>573.08</ele>
        <time>2015-03-27T12:42:28Z</time>
      </trkpt>
      <trkpt lat="48.55323" lon="7.17011">
        <ele>572.12</ele>
        <time>2015-03-27T12:42:45Z</time>
      </trkpt>
      <trkpt lat="48.55263" lon="7.17046">
        <ele>569.24</ele>
        <time>2015-03-27T12:43:02Z</time>
      </trkpt>
      <trkpt lat="48.55207" lon="7.17087">
        <ele>564.91</ele>
        <time>2015-03-27T12:43:19Z</time>
      </trkpt>
      <trkpt lat="48.55155" lon="7.17128">
        <ele>561.55</ele>
        <time>2015-03-27T12:43:36Z</time>
      </trkpt>
      <trkpt lat="48.55091" lon="7.17159">
        <ele>558.18</ele>
        <time>2015-03-27T12:43:52Z</time>
      </trkpt>
      <trkpt lat="48.55014" lon="7.1723">
        <ele>549.53</ele>
        <time>2015-03-27T12:44:09Z</time>
      </trkpt>
      <trkpt lat="48.54977" lon="7.17306">
        <ele>546.65</ele>
        <time>2015-03-27T12:44:26Z</time>
      </trkpt>
      <trkpt lat="48.54938" lon="7.17378">
        <ele>546.65</ele>
        <time>2015-03-27T12:44:42Z</time>
      </trkpt>
      <trkpt lat="48.54885" lon="7.17469">
        <ele>549.05</ele>
        <time>2015-03-27T12:45:00Z</time>
      </trkpt>
      <trkpt lat="48.54853" lon="7.17556">
        <ele>551.45</ele>
        <time>2015-03-27T12:45:17Z</time>
      </trkpt>
      <trkpt lat="48.54821" lon="7.17643">
        <ele>552.41</ele>
        <time>2015-03-27T12:45:35Z</time>
      </trkpt>
      <trkpt lat="48.54816" lon="7.17744">
        <ele>555.78</ele>
        <time>2015-03-27T12:45:53Z</time>
      </trkpt>
      <trkpt lat="48.54817" lon="7.17826">
        <ele>556.74</ele>
        <time>2015-03-27T12:46:07Z</time>
      </trkpt>
      <trkpt lat="48.54815" lon="7.17828">
        <ele>557.7</ele>
        <time>2015-03-27T12:46:08Z</time>
      </trkpt>
      <trkpt lat="48.54811" lon="7.1783">
        <ele>559.14</ele>
        <time>2015-03-27T12:46:09Z</time>
      </trkpt>
      <trkpt lat="48.54807" lon="7.1783">
        <ele>561.07</ele>
        <time>2015-03-27T12:46:10Z</time>
      </trkpt>
      <trkpt lat="48.54801" lon="7.17829">
        <ele>562.03</ele>
        <time>2015-03-27T12:46:11Z</time>
      </trkpt>
      <trkpt lat="48.54795" lon="7.17827">
        <ele>562.99</ele>
        <time>2015-03-27T12:46:12Z</time>
      </trkpt>
      <trkpt lat="48.54789" lon="7.17825">
        <ele>563.47</ele>
        <time>2015-03-27T12:46:13Z</time>
      </trkpt>
      <trkpt lat="48.54784" lon="7.17822">
        <ele>563.95</ele>
        <time>2015-03-27T12:46:14Z</time>
      </trkpt>
      <trkpt lat="48.54779" lon="7.17818">
        <ele>564.43</ele>
        <time>2015-03-27T12:46:15Z</time>
      </trkpt>
      <trkpt lat="48.54742" lon="7.17809">
        <ele>571.16</ele>
        <time>2015-03-27T12:46:27Z</time>
      </trkpt>
      <trkpt lat="48.54704" lon="7.17846">
        <ele>580.29</ele>
        <time>2015-03-27T12:46:42Z</time>
      </trkpt>
      <trkpt lat="48.54669" lon="7.17917">
        <ele>587.5</ele>
        <time>2015-03-27T12:46:58Z</time>
      </trkpt>
      <trkpt lat="48.54644" lon="7.1801">
        <ele>594.71</ele>
        <time>2015-03-27T12:47:17Z</time>
      </trkpt>
      <trkpt lat="48.54632" lon="7.18107">
        <ele>596.64</ele>
        <time>2015-03-27T12:47:35Z</time>
      </trkpt>
      <trkpt lat="48.54629" lon="7.18114">
        <ele>596.64</ele>
        <time>2015-03-27T12:47:37Z</time>
      </trkpt>
      <trkpt lat="48.54627" lon="7.18115">
        <ele>596.15</ele>
        <time>2015-03-27T12:47:38Z</time>
      </trkpt>
      <trkpt lat="48.54625" lon="7.18115">
        <ele>596.15</ele>
        <time>2015-03-27T12:47:39Z</time>
      </trkpt>
      <trkpt lat="48.54623" lon="7.18114">
        <ele>596.64</ele>
        <time>2015-03-27T12:47:40Z</time>
      </trkpt>
      <trkpt lat="48.5462" lon="7.18111">
        <ele>596.64</ele>
        <time>2015-03-27T12:47:41Z</time>
      </trkpt>
      <trkpt lat="48.54559" lon="7.18032">
        <ele>593.27</ele>
        <time>2015-03-27T12:47:59Z</time>
      </trkpt>
      <trkpt lat="48.54511" lon="7.1796">
        <ele>592.31</ele>
        <time>2015-03-27T12:48:18Z</time>
      </trkpt>
      <trkpt lat="48.5445" lon="7.17954">
        <ele>592.79</ele>
        <time>2015-03-27T12:48:35Z</time>
      </trkpt>
      <trkpt lat="48.54397" lon="7.17972">
        <ele>592.79</ele>
        <time>2015-03-27T12:48:52Z</time>
      </trkpt>
      <trkpt lat="48.54341" lon="7.18003">
        <ele>593.75</ele>
        <time>2015-03-27T12:49:10Z</time>
      </trkpt>
      <trkpt lat="48.54314" lon="7.18014">
        <ele>594.71</ele>
        <time>2015-03-27T12:49:25Z</time>
      </trkpt>
      <trkpt lat="48.54311" lon="7.1802">
        <ele>596.15</ele>
        <time>2015-03-27T12:49:49Z</time>
      </trkpt>
      <trkpt lat="48.54308" lon="7.18023">
        <ele>597.12</ele>
        <time>2015-03-27T12:50:17Z</time>
      </trkpt>
      <trkpt lat="48.54307" lon="7.18023">
        <ele>597.12</ele>
        <time>2015-03-27T12:50:43Z</time>
      </trkpt>
      <trkpt lat="48.543" lon="7.18027">
        <ele>595.67</ele>
        <time>2015-03-27T12:51:06Z</time>
      </trkpt>
      <trkpt lat="48.54299" lon="7.18027">
        <ele>594.71</ele>
        <time>2015-03-27T12:51:24Z</time>
      </trkpt>
      <trkpt lat="48.54298" lon="7.18027">
        <ele>595.19</ele>
        <time>2015-03-27T12:51:48Z</time>
      </trkpt>
      <trkpt lat="48.54298" lon="7.18025">
        <ele>595.67</ele>
        <time>2015-03-27T12:51:56Z</time>
      </trkpt>
      <trkpt lat="48.54297" lon="7.18026">
        <ele>595.67</ele>
        <time>2015-03-27T12:51:57Z</time>
      </trkpt>
      <trkpt lat="48.54296" lon="7.18026">
        <ele>596.15</ele>
        <time>2015-03-27T12:51:58Z</time>
      </trkpt>
      <trkpt lat="48.54276" lon="7.1803">
        <ele>603.36</ele>
        <time>2015-03-27T12:52:12Z</time>
      </trkpt>
      <trkpt lat="48.5426" lon="7.17951">
        <ele>608.17</ele>
        <time>2015-03-27T12:52:25Z</time>
      </trkpt>
      <trkpt lat="48.54285" lon="7.17843">
        <ele>609.13</ele>
        <time>2015-03-27T12:52:45Z</time>
      </trkpt>
      <trkpt lat="48.54323" lon="7.17732">
        <ele>609.13</ele>
        <time>2015-03-27T12:53:06Z</time>
      </trkpt>
      <trkpt lat="48.54341" lon="7.17662">
        <ele>609.61</ele>
        <time>2015-03-27T12:53:21Z</time>
      </trkpt>
      <trkpt lat="48.54304" lon="7.17598">
        <ele>608.65</ele>
        <time>2015-03-27T12:53:35Z</time>
      </trkpt>
      <trkpt lat="48.54252" lon="7.17518">
        <ele>610.09</ele>
        <time>2015-03-27T12:53:55Z</time>
      </trkpt>
      <trkpt lat="48.54194" lon="7.17442">
        <ele>614.9</ele>
        <time>2015-03-27T12:54:15Z</time>
      </trkpt>
      <trkpt lat="48.54123" lon="7.17394">
        <ele>621.63</ele>
        <time>2015-03-27T12:54:36Z</time>
      </trkpt>
      <trkpt lat="48.54061" lon="7.17372">
        <ele>624.99</ele>
        <time>2015-03-27T12:54:54Z</time>
      </trkpt>
      <trkpt lat="48.54005" lon="7.17341">
        <ele>626.44</ele>
        <time>2015-03-27T12:55:10Z</time>
      </trkpt>
      <trkpt lat="48.5393" lon="7.17301">
        <ele>628.84</ele>
        <time>2015-03-27T12:55:30Z</time>
      </trkpt>
      <trkpt lat="48.53892" lon="7.17239">
        <ele>631.72</ele>
        <time>2015-03-27T12:55:45Z</time>
      </trkpt>
      <trkpt lat="48.53902" lon="7.1721">
        <ele>632.2</ele>
        <time>2015-03-27T12:55:51Z</time>
      </trkpt>
      <trkpt lat="48.53976" lon="7.17143">
        <ele>634.61</ele>
        <time>2015-03-27T12:56:09Z</time>
      </trkpt>
      <trkpt lat="48.54023" lon="7.17145">
        <ele>637.97</ele>
        <time>2015-03-27T12:56:20Z</time>
      </trkpt>
      <trkpt lat="48.54085" lon="7.17122">
        <ele>640.86</ele>
        <time>2015-03-27T12:56:37Z</time>
      </trkpt>
      <trkpt lat="48.54145" lon="7.17094">
        <ele>645.66</ele>
        <time>2015-03-27T12:56:55Z</time>
      </trkpt>
      <trkpt lat="48.54227" lon="7.17052">
        <ele>650.95</ele>
        <time>2015-03-27T12:57:16Z</time>
      </trkpt>
      <trkpt lat="48.54268" lon="7.1696">
        <ele>657.68</ele>
        <time>2015-03-27T12:57:35Z</time>
      </trkpt>
      <trkpt lat="48.54299" lon="7.16869">
        <ele>662.97</ele>
        <time>2015-03-27T12:57:53Z</time>
      </trkpt>
      <trkpt lat="48.54308" lon="7.16865">
        <ele>663.45</ele>
        <time>2015-03-27T12:57:55Z</time>
      </trkpt>
      <trkpt lat="48.54313" lon="7.16865">
        <ele>663.93</ele>
        <time>2015-03-27T12:57:56Z</time>
      </trkpt>
      <trkpt lat="48.54317" lon="7.16866">
        <ele>664.41</ele>
        <time>2015-03-27T12:57:57Z</time>
      </trkpt>
      <trkpt lat="48.54322" lon="7.16868">
        <ele>664.89</ele>
        <time>2015-03-27T12:57:58Z</time>
      </trkpt>
      <trkpt lat="48.54326" lon="7.16871">
        <ele>665.37</ele>
        <time>2015-03-27T12:57:59Z</time>
      </trkpt>
      <trkpt lat="48.5433" lon="7.16875">
        <ele>666.33</ele>
        <time>2015-03-27T12:58:00Z</time>
      </trkpt>
      <trkpt lat="48.54334" lon="7.16878">
        <ele>666.81</ele>
        <time>2015-03-27T12:58:01Z</time>
      </trkpt>
      <trkpt lat="48.5438" lon="7.16927">
        <ele>672.1</ele>
        <time>2015-03-27T12:58:15Z</time>
      </trkpt>
      <trkpt lat="48.54429" lon="7.16992">
        <ele>677.87</ele>
        <time>2015-03-27T12:58:31Z</time>
      </trkpt>
      <trkpt lat="48.54471" lon="7.1707">
        <ele>684.6</ele>
        <time>2015-03-27T12:58:49Z</time>
      </trkpt>
      <trkpt lat="48.54503" lon="7.17145">
        <ele>689.4</ele>
        <time>2015-03-27T12:59:06Z</time>
      </trkpt>
      <trkpt lat="48.54545" lon="7.17166">
        <ele>693.73</ele>
        <time>2015-03-27T12:59:18Z</time>
      </trkpt>
      <trkpt lat="48.54567" lon="7.17115">
        <ele>695.65</ele>
        <time>2015-03-27T12:59:29Z</time>
      </trkpt>
      <trkpt lat="48.54568" lon="7.17022">
        <ele>697.09</ele>
        <time>2015-03-27T12:59:46Z</time>
      </trkpt>
      <trkpt lat="48.54558" lon="7.16911">
        <ele>701.9</ele>
        <time>2015-03-27T13:00:07Z</time>
      </trkpt>
      <trkpt lat="48.54515" lon="7.16845">
        <ele>707.67</ele>
        <time>2015-03-27T13:00:24Z</time>
      </trkpt>
      <trkpt lat="48.54485" lon="7.16849">
        <ele>711.99</ele>
        <time>2015-03-27T13:00:35Z</time>
      </trkpt>
      <trkpt lat="48.54436" lon="7.16834">
        <ele>718.72</ele>
        <time>2015-03-27T13:00:48Z</time>
      </trkpt>
      <trkpt lat="48.54337" lon="7.16767">
        <ele>722.57</ele>
        <time>2015-03-27T13:01:09Z</time>
      </trkpt>
      <trkpt lat="48.54277" lon="7.16736">
        <ele>722.57</ele>
        <time>2015-03-27T13:01:25Z</time>
      </trkpt>
      <trkpt lat="48.54228" lon="7.16736">
        <ele>724.49</ele>
        <time>2015-03-27T13:01:39Z</time>
      </trkpt>
      <trkpt lat="48.54226" lon="7.16742">
        <ele>724.97</ele>
        <time>2015-03-27T13:01:40Z</time>
      </trkpt>
      <trkpt lat="48.54223" lon="7.16748">
        <ele>724.97</ele>
        <time>2015-03-27T13:01:41Z</time>
      </trkpt>
      <trkpt lat="48.54221" lon="7.16755">
        <ele>725.45</ele>
        <time>2015-03-27T13:01:42Z</time>
      </trkpt>
      <trkpt lat="48.5422" lon="7.16762">
        <ele>725.93</ele>
        <time>2015-03-27T13:01:43Z</time>
      </trkpt>
      <trkpt lat="48.54218" lon="7.16769">
        <ele>725.93</ele>
        <time>2015-03-27T13:01:44Z</time>
      </trkpt>
      <trkpt lat="48.5419" lon="7.1688">
        <ele>728.34</ele>
        <time>2015-03-27T13:02:03Z</time>
      </trkpt>
      <trkpt lat="48.54154" lon="7.1694">
        <ele>733.14</ele>
        <time>2015-03-27T13:02:19Z</time>
      </trkpt>
      <trkpt lat="48.54083" lon="7.16942">
        <ele>735.55</ele>
        <time>2015-03-27T13:02:34Z</time>
      </trkpt>
      <trkpt lat="48.54019" lon="7.16895">
        <ele>741.31</ele>
        <time>2015-03-27T13:02:51Z</time>
      </trkpt>
      <trkpt lat="48.53945" lon="7.16817">
        <ele>750.45</ele>
        <time>2015-03-27T13:03:12Z</time>
      </trkpt>
      <trkpt lat="48.5388" lon="7.16752">
        <ele>751.89</ele>
        <time>2015-03-27T13:03:30Z</time>
      </trkpt>
      <trkpt lat="48.53877" lon="7.16751">
        <ele>751.41</ele>
        <time>2015-03-27T13:03:31Z</time>
      </trkpt>
      <trkpt lat="48.53873" lon="7.16751">
        <ele>751.41</ele>
        <time>2015-03-27T13:03:32Z</time>
      </trkpt>
      <trkpt lat="48.53869" lon="7.16752">
        <ele>750.93</ele>
        <time>2015-03-27T13:03:33Z</time>
      </trkpt>
      <trkpt lat="48.53865" lon="7.16754">
        <ele>750.45</ele>
        <time>2015-03-27T13:03:34Z</time>
      </trkpt>
      <trkpt lat="48.53862" lon="7.16757">
        <ele>749.49</ele>
        <time>2015-03-27T13:03:35Z</time>
      </trkpt>
      <trkpt lat="48.53813" lon="7.16801">
        <ele>749.49</ele>
        <time>2015-03-27T13:03:50Z</time>
      </trkpt>
      <trkpt lat="48.53763" lon="7.16897">
        <ele>751.89</ele>
        <time>2015-03-27T13:04:10Z</time>
      </trkpt>
      <trkpt lat="48.53721" lon="7.16938">
        <ele>754.29</ele>
        <time>2015-03-27T13:04:25Z</time>
      </trkpt>
      <trkpt lat="48.53659" lon="7.16917">
        <ele>755.25</ele>
        <time>2015-03-27T13:04:40Z</time>
      </trkpt>
      <trkpt lat="48.53593" lon="7.16883">
        <ele>758.62</ele>
        <time>2015-03-27T13:04:58Z</time>
      </trkpt>
      <trkpt lat="48.53519" lon="7.16858">
        <ele>761.98</ele>
        <time>2015-03-27T13:05:17Z</time>
      </trkpt>
      <trkpt lat="48.53472" lon="7.16888">
        <ele>767.75</ele>
        <time>2015-03-27T13:05:32Z</time>
      </trkpt>
      <trkpt lat="48.53422" lon="7.16953">
        <ele>774.48</ele>
        <time>2015-03-27T13:05:49Z</time>
      </trkpt>
      <trkpt lat="48.5339" lon="7.17047">
        <ele>778.81</ele>
        <time>2015-03-27T13:06:07Z</time>
      </trkpt>
      <trkpt lat="48.53401" lon="7.17147">
        <ele>777.36</ele>
        <time>2015-03-27T13:06:24Z</time>
      </trkpt>
      <trkpt lat="48.53424" lon="7.1722">
        <ele>779.29</ele>
        <time>2015-03-27T13:06:38Z</time>
      </trkpt>
      <trkpt lat="48.53462" lon="7.17313">
        <ele>781.21</ele>
        <time>2015-03-27T13:06:57Z</time>
      </trkpt>
      <trkpt lat="48.53502" lon="7.1739">
        <ele>783.61</ele>
        <time>2015-03-27T13:07:15Z</time>
      </trkpt>
      <trkpt lat="48.53556" lon="7.1746">
        <ele>785.05</ele>
        <time>2015-03-27T13:07:34Z</time>
      </trkpt>
      <trkpt lat="48.53588" lon="7.17515">
        <ele>785.05</ele>
        <time>2015-03-27T13:07:47Z</time>
      </trkpt>
      <trkpt lat="48.53588" lon="7.17513">
        <ele>786.5</ele>
        <time>2015-03-27T13:07:52Z</time>
      </trkpt>
      <trkpt lat="48.53585" lon="7.17507">
        <ele>786.98</ele>
        <time>2015-03-27T13:07:53Z</time>
      </trkpt>
      <trkpt lat="48.53582" lon="7.17502">
        <ele>787.94</ele>
        <time>2015-03-27T13:07:54Z</time>
      </trkpt>
      <trkpt lat="48.53527" lon="7.17443">
        <ele>790.34</ele>
        <time>2015-03-27T13:08:09Z</time>
      </trkpt>
      <trkpt lat="48.5345" lon="7.17377">
        <ele>793.22</ele>
        <time>2015-03-27T13:08:28Z</time>
      </trkpt>
      <trkpt lat="48.5339" lon="7.17319">
        <ele>795.63</ele>
        <time>2015-03-27T13:08:44Z</time>
      </trkpt>
      <trkpt lat="48.53316" lon="7.17247">
        <ele>799.95</ele>
        <time>2015-03-27T13:09:03Z</time>
      </trkpt>
      <trkpt lat="48.53254" lon="7.17193">
        <ele>809.09</ele>
        <time>2015-03-27T13:09:20Z</time>
      </trkpt>
      <trkpt lat="48.53209" lon="7.17159">
        <ele>812.93</ele>
        <time>2015-03-27T13:09:31Z</time>
      </trkpt>
      <trkpt lat="48.53143" lon="7.17075">
        <ele>811.97</ele>
        <time>2015-03-27T13:09:45Z</time>
      </trkpt>
      <trkpt lat="48.53058" lon="7.16995">
        <ele>810.05</ele>
        <time>2015-03-27T13:09:57Z</time>
      </trkpt>
      <trkpt lat="48.52932" lon="7.16898">
        <ele>804.76</ele>
        <time>2015-03-27T13:10:11Z</time>
      </trkpt>
      <trkpt lat="48.5282" lon="7.16846">
        <ele>797.07</ele>
        <time>2015-03-27T13:10:23Z</time>
      </trkpt>
      <trkpt lat="48.52723" lon="7.16731">
        <ele>792.26</ele>
        <time>2015-03-27T13:10:37Z</time>
      </trkpt>
      <trkpt lat="48.52662" lon="7.16675">
        <ele>789.38</ele>
        <time>2015-03-27T13:10:49Z</time>
      </trkpt>
      <trkpt lat="48.52582" lon="7.16639">
        <ele>786.02</ele>
        <time>2015-03-27T13:11:06Z</time>
      </trkpt>
      <trkpt lat="48.52469" lon="7.16605">
        <ele>782.65</ele>
        <time>2015-03-27T13:11:25Z</time>
      </trkpt>
      <trkpt lat="48.52353" lon="7.16576">
        <ele>780.25</ele>
        <time>2015-03-27T13:11:41Z</time>
      </trkpt>
      <trkpt lat="48.52264" lon="7.16612">
        <ele>777.36</ele>
        <time>2015-03-27T13:11:54Z</time>
      </trkpt>
      <trkpt lat="48.5219" lon="7.16702">
        <ele>775.44</ele>
        <time>2015-03-27T13:12:06Z</time>
      </trkpt>
      <trkpt lat="48.52152" lon="7.16761">
        <ele>774.48</ele>
        <time>2015-03-27T13:12:13Z</time>
      </trkpt>
      <trkpt lat="48.52147" lon="7.16768">
        <ele>774</ele>
        <time>2015-03-27T13:12:14Z</time>
      </trkpt>
      <trkpt lat="48.52056" lon="7.16821">
        <ele>771.11</ele>
        <time>2015-03-27T13:12:27Z</time>
      </trkpt>
      <trkpt lat="48.51916" lon="7.16828">
        <ele>769.67</ele>
        <time>2015-03-27T13:12:43Z</time>
      </trkpt>
      <trkpt lat="48.51814" lon="7.1683">
        <ele>769.67</ele>
        <time>2015-03-27T13:12:56Z</time>
      </trkpt>
      <trkpt lat="48.51733" lon="7.16816">
        <ele>769.67</ele>
        <time>2015-03-27T13:13:07Z</time>
      </trkpt>
      <trkpt lat="48.5168" lon="7.16777">
        <ele>770.15</ele>
        <time>2015-03-27T13:13:18Z</time>
      </trkpt>
      <trkpt lat="48.51675" lon="7.16775">
        <ele>770.15</ele>
        <time>2015-03-27T13:13:19Z</time>
      </trkpt>
      <trkpt lat="48.51807" lon="7.16531">
        <ele>787.94</ele>
        <time>2015-03-27T13:13:23Z</time>
      </trkpt>
      <trkpt lat="48.51842" lon="7.16388">
        <ele>787.94</ele>
        <time>2015-03-27T13:13:35Z</time>
      </trkpt>
      <trkpt lat="48.51832" lon="7.16226">
        <ele>789.38</ele>
        <time>2015-03-27T13:13:47Z</time>
      </trkpt>
      <trkpt lat="48.51789" lon="7.16063">
        <ele>792.26</ele>
        <time>2015-03-27T13:14:01Z</time>
      </trkpt>
      <trkpt lat="48.5171" lon="7.15912">
        <ele>801.4</ele>
        <time>2015-03-27T13:14:17Z</time>
      </trkpt>
      <trkpt lat="48.51628" lon="7.15827">
        <ele>811.01</ele>
        <time>2015-03-27T13:14:32Z</time>
      </trkpt>
      <trkpt lat="48.51511" lon="7.15751">
        <ele>819.66</ele>
        <time>2015-03-27T13:14:52Z</time>
      </trkpt>
      <trkpt lat="48.51406" lon="7.1567">
        <ele>824.47</ele>
        <time>2015-03-27T13:15:10Z</time>
      </trkpt>
      <trkpt lat="48.513" lon="7.15567">
        <ele>826.87</ele>
        <time>2015-03-27T13:15:28Z</time>
      </trkpt>
      <trkpt lat="48.51244" lon="7.15526">
        <ele>822.55</ele>
        <time>2015-03-27T13:15:36Z</time>
      </trkpt>
      <trkpt lat="48.51178" lon="7.15442">
        <ele>821.1</ele>
        <time>2015-03-27T13:15:47Z</time>
      </trkpt>
      <trkpt lat="48.51172" lon="7.15437">
        <ele>821.1</ele>
        <time>2015-03-27T13:15:48Z</time>
      </trkpt>
      <trkpt lat="48.51166" lon="7.15433">
        <ele>821.1</ele>
        <time>2015-03-27T13:15:49Z</time>
      </trkpt>
      <trkpt lat="48.51047" lon="7.15388">
        <ele>800.44</ele>
        <time>2015-03-27T13:16:05Z</time>
      </trkpt>
      <trkpt lat="48.50969" lon="7.15307">
        <ele>797.07</ele>
        <time>2015-03-27T13:16:18Z</time>
      </trkpt>
      <trkpt lat="48.50854" lon="7.15172">
        <ele>788.9</ele>
        <time>2015-03-27T13:16:35Z</time>
      </trkpt>
      <trkpt lat="48.50802" lon="7.15087">
        <ele>783.61</ele>
        <time>2015-03-27T13:16:44Z</time>
      </trkpt>
      <trkpt lat="48.50799" lon="7.15074">
        <ele>782.65</ele>
        <time>2015-03-27T13:16:45Z</time>
      </trkpt>
      <trkpt lat="48.50781" lon="7.14896">
        <ele>773.52</ele>
        <time>2015-03-27T13:16:56Z</time>
      </trkpt>
      <trkpt lat="48.50772" lon="7.1473">
        <ele>764.39</ele>
        <time>2015-03-27T13:17:06Z</time>
      </trkpt>
      <trkpt lat="48.50773" lon="7.14714">
        <ele>763.9</ele>
        <time>2015-03-27T13:17:07Z</time>
      </trkpt>
      <trkpt lat="48.50774" lon="7.14651">
        <ele>761.98</ele>
        <time>2015-03-27T13:17:11Z</time>
      </trkpt>
      <trkpt lat="48.50769" lon="7.14637">
        <ele>761.5</ele>
        <time>2015-03-27T13:17:12Z</time>
      </trkpt>
      <trkpt lat="48.50762" lon="7.14624">
        <ele>761.02</ele>
        <time>2015-03-27T13:17:13Z</time>
      </trkpt>
      <trkpt lat="48.50753" lon="7.14616">
        <ele>760.54</ele>
        <time>2015-03-27T13:17:14Z</time>
      </trkpt>
      <trkpt lat="48.50745" lon="7.14611">
        <ele>759.58</ele>
        <time>2015-03-27T13:17:15Z</time>
      </trkpt>
      <trkpt lat="48.50737" lon="7.14613">
        <ele>758.14</ele>
        <time>2015-03-27T13:17:16Z</time>
      </trkpt>
      <trkpt lat="48.50729" lon="7.14619">
        <ele>756.69</ele>
        <time>2015-03-27T13:17:17Z</time>
      </trkpt>
      <trkpt lat="48.50722" lon="7.14624">
        <ele>755.73</ele>
        <time>2015-03-27T13:17:18Z</time>
      </trkpt>
      <trkpt lat="48.50716" lon="7.14633">
        <ele>754.29</ele>
        <time>2015-03-27T13:17:19Z</time>
      </trkpt>
      <trkpt lat="48.5071" lon="7.14644">
        <ele>753.33</ele>
        <time>2015-03-27T13:17:20Z</time>
      </trkpt>
      <trkpt lat="48.50705" lon="7.14656">
        <ele>752.37</ele>
        <time>2015-03-27T13:17:21Z</time>
      </trkpt>
      <trkpt lat="48.50699" lon="7.14668">
        <ele>751.89</ele>
        <time>2015-03-27T13:17:22Z</time>
      </trkpt>
      <trkpt lat="48.50681" lon="7.14711">
        <ele>748.52</ele>
        <time>2015-03-27T13:17:26Z</time>
      </trkpt>
      <trkpt lat="48.50593" lon="7.14794">
        <ele>738.91</ele>
        <time>2015-03-27T13:17:36Z</time>
      </trkpt>
      <trkpt lat="48.50457" lon="7.149">
        <ele>728.34</ele>
        <time>2015-03-27T13:17:48Z</time>
      </trkpt>
      <trkpt lat="48.50438" lon="7.14924">
        <ele>727.37</ele>
        <time>2015-03-27T13:17:50Z</time>
      </trkpt>
      <trkpt lat="48.50431" lon="7.14941">
        <ele>726.41</ele>
        <time>2015-03-27T13:17:51Z</time>
      </trkpt>
      <trkpt lat="48.50425" lon="7.1496">
        <ele>725.45</ele>
        <time>2015-03-27T13:17:52Z</time>
      </trkpt>
      <trkpt lat="48.50421" lon="7.14981">
        <ele>724.97</ele>
        <time>2015-03-27T13:17:53Z</time>
      </trkpt>
      <trkpt lat="48.50418" lon="7.15003">
        <ele>724.49</ele>
        <time>2015-03-27T13:17:54Z</time>
      </trkpt>
      <trkpt lat="48.50377" lon="7.15192">
        <ele>717.76</ele>
        <time>2015-03-27T13:18:03Z</time>
      </trkpt>
      <trkpt lat="48.5035" lon="7.15315">
        <ele>712.95</ele>
        <time>2015-03-27T13:18:09Z</time>
      </trkpt>
      <trkpt lat="48.50348" lon="7.15359">
        <ele>711.99</ele>
        <time>2015-03-27T13:18:11Z</time>
      </trkpt>
      <trkpt lat="48.50349" lon="7.15382">
        <ele>711.03</ele>
        <time>2015-03-27T13:18:12Z</time>
      </trkpt>
      <trkpt lat="48.50376" lon="7.1556">
        <ele>704.78</ele>
        <time>2015-03-27T13:18:20Z</time>
      </trkpt>
      <trkpt lat="48.50379" lon="7.15663">
        <ele>700.94</ele>
        <time>2015-03-27T13:18:25Z</time>
      </trkpt>
      <trkpt lat="48.50376" lon="7.15681">
        <ele>699.98</ele>
        <time>2015-03-27T13:18:26Z</time>
      </trkpt>
      <trkpt lat="48.50373" lon="7.15694">
        <ele>699.98</ele>
        <time>2015-03-27T13:18:27Z</time>
      </trkpt>
      <trkpt lat="48.50366" lon="7.15707">
        <ele>699.98</ele>
        <time>2015-03-27T13:18:28Z</time>
      </trkpt>
      <trkpt lat="48.50358" lon="7.15718">
        <ele>699.98</ele>
        <time>2015-03-27T13:18:29Z</time>
      </trkpt>
      <trkpt lat="48.50349" lon="7.15726">
        <ele>699.98</ele>
        <time>2015-03-27T13:18:30Z</time>
      </trkpt>
      <trkpt lat="48.50339" lon="7.1573">
        <ele>699.98</ele>
        <time>2015-03-27T13:18:31Z</time>
      </trkpt>
      <trkpt lat="48.50246" lon="7.15767">
        <ele>699.98</ele>
        <time>2015-03-27T13:18:38Z</time>
      </trkpt>
      <trkpt lat="48.50234" lon="7.15777">
        <ele>699.98</ele>
        <time>2015-03-27T13:18:39Z</time>
      </trkpt>
      <trkpt lat="48.50224" lon="7.15789">
        <ele>699.5</ele>
        <time>2015-03-27T13:18:40Z</time>
      </trkpt>
      <trkpt lat="48.50216" lon="7.15806">
        <ele>699.5</ele>
        <time>2015-03-27T13:18:41Z</time>
      </trkpt>
      <trkpt lat="48.50207" lon="7.15824">
        <ele>699.02</ele>
        <time>2015-03-27T13:18:42Z</time>
      </trkpt>
      <trkpt lat="48.50161" lon="7.15931">
        <ele>698.05</ele>
        <time>2015-03-27T13:18:48Z</time>
      </trkpt>
      <trkpt lat="48.50157" lon="7.15948">
        <ele>698.05</ele>
        <time>2015-03-27T13:18:49Z</time>
      </trkpt>
      <trkpt lat="48.50155" lon="7.15966">
        <ele>698.05</ele>
        <time>2015-03-27T13:18:50Z</time>
      </trkpt>
      <trkpt lat="48.50155" lon="7.15986">
        <ele>697.57</ele>
        <time>2015-03-27T13:18:51Z</time>
      </trkpt>
      <trkpt lat="48.50158" lon="7.16008">
        <ele>697.57</ele>
        <time>2015-03-27T13:18:52Z</time>
      </trkpt>
      <trkpt lat="48.50161" lon="7.16031">
        <ele>697.57</ele>
        <time>2015-03-27T13:18:53Z</time>
      </trkpt>
      <trkpt lat="48.50185" lon="7.1614">
        <ele>696.13</ele>
        <time>2015-03-27T13:18:58Z</time>
      </trkpt>
      <trkpt lat="48.50195" lon="7.16157">
        <ele>696.13</ele>
        <time>2015-03-27T13:18:59Z</time>
      </trkpt>
      <trkpt lat="48.50204" lon="7.16172">
        <ele>696.13</ele>
        <time>2015-03-27T13:19:00Z</time>
      </trkpt>
      <trkpt lat="48.50216" lon="7.162">
        <ele>696.13</ele>
        <time>2015-03-27T13:19:02Z</time>
      </trkpt>
      <trkpt lat="48.5022" lon="7.16225">
        <ele>696.13</ele>
        <time>2015-03-27T13:19:04Z</time>
      </trkpt>
      <trkpt lat="48.50223" lon="7.16236">
        <ele>696.13</ele>
        <time>2015-03-27T13:19:05Z</time>
      </trkpt>
      <trkpt lat="48.50226" lon="7.16246">
        <ele>696.13</ele>
        <time>2015-03-27T13:19:06Z</time>
      </trkpt>
      <trkpt lat="48.50228" lon="7.16252">
        <ele>696.13</ele>
        <time>2015-03-27T13:19:07Z</time>
      </trkpt>
      <trkpt lat="48.50252" lon="7.16296">
        <ele>696.13</ele>
        <time>2015-03-27T13:19:12Z</time>
      </trkpt>
      <trkpt lat="48.50199" lon="7.16241">
        <ele>696.13</ele>
        <time>2015-03-27T13:19:18Z</time>
      </trkpt>
      <trkpt lat="48.50176" lon="7.16218">
        <ele>696.13</ele>
        <time>2015-03-27T13:19:19Z</time>
      </trkpt>
      <trkpt lat="48.50155" lon="7.16196">
        <ele>696.13</ele>
        <time>2015-03-27T13:19:20Z</time>
      </trkpt>
      <trkpt lat="48.50146" lon="7.16185">
        <ele>696.13</ele>
        <time>2015-03-27T13:19:21Z</time>
      </trkpt>
      <trkpt lat="48.50135" lon="7.16174">
        <ele>696.13</ele>
        <time>2015-03-27T13:19:22Z</time>
      </trkpt>
      <trkpt lat="48.50124" lon="7.16162">
        <ele>696.13</ele>
        <time>2015-03-27T13:19:23Z</time>
      </trkpt>
      <trkpt lat="48.5009" lon="7.16129">
        <ele>696.13</ele>
        <time>2015-03-27T13:19:26Z</time>
      </trkpt>
      <trkpt lat="48.50077" lon="7.1612">
        <ele>696.13</ele>
        <time>2015-03-27T13:19:27Z</time>
      </trkpt>
      <trkpt lat="48.50024" lon="7.16094">
        <ele>695.65</ele>
        <time>2015-03-27T13:19:31Z</time>
      </trkpt>
      <trkpt lat="48.50009" lon="7.16092">
        <ele>695.65</ele>
        <time>2015-03-27T13:19:32Z</time>
      </trkpt>
      <trkpt lat="48.49992" lon="7.16092">
        <ele>695.65</ele>
        <time>2015-03-27T13:19:33Z</time>
      </trkpt>
      <trkpt lat="48.49849" lon="7.16123">
        <ele>692.77</ele>
        <time>2015-03-27T13:19:41Z</time>
      </trkpt>
      <trkpt lat="48.49803" lon="7.16145">
        <ele>691.81</ele>
        <time>2015-03-27T13:19:44Z</time>
      </trkpt>
      <trkpt lat="48.49791" lon="7.16156">
        <ele>691.33</ele>
        <time>2015-03-27T13:19:45Z</time>
      </trkpt>
      <trkpt lat="48.49775" lon="7.16165">
        <ele>691.33</ele>
        <time>2015-03-27T13:19:46Z</time>
      </trkpt>
      <trkpt lat="48.497" lon="7.16305">
        <ele>687.48</ele>
        <time>2015-03-27T13:19:53Z</time>
      </trkpt>
      <trkpt lat="48.4965" lon="7.16415">
        <ele>684.12</ele>
        <time>2015-03-27T13:19:58Z</time>
      </trkpt>
      <trkpt lat="48.49646" lon="7.16435">
        <ele>683.63</ele>
        <time>2015-03-27T13:19:59Z</time>
      </trkpt>
      <trkpt lat="48.49641" lon="7.16453">
        <ele>683.15</ele>
        <time>2015-03-27T13:20:00Z</time>
      </trkpt>
      <trkpt lat="48.49641" lon="7.16473">
        <ele>682.67</ele>
        <time>2015-03-27T13:20:01Z</time>
      </trkpt>
      <trkpt lat="48.49641" lon="7.16493">
        <ele>682.19</ele>
        <time>2015-03-27T13:20:02Z</time>
      </trkpt>
      <trkpt lat="48.49649" lon="7.16688">
        <ele>675.94</ele>
        <time>2015-03-27T13:20:11Z</time>
      </trkpt>
      <trkpt lat="48.49681" lon="7.16904">
        <ele>671.62</ele>
        <time>2015-03-27T13:20:21Z</time>
      </trkpt>
      <trkpt lat="48.49686" lon="7.16924">
        <ele>671.14</ele>
        <time>2015-03-27T13:20:22Z</time>
      </trkpt>
      <trkpt lat="48.49692" lon="7.16943">
        <ele>670.66</ele>
        <time>2015-03-27T13:20:23Z</time>
      </trkpt>
      <trkpt lat="48.49699" lon="7.16961">
        <ele>670.18</ele>
        <time>2015-03-27T13:20:24Z</time>
      </trkpt>
      <trkpt lat="48.49787" lon="7.17141">
        <ele>665.37</ele>
        <time>2015-03-27T13:20:35Z</time>
      </trkpt>
      <trkpt lat="48.49846" lon="7.17228">
        <ele>663.93</ele>
        <time>2015-03-27T13:20:42Z</time>
      </trkpt>
      <trkpt lat="48.49851" lon="7.17238">
        <ele>663.93</ele>
        <time>2015-03-27T13:20:43Z</time>
      </trkpt>
      <trkpt lat="48.49853" lon="7.17248">
        <ele>662.97</ele>
        <time>2015-03-27T13:20:44Z</time>
      </trkpt>
      <trkpt lat="48.4986" lon="7.17268">
        <ele>660.56</ele>
        <time>2015-03-27T13:20:50Z</time>
      </trkpt>
      <trkpt lat="48.49856" lon="7.17262">
        <ele>660.56</ele>
        <time>2015-03-27T13:20:53Z</time>
      </trkpt>
      <trkpt lat="48.49815" lon="7.17207">
        <ele>660.08</ele>
        <time>2015-03-27T13:21:02Z</time>
      </trkpt>
      <trkpt lat="48.49723" lon="7.17113">
        <ele>659.12</ele>
        <time>2015-03-27T13:21:12Z</time>
      </trkpt>
      <trkpt lat="48.4957" lon="7.16923">
        <ele>658.64</ele>
        <time>2015-03-27T13:21:23Z</time>
      </trkpt>
      <trkpt lat="48.49451" lon="7.16613">
        <ele>653.83</ele>
        <time>2015-03-27T13:21:37Z</time>
      </trkpt>
      <trkpt lat="48.49373" lon="7.16359">
        <ele>649.99</ele>
        <time>2015-03-27T13:21:48Z</time>
      </trkpt>
      <trkpt lat="48.49316" lon="7.16234">
        <ele>647.59</ele>
        <time>2015-03-27T13:21:55Z</time>
      </trkpt>
      <trkpt lat="48.49303" lon="7.16229">
        <ele>647.1</ele>
        <time>2015-03-27T13:21:56Z</time>
      </trkpt>
      <trkpt lat="48.49288" lon="7.16227">
        <ele>646.62</ele>
        <time>2015-03-27T13:21:57Z</time>
      </trkpt>
      <trkpt lat="48.49273" lon="7.16229">
        <ele>645.66</ele>
        <time>2015-03-27T13:21:58Z</time>
      </trkpt>
      <trkpt lat="48.49259" lon="7.16232">
        <ele>645.18</ele>
        <time>2015-03-27T13:21:59Z</time>
      </trkpt>
      <trkpt lat="48.49187" lon="7.16241">
        <ele>641.34</ele>
        <time>2015-03-27T13:22:04Z</time>
      </trkpt>
      <trkpt lat="48.49172" lon="7.16237">
        <ele>640.38</ele>
        <time>2015-03-27T13:22:05Z</time>
      </trkpt>
      <trkpt lat="48.4907" lon="7.16204">
        <ele>634.61</ele>
        <time>2015-03-27T13:22:12Z</time>
      </trkpt>
      <trkpt lat="48.49057" lon="7.16204">
        <ele>633.65</ele>
        <time>2015-03-27T13:22:13Z</time>
      </trkpt>
      <trkpt lat="48.49043" lon="7.16208">
        <ele>633.17</ele>
        <time>2015-03-27T13:22:14Z</time>
      </trkpt>
      <trkpt lat="48.49031" lon="7.16214">
        <ele>632.68</ele>
        <time>2015-03-27T13:22:15Z</time>
      </trkpt>
      <trkpt lat="48.49019" lon="7.16222">
        <ele>632.68</ele>
        <time>2015-03-27T13:22:16Z</time>
      </trkpt>
      <trkpt lat="48.49007" lon="7.1623">
        <ele>632.2</ele>
        <time>2015-03-27T13:22:17Z</time>
      </trkpt>
      <trkpt lat="48.48879" lon="7.16335">
        <ele>629.8</ele>
        <time>2015-03-27T13:22:27Z</time>
      </trkpt>
      <trkpt lat="48.48765" lon="7.16428">
        <ele>626.92</ele>
        <time>2015-03-27T13:22:36Z</time>
      </trkpt>
      <trkpt lat="48.48755" lon="7.16442">
        <ele>626.44</ele>
        <time>2015-03-27T13:22:37Z</time>
      </trkpt>
      <trkpt lat="48.48748" lon="7.16458">
        <ele>626.44</ele>
        <time>2015-03-27T13:22:38Z</time>
      </trkpt>
      <trkpt lat="48.48735" lon="7.16497">
        <ele>625.96</ele>
        <time>2015-03-27T13:22:40Z</time>
      </trkpt>
      <trkpt lat="48.48718" lon="7.1653">
        <ele>624.99</ele>
        <time>2015-03-27T13:22:42Z</time>
      </trkpt>
      <trkpt lat="48.48706" lon="7.16544">
        <ele>624.51</ele>
        <time>2015-03-27T13:22:43Z</time>
      </trkpt>
      <trkpt lat="48.48693" lon="7.16556">
        <ele>624.03</ele>
        <time>2015-03-27T13:22:44Z</time>
      </trkpt>
      <trkpt lat="48.48658" lon="7.16587">
        <ele>622.59</ele>
        <time>2015-03-27T13:22:47Z</time>
      </trkpt>
      <trkpt lat="48.48649" lon="7.166">
        <ele>622.11</ele>
        <time>2015-03-27T13:22:48Z</time>
      </trkpt>
      <trkpt lat="48.48642" lon="7.16615">
        <ele>621.15</ele>
        <time>2015-03-27T13:22:49Z</time>
      </trkpt>
      <trkpt lat="48.48638" lon="7.16634">
        <ele>620.19</ele>
        <time>2015-03-27T13:22:50Z</time>
      </trkpt>
      <trkpt lat="48.48634" lon="7.16653">
        <ele>619.71</ele>
        <time>2015-03-27T13:22:51Z</time>
      </trkpt>
      <trkpt lat="48.48568" lon="7.16833">
        <ele>612.02</ele>
        <time>2015-03-27T13:23:00Z</time>
      </trkpt>
      <trkpt lat="48.48545" lon="7.16894">
        <ele>610.09</ele>
        <time>2015-03-27T13:23:03Z</time>
      </trkpt>
      <trkpt lat="48.4854" lon="7.16916">
        <ele>609.61</ele>
        <time>2015-03-27T13:23:04Z</time>
      </trkpt>
      <trkpt lat="48.48536" lon="7.16939">
        <ele>608.65</ele>
        <time>2015-03-27T13:23:05Z</time>
      </trkpt>
      <trkpt lat="48.4853" lon="7.17107">
        <ele>600.96</ele>
        <time>2015-03-27T13:23:13Z</time>
      </trkpt>
      <trkpt lat="48.48513" lon="7.17228">
        <ele>594.23</ele>
        <time>2015-03-27T13:23:20Z</time>
      </trkpt>
      <trkpt lat="48.48507" lon="7.17242">
        <ele>593.75</ele>
        <time>2015-03-27T13:23:21Z</time>
      </trkpt>
      <trkpt lat="48.48499" lon="7.17254">
        <ele>592.79</ele>
        <time>2015-03-27T13:23:22Z</time>
      </trkpt>
      <trkpt lat="48.48489" lon="7.17266">
        <ele>592.31</ele>
        <time>2015-03-27T13:23:23Z</time>
      </trkpt>
      <trkpt lat="48.48479" lon="7.17276">
        <ele>591.83</ele>
        <time>2015-03-27T13:23:24Z</time>
      </trkpt>
      <trkpt lat="48.48468" lon="7.17286">
        <ele>590.87</ele>
        <time>2015-03-27T13:23:25Z</time>
      </trkpt>
      <trkpt lat="48.48458" lon="7.17299">
        <ele>589.43</ele>
        <time>2015-03-27T13:23:26Z</time>
      </trkpt>
      <trkpt lat="48.4845" lon="7.17315">
        <ele>587.98</ele>
        <time>2015-03-27T13:23:27Z</time>
      </trkpt>
      <trkpt lat="48.48442" lon="7.17333">
        <ele>586.06</ele>
        <time>2015-03-27T13:23:28Z</time>
      </trkpt>
      <trkpt lat="48.48322" lon="7.17535">
        <ele>556.74</ele>
        <time>2015-03-27T13:23:39Z</time>
      </trkpt>
      <trkpt lat="48.48319" lon="7.17553">
        <ele>555.3</ele>
        <time>2015-03-27T13:23:40Z</time>
      </trkpt>
      <trkpt lat="48.48319" lon="7.1757">
        <ele>554.34</ele>
        <time>2015-03-27T13:23:41Z</time>
      </trkpt>
      <trkpt lat="48.48322" lon="7.17587">
        <ele>553.38</ele>
        <time>2015-03-27T13:23:42Z</time>
      </trkpt>
      <trkpt lat="48.48321" lon="7.17602">
        <ele>551.45</ele>
        <time>2015-03-27T13:23:43Z</time>
      </trkpt>
      <trkpt lat="48.48323" lon="7.17615">
        <ele>549.05</ele>
        <time>2015-03-27T13:23:44Z</time>
      </trkpt>
      <trkpt lat="48.48328" lon="7.17627">
        <ele>547.13</ele>
        <time>2015-03-27T13:23:45Z</time>
      </trkpt>
      <trkpt lat="48.48335" lon="7.17639">
        <ele>545.69</ele>
        <time>2015-03-27T13:23:46Z</time>
      </trkpt>
      <trkpt lat="48.48343" lon="7.1765">
        <ele>543.76</ele>
        <time>2015-03-27T13:23:47Z</time>
      </trkpt>
      <trkpt lat="48.48391" lon="7.17727">
        <ele>535.11</ele>
        <time>2015-03-27T13:23:54Z</time>
      </trkpt>
      <trkpt lat="48.48397" lon="7.1774">
        <ele>533.67</ele>
        <time>2015-03-27T13:23:55Z</time>
      </trkpt>
      <trkpt lat="48.48403" lon="7.17756">
        <ele>531.75</ele>
        <time>2015-03-27T13:23:56Z</time>
      </trkpt>
      <trkpt lat="48.48408" lon="7.1777">
        <ele>530.3</ele>
        <time>2015-03-27T13:23:57Z</time>
      </trkpt>
      <trkpt lat="48.48411" lon="7.17785">
        <ele>528.86</ele>
        <time>2015-03-27T13:23:58Z</time>
      </trkpt>
      <trkpt lat="48.48413" lon="7.17799">
        <ele>527.42</ele>
        <time>2015-03-27T13:23:59Z</time>
      </trkpt>
      <trkpt lat="48.48416" lon="7.17814">
        <ele>526.46</ele>
        <time>2015-03-27T13:24:00Z</time>
      </trkpt>
      <trkpt lat="48.48431" lon="7.17982">
        <ele>516.37</ele>
        <time>2015-03-27T13:24:13Z</time>
      </trkpt>
      <trkpt lat="48.48428" lon="7.18077">
        <ele>509.16</ele>
        <time>2015-03-27T13:24:20Z</time>
      </trkpt>
      <trkpt lat="48.4843" lon="7.18092">
        <ele>507.71</ele>
        <time>2015-03-27T13:24:21Z</time>
      </trkpt>
      <trkpt lat="48.48435" lon="7.18124">
        <ele>504.35</ele>
        <time>2015-03-27T13:24:23Z</time>
      </trkpt>
      <trkpt lat="48.48435" lon="7.18141">
        <ele>501.95</ele>
        <time>2015-03-27T13:24:24Z</time>
      </trkpt>
      <trkpt lat="48.48423" lon="7.18286">
        <ele>489.93</ele>
        <time>2015-03-27T13:24:33Z</time>
      </trkpt>
      <trkpt lat="48.48423" lon="7.18302">
        <ele>488.49</ele>
        <time>2015-03-27T13:24:34Z</time>
      </trkpt>
      <trkpt lat="48.48429" lon="7.18473">
        <ele>476.95</ele>
        <time>2015-03-27T13:24:46Z</time>
      </trkpt>
      <trkpt lat="48.48409" lon="7.18755">
        <ele>448.59</ele>
        <time>2015-03-27T13:25:05Z</time>
      </trkpt>
      <trkpt lat="48.48381" lon="7.18952">
        <ele>437.06</ele>
        <time>2015-03-27T13:25:18Z</time>
      </trkpt>
      <trkpt lat="48.48351" lon="7.19141">
        <ele>426.96</ele>
        <time>2015-03-27T13:25:30Z</time>
      </trkpt>
      <trkpt lat="48.48327" lon="7.19297">
        <ele>420.23</ele>
        <time>2015-03-27T13:25:39Z</time>
      </trkpt>
      <trkpt lat="48.4832" lon="7.19313">
        <ele>419.27</ele>
        <time>2015-03-27T13:25:40Z</time>
      </trkpt>
      <trkpt lat="48.48288" lon="7.19374">
        <ele>415.43</ele>
        <time>2015-03-27T13:25:44Z</time>
      </trkpt>
      <trkpt lat="48.48282" lon="7.19389">
        <ele>414.47</ele>
        <time>2015-03-27T13:25:45Z</time>
      </trkpt>
      <trkpt lat="48.48277" lon="7.19405">
        <ele>413.5</ele>
        <time>2015-03-27T13:25:46Z</time>
      </trkpt>
      <trkpt lat="48.48251" lon="7.19574">
        <ele>406.29</ele>
        <time>2015-03-27T13:25:57Z</time>
      </trkpt>
      <trkpt lat="48.48269" lon="7.19715">
        <ele>401.97</ele>
        <time>2015-03-27T13:26:05Z</time>
      </trkpt>
      <trkpt lat="48.483" lon="7.19929">
        <ele>399.57</ele>
        <time>2015-03-27T13:26:17Z</time>
      </trkpt>
      <trkpt lat="48.4831" lon="7.20013">
        <ele>399.08</ele>
        <time>2015-03-27T13:26:22Z</time>
      </trkpt>
      <trkpt lat="48.48311" lon="7.2003">
        <ele>399.08</ele>
        <time>2015-03-27T13:26:23Z</time>
      </trkpt>
      <trkpt lat="48.48285" lon="7.20196">
        <ele>396.68</ele>
        <time>2015-03-27T13:26:33Z</time>
      </trkpt>
      <trkpt lat="48.48252" lon="7.20394">
        <ele>391.87</ele>
        <time>2015-03-27T13:26:45Z</time>
      </trkpt>
      <trkpt lat="48.48201" lon="7.20648">
        <ele>384.18</ele>
        <time>2015-03-27T13:27:01Z</time>
      </trkpt>
      <trkpt lat="48.48195" lon="7.2068">
        <ele>382.74</ele>
        <time>2015-03-27T13:27:03Z</time>
      </trkpt>
      <trkpt lat="48.48191" lon="7.20695">
        <ele>382.26</ele>
        <time>2015-03-27T13:27:04Z</time>
      </trkpt>
      <trkpt lat="48.48132" lon="7.20874">
        <ele>374.57</ele>
        <time>2015-03-27T13:27:16Z</time>
      </trkpt>
      <trkpt lat="48.48079" lon="7.21051">
        <ele>363.04</ele>
        <time>2015-03-27T13:27:28Z</time>
      </trkpt>
      <trkpt lat="48.48072" lon="7.21063">
        <ele>362.55</ele>
        <time>2015-03-27T13:27:29Z</time>
      </trkpt>
      <trkpt lat="48.48064" lon="7.21071">
        <ele>361.59</ele>
        <time>2015-03-27T13:27:30Z</time>
      </trkpt>
      <trkpt lat="48.48054" lon="7.21076">
        <ele>360.63</ele>
        <time>2015-03-27T13:27:31Z</time>
      </trkpt>
      <trkpt lat="48.48044" lon="7.21077">
        <ele>360.15</ele>
        <time>2015-03-27T13:27:32Z</time>
      </trkpt>
      <trkpt lat="48.48034" lon="7.21078">
        <ele>359.19</ele>
        <time>2015-03-27T13:27:33Z</time>
      </trkpt>
      <trkpt lat="48.48023" lon="7.2108">
        <ele>358.71</ele>
        <time>2015-03-27T13:27:34Z</time>
      </trkpt>
      <trkpt lat="48.48012" lon="7.21083">
        <ele>357.75</ele>
        <time>2015-03-27T13:27:35Z</time>
      </trkpt>
      <trkpt lat="48.48002" lon="7.21088">
        <ele>357.75</ele>
        <time>2015-03-27T13:27:36Z</time>
      </trkpt>
      <trkpt lat="48.47992" lon="7.21096">
        <ele>356.79</ele>
        <time>2015-03-27T13:27:37Z</time>
      </trkpt>
      <trkpt lat="48.47983" lon="7.21106">
        <ele>356.31</ele>
        <time>2015-03-27T13:27:38Z</time>
      </trkpt>
      <trkpt lat="48.47976" lon="7.21119">
        <ele>355.34</ele>
        <time>2015-03-27T13:27:39Z</time>
      </trkpt>
      <trkpt lat="48.47968" lon="7.21132">
        <ele>354.38</ele>
        <time>2015-03-27T13:27:40Z</time>
      </trkpt>
      <trkpt lat="48.47902" lon="7.2122">
        <ele>348.62</ele>
        <time>2015-03-27T13:27:48Z</time>
      </trkpt>
      <trkpt lat="48.47893" lon="7.21227">
        <ele>347.65</ele>
        <time>2015-03-27T13:27:49Z</time>
      </trkpt>
      <trkpt lat="48.47883" lon="7.21233">
        <ele>347.17</ele>
        <time>2015-03-27T13:27:50Z</time>
      </trkpt>
      <trkpt lat="48.47874" lon="7.21237">
        <ele>346.21</ele>
        <time>2015-03-27T13:27:51Z</time>
      </trkpt>
      <trkpt lat="48.47865" lon="7.21241">
        <ele>345.73</ele>
        <time>2015-03-27T13:27:52Z</time>
      </trkpt>
      <trkpt lat="48.47715" lon="7.21271">
        <ele>340.44</ele>
        <time>2015-03-27T13:28:08Z</time>
      </trkpt>
      <trkpt lat="48.47655" lon="7.21275">
        <ele>339</ele>
        <time>2015-03-27T13:28:15Z</time>
      </trkpt>
      <trkpt lat="48.47648" lon="7.21279">
        <ele>339</ele>
        <time>2015-03-27T13:28:16Z</time>
      </trkpt>
      <trkpt lat="48.47641" lon="7.21285">
        <ele>339</ele>
        <time>2015-03-27T13:28:17Z</time>
      </trkpt>
      <trkpt lat="48.47635" lon="7.21292">
        <ele>339</ele>
        <time>2015-03-27T13:28:18Z</time>
      </trkpt>
      <trkpt lat="48.4763" lon="7.21301">
        <ele>339</ele>
        <time>2015-03-27T13:28:19Z</time>
      </trkpt>
      <trkpt lat="48.47626" lon="7.21312">
        <ele>339</ele>
        <time>2015-03-27T13:28:20Z</time>
      </trkpt>
      <trkpt lat="48.47623" lon="7.21323">
        <ele>339</ele>
        <time>2015-03-27T13:28:21Z</time>
      </trkpt>
      <trkpt lat="48.4762" lon="7.21335">
        <ele>339</ele>
        <time>2015-03-27T13:28:22Z</time>
      </trkpt>
      <trkpt lat="48.47611" lon="7.21474">
        <ele>337.08</ele>
        <time>2015-03-27T13:28:34Z</time>
      </trkpt>
      <trkpt lat="48.47612" lon="7.21482">
        <ele>336.6</ele>
        <time>2015-03-27T13:28:35Z</time>
      </trkpt>
      <trkpt lat="48.47615" lon="7.21488">
        <ele>336.12</ele>
        <time>2015-03-27T13:28:36Z</time>
      </trkpt>
      <trkpt lat="48.4762" lon="7.21494">
        <ele>335.64</ele>
        <time>2015-03-27T13:28:37Z</time>
      </trkpt>
      <trkpt lat="48.47627" lon="7.21498">
        <ele>335.16</ele>
        <time>2015-03-27T13:28:38Z</time>
      </trkpt>
      <trkpt lat="48.47699" lon="7.21468">
        <ele>317.37</ele>
        <time>2015-03-27T13:28:39Z</time>
      </trkpt>
      <trkpt lat="48.47707" lon="7.21474">
        <ele>317.85</ele>
        <time>2015-03-27T13:28:40Z</time>
      </trkpt>
      <trkpt lat="48.47725" lon="7.21484">
        <ele>319.3</ele>
        <time>2015-03-27T13:28:42Z</time>
      </trkpt>
      <trkpt lat="48.47734" lon="7.21493">
        <ele>320.26</ele>
        <time>2015-03-27T13:28:43Z</time>
      </trkpt>
      <trkpt lat="48.47743" lon="7.21503">
        <ele>320.74</ele>
        <time>2015-03-27T13:28:44Z</time>
      </trkpt>
      <trkpt lat="48.47752" lon="7.21516">
        <ele>321.7</ele>
        <time>2015-03-27T13:28:45Z</time>
      </trkpt>
      <trkpt lat="48.47759" lon="7.2153">
        <ele>322.66</ele>
        <time>2015-03-27T13:28:46Z</time>
      </trkpt>
      <trkpt lat="48.47766" lon="7.21544">
        <ele>323.62</ele>
        <time>2015-03-27T13:28:47Z</time>
      </trkpt>
      <trkpt lat="48.47771" lon="7.21558">
        <ele>324.1</ele>
        <time>2015-03-27T13:28:48Z</time>
      </trkpt>
      <trkpt lat="48.47774" lon="7.21572">
        <ele>324.58</ele>
        <time>2015-03-27T13:28:49Z</time>
      </trkpt>
      <trkpt lat="48.47777" lon="7.21586">
        <ele>324.58</ele>
        <time>2015-03-27T13:28:50Z</time>
      </trkpt>
      <trkpt lat="48.47776" lon="7.21602">
        <ele>322.66</ele>
        <time>2015-03-27T13:28:51Z</time>
      </trkpt>
      <trkpt lat="48.47776" lon="7.21618">
        <ele>320.74</ele>
        <time>2015-03-27T13:28:52Z</time>
      </trkpt>
      <trkpt lat="48.4778" lon="7.21758">
        <ele>322.66</ele>
        <time>2015-03-27T13:29:03Z</time>
      </trkpt>
      <trkpt lat="48.47783" lon="7.21768">
        <ele>322.18</ele>
        <time>2015-03-27T13:29:04Z</time>
      </trkpt>
      <trkpt lat="48.47786" lon="7.21776">
        <ele>322.18</ele>
        <time>2015-03-27T13:29:05Z</time>
      </trkpt>
      <trkpt lat="48.4779" lon="7.21784">
        <ele>322.18</ele>
        <time>2015-03-27T13:29:06Z</time>
      </trkpt>
      <trkpt lat="48.47794" lon="7.21792">
        <ele>322.18</ele>
        <time>2015-03-27T13:29:07Z</time>
      </trkpt>
      <trkpt lat="48.47874" lon="7.21916">
        <ele>318.81</ele>
        <time>2015-03-27T13:29:22Z</time>
      </trkpt>
      <trkpt lat="48.47926" lon="7.2202">
        <ele>319.3</ele>
        <time>2015-03-27T13:29:34Z</time>
      </trkpt>
      <trkpt lat="48.47931" lon="7.22027">
        <ele>319.3</ele>
        <time>2015-03-27T13:29:35Z</time>
      </trkpt>
      <trkpt lat="48.47936" lon="7.22032">
        <ele>319.78</ele>
        <time>2015-03-27T13:29:36Z</time>
      </trkpt>
      <trkpt lat="48.48026" lon="7.22111">
        <ele>316.89</ele>
        <time>2015-03-27T13:29:51Z</time>
      </trkpt>
      <trkpt lat="48.48115" lon="7.22164">
        <ele>314.01</ele>
        <time>2015-03-27T13:30:04Z</time>
      </trkpt>
      <trkpt lat="48.48121" lon="7.22168">
        <ele>314.01</ele>
        <time>2015-03-27T13:30:05Z</time>
      </trkpt>
      <trkpt lat="48.48126" lon="7.22173">
        <ele>313.53</ele>
        <time>2015-03-27T13:30:06Z</time>
      </trkpt>
      <trkpt lat="48.48131" lon="7.22179">
        <ele>313.53</ele>
        <time>2015-03-27T13:30:07Z</time>
      </trkpt>
      <trkpt lat="48.48135" lon="7.22187">
        <ele>313.53</ele>
        <time>2015-03-27T13:30:08Z</time>
      </trkpt>
      <trkpt lat="48.48139" lon="7.22195">
        <ele>314.01</ele>
        <time>2015-03-27T13:30:09Z</time>
      </trkpt>
      <trkpt lat="48.48187" lon="7.22331">
        <ele>314.49</ele>
        <time>2015-03-27T13:30:25Z</time>
      </trkpt>
      <trkpt lat="48.48189" lon="7.2234">
        <ele>314.97</ele>
        <time>2015-03-27T13:30:26Z</time>
      </trkpt>
      <trkpt lat="48.48189" lon="7.22349">
        <ele>314.97</ele>
        <time>2015-03-27T13:30:27Z</time>
      </trkpt>
      <trkpt lat="48.48185" lon="7.2248">
        <ele>315.93</ele>
        <time>2015-03-27T13:30:42Z</time>
      </trkpt>
      <trkpt lat="48.48155" lon="7.22644">
        <ele>319.78</ele>
        <time>2015-03-27T13:31:02Z</time>
      </trkpt>
      <trkpt lat="48.48119" lon="7.22796">
        <ele>330.83</ele>
        <time>2015-03-27T13:31:22Z</time>
      </trkpt>
      <trkpt lat="48.48099" lon="7.22867">
        <ele>333.23</ele>
        <time>2015-03-27T13:31:31Z</time>
      </trkpt>
      <trkpt lat="48.48098" lon="7.22875">
        <ele>333.71</ele>
        <time>2015-03-27T13:31:32Z</time>
      </trkpt>
      <trkpt lat="48.48099" lon="7.22882">
        <ele>333.71</ele>
        <time>2015-03-27T13:31:33Z</time>
      </trkpt>
      <trkpt lat="48.48101" lon="7.22888">
        <ele>333.71</ele>
        <time>2015-03-27T13:31:34Z</time>
      </trkpt>
      <trkpt lat="48.48105" lon="7.22892">
        <ele>333.71</ele>
        <time>2015-03-27T13:31:35Z</time>
      </trkpt>
      <trkpt lat="48.48109" lon="7.22896">
        <ele>334.2</ele>
        <time>2015-03-27T13:31:36Z</time>
      </trkpt>
      <trkpt lat="48.48115" lon="7.22899">
        <ele>334.2</ele>
        <time>2015-03-27T13:31:37Z</time>
      </trkpt>
      <trkpt lat="48.48121" lon="7.22902">
        <ele>334.2</ele>
        <time>2015-03-27T13:31:38Z</time>
      </trkpt>
      <trkpt lat="48.48133" lon="7.22908">
        <ele>334.2</ele>
        <time>2015-03-27T13:31:40Z</time>
      </trkpt>
      <trkpt lat="48.48197" lon="7.2298">
        <ele>333.23</ele>
        <time>2015-03-27T13:31:51Z</time>
      </trkpt>
      <trkpt lat="48.48295" lon="7.23107">
        <ele>330.35</ele>
        <time>2015-03-27T13:32:06Z</time>
      </trkpt>
      <trkpt lat="48.48426" lon="7.23296">
        <ele>325.06</ele>
        <time>2015-03-27T13:32:24Z</time>
      </trkpt>
      <trkpt lat="48.48447" lon="7.23332">
        <ele>324.1</ele>
        <time>2015-03-27T13:32:27Z</time>
      </trkpt>
      <trkpt lat="48.48454" lon="7.23347">
        <ele>324.1</ele>
        <time>2015-03-27T13:32:28Z</time>
      </trkpt>
      <trkpt lat="48.48459" lon="7.23362">
        <ele>323.62</ele>
        <time>2015-03-27T13:32:29Z</time>
      </trkpt>
      <trkpt lat="48.48464" lon="7.23379">
        <ele>323.62</ele>
        <time>2015-03-27T13:32:30Z</time>
      </trkpt>
      <trkpt lat="48.48467" lon="7.23397">
        <ele>323.14</ele>
        <time>2015-03-27T13:32:31Z</time>
      </trkpt>
      <trkpt lat="48.48469" lon="7.23416">
        <ele>323.14</ele>
        <time>2015-03-27T13:32:32Z</time>
      </trkpt>
      <trkpt lat="48.48469" lon="7.23435">
        <ele>322.66</ele>
        <time>2015-03-27T13:32:33Z</time>
      </trkpt>
      <trkpt lat="48.48472" lon="7.23694">
        <ele>316.89</ele>
        <time>2015-03-27T13:32:47Z</time>
      </trkpt>
      <trkpt lat="48.48482" lon="7.23869">
        <ele>314.01</ele>
        <time>2015-03-27T13:32:59Z</time>
      </trkpt>
      <trkpt lat="48.48507" lon="7.24034">
        <ele>310.64</ele>
        <time>2015-03-27T13:33:12Z</time>
      </trkpt>
      <trkpt lat="48.48567" lon="7.24196">
        <ele>307.76</ele>
        <time>2015-03-27T13:33:28Z</time>
      </trkpt>
      <trkpt lat="48.4865" lon="7.24373">
        <ele>304.88</ele>
        <time>2015-03-27T13:33:47Z</time>
      </trkpt>
      <trkpt lat="48.48753" lon="7.24516">
        <ele>303.43</ele>
        <time>2015-03-27T13:34:05Z</time>
      </trkpt>
      <trkpt lat="48.48807" lon="7.24617">
        <ele>306.8</ele>
        <time>2015-03-27T13:34:20Z</time>
      </trkpt>
      <trkpt lat="48.48865" lon="7.24737">
        <ele>308.24</ele>
        <time>2015-03-27T13:34:37Z</time>
      </trkpt>
      <trkpt lat="48.48939" lon="7.24895">
        <ele>310.16</ele>
        <time>2015-03-27T13:34:55Z</time>
      </trkpt>
      <trkpt lat="48.49031" lon="7.25056">
        <ele>310.16</ele>
        <time>2015-03-27T13:35:13Z</time>
      </trkpt>
      <trkpt lat="48.49137" lon="7.252">
        <ele>308.72</ele>
        <time>2015-03-27T13:35:29Z</time>
      </trkpt>
      <trkpt lat="48.49213" lon="7.25369">
        <ele>307.76</ele>
        <time>2015-03-27T13:35:44Z</time>
      </trkpt>
      <trkpt lat="48.49297" lon="7.25515">
        <ele>310.16</ele>
        <time>2015-03-27T13:36:01Z</time>
      </trkpt>
      <trkpt lat="48.49383" lon="7.25648">
        <ele>314.49</ele>
        <time>2015-03-27T13:36:19Z</time>
      </trkpt>
      <trkpt lat="48.49463" lon="7.25783">
        <ele>314.97</ele>
        <time>2015-03-27T13:36:35Z</time>
      </trkpt>
      <trkpt lat="48.49535" lon="7.25878">
        <ele>313.53</ele>
        <time>2015-03-27T13:36:44Z</time>
      </trkpt>
      <trkpt lat="48.4955" lon="7.25918">
        <ele>313.05</ele>
        <time>2015-03-27T13:36:47Z</time>
      </trkpt>
      <trkpt lat="48.49562" lon="7.2597">
        <ele>312.09</ele>
        <time>2015-03-27T13:36:51Z</time>
      </trkpt>
      <trkpt lat="48.49573" lon="7.26003">
        <ele>311.6</ele>
        <time>2015-03-27T13:36:54Z</time>
      </trkpt>
      <trkpt lat="48.49578" lon="7.26011">
        <ele>311.6</ele>
        <time>2015-03-27T13:36:55Z</time>
      </trkpt>
      <trkpt lat="48.49584" lon="7.26019">
        <ele>311.12</ele>
        <time>2015-03-27T13:36:56Z</time>
      </trkpt>
      <trkpt lat="48.49665" lon="7.26124">
        <ele>308.72</ele>
        <time>2015-03-27T13:37:12Z</time>
      </trkpt>
      <trkpt lat="48.49732" lon="7.26261">
        <ele>311.12</ele>
        <time>2015-03-27T13:37:30Z</time>
      </trkpt>
      <trkpt lat="48.49804" lon="7.2636">
        <ele>309.68</ele>
        <time>2015-03-27T13:37:47Z</time>
      </trkpt>
      <trkpt lat="48.49883" lon="7.26501">
        <ele>309.2</ele>
        <time>2015-03-27T13:38:05Z</time>
      </trkpt>
      <trkpt lat="48.49915" lon="7.26657">
        <ele>309.68</ele>
        <time>2015-03-27T13:38:20Z</time>
      </trkpt>
      <trkpt lat="48.49936" lon="7.26889">
        <ele>310.64</ele>
        <time>2015-03-27T13:38:43Z</time>
      </trkpt>
      <trkpt lat="48.49903" lon="7.2701">
        <ele>313.05</ele>
        <time>2015-03-27T13:38:57Z</time>
      </trkpt>
      <trkpt lat="48.49874" lon="7.2717">
        <ele>315.45</ele>
        <time>2015-03-27T13:39:15Z</time>
      </trkpt>
      <trkpt lat="48.49866" lon="7.27301">
        <ele>317.85</ele>
        <time>2015-03-27T13:39:32Z</time>
      </trkpt>
      <trkpt lat="48.49901" lon="7.27414">
        <ele>320.26</ele>
        <time>2015-03-27T13:39:51Z</time>
      </trkpt>
      <trkpt lat="48.49939" lon="7.27504">
        <ele>323.62</ele>
        <time>2015-03-27T13:40:09Z</time>
      </trkpt>
      <trkpt lat="48.49951" lon="7.27529">
        <ele>325.06</ele>
        <time>2015-03-27T13:40:14Z</time>
      </trkpt>
      <trkpt lat="48.50003" lon="7.27601">
        <ele>330.35</ele>
        <time>2015-03-27T13:40:31Z</time>
      </trkpt>
      <trkpt lat="48.50071" lon="7.27651">
        <ele>344.77</ele>
        <time>2015-03-27T13:40:49Z</time>
      </trkpt>
      <trkpt lat="48.50081" lon="7.27667">
        <ele>345.25</ele>
        <time>2015-03-27T13:40:52Z</time>
      </trkpt>
      <trkpt lat="48.50103" lon="7.27727">
        <ele>348.13</ele>
        <time>2015-03-27T13:41:02Z</time>
      </trkpt>
      <trkpt lat="48.50129" lon="7.2785">
        <ele>351.98</ele>
        <time>2015-03-27T13:41:20Z</time>
      </trkpt>
      <trkpt lat="48.50151" lon="7.27993">
        <ele>353.9</ele>
        <time>2015-03-27T13:41:36Z</time>
      </trkpt>
      <trkpt lat="48.50183" lon="7.28148">
        <ele>355.34</ele>
        <time>2015-03-27T13:41:53Z</time>
      </trkpt>
      <trkpt lat="48.5021" lon="7.28321">
        <ele>353.9</ele>
        <time>2015-03-27T13:42:11Z</time>
      </trkpt>
      <trkpt lat="48.5021" lon="7.2836">
        <ele>352.94</ele>
        <time>2015-03-27T13:42:15Z</time>
      </trkpt>
      <trkpt lat="48.5021" lon="7.2837">
        <ele>352.94</ele>
        <time>2015-03-27T13:42:16Z</time>
      </trkpt>
      <trkpt lat="48.50207" lon="7.28379">
        <ele>352.46</ele>
        <time>2015-03-27T13:42:17Z</time>
      </trkpt>
      <trkpt lat="48.50197" lon="7.28404">
        <ele>351.98</ele>
        <time>2015-03-27T13:42:20Z</time>
      </trkpt>
      <trkpt lat="48.50192" lon="7.28411">
        <ele>351.98</ele>
        <time>2015-03-27T13:42:21Z</time>
      </trkpt>
      <trkpt lat="48.50176" lon="7.28433">
        <ele>351.5</ele>
        <time>2015-03-27T13:42:24Z</time>
      </trkpt>
      <trkpt lat="48.50163" lon="7.2847">
        <ele>351.5</ele>
        <time>2015-03-27T13:42:28Z</time>
      </trkpt>
      <trkpt lat="48.50161" lon="7.28479">
        <ele>351.5</ele>
        <time>2015-03-27T13:42:29Z</time>
      </trkpt>
      <trkpt lat="48.5016" lon="7.28488">
        <ele>351.5</ele>
        <time>2015-03-27T13:42:30Z</time>
      </trkpt>
      <trkpt lat="48.50154" lon="7.28593">
        <ele>350.06</ele>
        <time>2015-03-27T13:42:45Z</time>
      </trkpt>
      <trkpt lat="48.50146" lon="7.28698">
        <ele>352.46</ele>
        <time>2015-03-27T13:43:03Z</time>
      </trkpt>
      <trkpt lat="48.50135" lon="7.28791">
        <ele>355.34</ele>
        <time>2015-03-27T13:43:21Z</time>
      </trkpt>
      <trkpt lat="48.50121" lon="7.28888">
        <ele>361.11</ele>
        <time>2015-03-27T13:43:41Z</time>
      </trkpt>
      <trkpt lat="48.50128" lon="7.28952">
        <ele>365.44</ele>
        <time>2015-03-27T13:43:55Z</time>
      </trkpt>
      <trkpt lat="48.5016" lon="7.28921">
        <ele>371.69</ele>
        <time>2015-03-27T13:44:06Z</time>
      </trkpt>
      <trkpt lat="48.50198" lon="7.2885">
        <ele>375.53</ele>
        <time>2015-03-27T13:44:23Z</time>
      </trkpt>
      <trkpt lat="48.50242" lon="7.2881">
        <ele>380.34</ele>
        <time>2015-03-27T13:44:38Z</time>
      </trkpt>
      <trkpt lat="48.50301" lon="7.28798">
        <ele>387.07</ele>
        <time>2015-03-27T13:44:55Z</time>
      </trkpt>
      <trkpt lat="48.50358" lon="7.28815">
        <ele>400.05</ele>
        <time>2015-03-27T13:45:09Z</time>
      </trkpt>
      <trkpt lat="48.50414" lon="7.28857">
        <ele>407.74</ele>
        <time>2015-03-27T13:45:25Z</time>
      </trkpt>
      <trkpt lat="48.50451" lon="7.28931">
        <ele>414.47</ele>
        <time>2015-03-27T13:45:42Z</time>
      </trkpt>
      <trkpt lat="48.50489" lon="7.28994">
        <ele>417.83</ele>
        <time>2015-03-27T13:46:00Z</time>
      </trkpt>
      <trkpt lat="48.50538" lon="7.29015">
        <ele>421.68</ele>
        <time>2015-03-27T13:46:17Z</time>
      </trkpt>
      <trkpt lat="48.50579" lon="7.29077">
        <ele>427.92</ele>
        <time>2015-03-27T13:46:34Z</time>
      </trkpt>
      <trkpt lat="48.5062" lon="7.29157">
        <ele>435.13</ele>
        <time>2015-03-27T13:46:54Z</time>
      </trkpt>
      <trkpt lat="48.50658" lon="7.29215">
        <ele>439.46</ele>
        <time>2015-03-27T13:47:11Z</time>
      </trkpt>
      <trkpt lat="48.50689" lon="7.29299">
        <ele>439.46</ele>
        <time>2015-03-27T13:47:30Z</time>
      </trkpt>
      <trkpt lat="48.50679" lon="7.29367">
        <ele>434.17</ele>
        <time>2015-03-27T13:47:44Z</time>
      </trkpt>
      <trkpt lat="48.50626" lon="7.29391">
        <ele>430.33</ele>
        <time>2015-03-27T13:47:58Z</time>
      </trkpt>
      <trkpt lat="48.50571" lon="7.29431">
        <ele>438.5</ele>
        <time>2015-03-27T13:48:17Z</time>
      </trkpt>
      <trkpt lat="48.50519" lon="7.29485">
        <ele>446.19</ele>
        <time>2015-03-27T13:48:36Z</time>
      </trkpt>
      <trkpt lat="48.50488" lon="7.29545">
        <ele>447.63</ele>
        <time>2015-03-27T13:48:54Z</time>
      </trkpt>
      <trkpt lat="48.50505" lon="7.296">
        <ele>449.07</ele>
        <time>2015-03-27T13:49:05Z</time>
      </trkpt>
      <trkpt lat="48.50548" lon="7.29689">
        <ele>450.52</ele>
        <time>2015-03-27T13:49:26Z</time>
      </trkpt>
      <trkpt lat="48.50579" lon="7.29777">
        <ele>456.76</ele>
        <time>2015-03-27T13:49:47Z</time>
      </trkpt>
      <trkpt lat="48.50619" lon="7.29841">
        <ele>460.13</ele>
        <time>2015-03-27T13:50:07Z</time>
      </trkpt>
      <trkpt lat="48.50616" lon="7.2989">
        <ele>462.05</ele>
        <time>2015-03-27T13:50:18Z</time>
      </trkpt>
      <trkpt lat="48.50568" lon="7.29891">
        <ele>463.97</ele>
        <time>2015-03-27T13:50:32Z</time>
      </trkpt>
      <trkpt lat="48.5051" lon="7.29901">
        <ele>471.66</ele>
        <time>2015-03-27T13:50:50Z</time>
      </trkpt>
      <trkpt lat="48.50448" lon="7.29907">
        <ele>482.24</ele>
        <time>2015-03-27T13:51:08Z</time>
      </trkpt>
      <trkpt lat="48.50392" lon="7.299">
        <ele>488.01</ele>
        <time>2015-03-27T13:51:25Z</time>
      </trkpt>
      <trkpt lat="48.50342" lon="7.29909">
        <ele>492.81</ele>
        <time>2015-03-27T13:51:42Z</time>
      </trkpt>
      <trkpt lat="48.50303" lon="7.29972">
        <ele>501.46</ele>
        <time>2015-03-27T13:52:01Z</time>
      </trkpt>
      <trkpt lat="48.50268" lon="7.30042">
        <ele>507.23</ele>
        <time>2015-03-27T13:52:20Z</time>
      </trkpt>
      <trkpt lat="48.50228" lon="7.30129">
        <ele>503.39</ele>
        <time>2015-03-27T13:52:40Z</time>
      </trkpt>
      <trkpt lat="48.50188" lon="7.30192">
        <ele>505.31</ele>
        <time>2015-03-27T13:52:57Z</time>
      </trkpt>
      <trkpt lat="48.50142" lon="7.30262">
        <ele>501.46</ele>
        <time>2015-03-27T13:53:16Z</time>
      </trkpt>
      <trkpt lat="48.50105" lon="7.30336">
        <ele>501.46</ele>
        <time>2015-03-27T13:53:34Z</time>
      </trkpt>
      <trkpt lat="48.50051" lon="7.30408">
        <ele>501.46</ele>
        <time>2015-03-27T13:53:55Z</time>
      </trkpt>
      <trkpt lat="48.49989" lon="7.30464">
        <ele>500.02</ele>
        <time>2015-03-27T13:54:15Z</time>
      </trkpt>
      <trkpt lat="48.49933" lon="7.30521">
        <ele>501.46</ele>
        <time>2015-03-27T13:54:34Z</time>
      </trkpt>
      <trkpt lat="48.49879" lon="7.3059">
        <ele>499.06</ele>
        <time>2015-03-27T13:54:54Z</time>
      </trkpt>
      <trkpt lat="48.49869" lon="7.30652">
        <ele>505.79</ele>
        <time>2015-03-27T13:55:06Z</time>
      </trkpt>
      <trkpt lat="48.49868" lon="7.30733">
        <ele>507.71</ele>
        <time>2015-03-27T13:55:22Z</time>
      </trkpt>
      <trkpt lat="48.49879" lon="7.30837">
        <ele>509.64</ele>
        <time>2015-03-27T13:55:42Z</time>
      </trkpt>
      <trkpt lat="48.49903" lon="7.30941">
        <ele>512.04</ele>
        <time>2015-03-27T13:56:03Z</time>
      </trkpt>
      <trkpt lat="48.49916" lon="7.31071">
        <ele>514.92</ele>
        <time>2015-03-27T13:56:27Z</time>
      </trkpt>
      <trkpt lat="48.49905" lon="7.31185">
        <ele>525.98</ele>
        <time>2015-03-27T13:56:47Z</time>
      </trkpt>
      <trkpt lat="48.49903" lon="7.31296">
        <ele>533.19</ele>
        <time>2015-03-27T13:57:05Z</time>
      </trkpt>
      <trkpt lat="48.49905" lon="7.31368">
        <ele>537.99</ele>
        <time>2015-03-27T13:57:17Z</time>
      </trkpt>
      <trkpt lat="48.49904" lon="7.31374">
        <ele>537.99</ele>
        <time>2015-03-27T13:57:18Z</time>
      </trkpt>
      <trkpt lat="48.49899" lon="7.31391">
        <ele>537.99</ele>
        <time>2015-03-27T13:57:21Z</time>
      </trkpt>
      <trkpt lat="48.49896" lon="7.31397">
        <ele>537.99</ele>
        <time>2015-03-27T13:57:22Z</time>
      </trkpt>
      <trkpt lat="48.49892" lon="7.31403">
        <ele>537.99</ele>
        <time>2015-03-27T13:57:23Z</time>
      </trkpt>
      <trkpt lat="48.49888" lon="7.31408">
        <ele>537.99</ele>
        <time>2015-03-27T13:57:24Z</time>
      </trkpt>
      <trkpt lat="48.49884" lon="7.31414">
        <ele>537.51</ele>
        <time>2015-03-27T13:57:25Z</time>
      </trkpt>
      <trkpt lat="48.49879" lon="7.31418">
        <ele>537.99</ele>
        <time>2015-03-27T13:57:26Z</time>
      </trkpt>
      <trkpt lat="48.49874" lon="7.31423">
        <ele>537.99</ele>
        <time>2015-03-27T13:57:27Z</time>
      </trkpt>
      <trkpt lat="48.49869" lon="7.31426">
        <ele>537.99</ele>
        <time>2015-03-27T13:57:28Z</time>
      </trkpt>
      <trkpt lat="48.49864" lon="7.31429">
        <ele>537.99</ele>
        <time>2015-03-27T13:57:29Z</time>
      </trkpt>
      <trkpt lat="48.49859" lon="7.31431">
        <ele>537.51</ele>
        <time>2015-03-27T13:57:30Z</time>
      </trkpt>
      <trkpt lat="48.49854" lon="7.31432">
        <ele>537.51</ele>
        <time>2015-03-27T13:57:31Z</time>
      </trkpt>
      <trkpt lat="48.49771" lon="7.3144">
        <ele>537.99</ele>
        <time>2015-03-27T13:57:45Z</time>
      </trkpt>
      <trkpt lat="48.49765" lon="7.31444">
        <ele>537.99</ele>
        <time>2015-03-27T13:57:46Z</time>
      </trkpt>
      <trkpt lat="48.4976" lon="7.31448">
        <ele>537.99</ele>
        <time>2015-03-27T13:57:47Z</time>
      </trkpt>
      <trkpt lat="48.49755" lon="7.31453">
        <ele>537.99</ele>
        <time>2015-03-27T13:57:48Z</time>
      </trkpt>
      <trkpt lat="48.49751" lon="7.31458">
        <ele>537.99</ele>
        <time>2015-03-27T13:57:49Z</time>
      </trkpt>
      <trkpt lat="48.49746" lon="7.31464">
        <ele>537.99</ele>
        <time>2015-03-27T13:57:50Z</time>
      </trkpt>
      <trkpt lat="48.49742" lon="7.3147">
        <ele>537.99</ele>
        <time>2015-03-27T13:57:51Z</time>
      </trkpt>
      <trkpt lat="48.49739" lon="7.31477">
        <ele>537.99</ele>
        <time>2015-03-27T13:57:52Z</time>
      </trkpt>
      <trkpt lat="48.49704" lon="7.31542">
        <ele>537.99</ele>
        <time>2015-03-27T13:58:02Z</time>
      </trkpt>
      <trkpt lat="48.49628" lon="7.31603">
        <ele>537.03</ele>
        <time>2015-03-27T13:58:16Z</time>
      </trkpt>
      <trkpt lat="48.49528" lon="7.31671">
        <ele>534.15</ele>
        <time>2015-03-27T13:58:32Z</time>
      </trkpt>
      <trkpt lat="48.49516" lon="7.31681">
        <ele>533.19</ele>
        <time>2015-03-27T13:58:34Z</time>
      </trkpt>
      <trkpt lat="48.49511" lon="7.31687">
        <ele>532.71</ele>
        <time>2015-03-27T13:58:35Z</time>
      </trkpt>
      <trkpt lat="48.49434" lon="7.31799">
        <ele>527.9</ele>
        <time>2015-03-27T13:58:50Z</time>
      </trkpt>
      <trkpt lat="48.49379" lon="7.31949">
        <ele>523.09</ele>
        <time>2015-03-27T13:59:06Z</time>
      </trkpt>
      <trkpt lat="48.49358" lon="7.31996">
        <ele>521.17</ele>
        <time>2015-03-27T13:59:11Z</time>
      </trkpt>
      <trkpt lat="48.49353" lon="7.32003">
        <ele>521.17</ele>
        <time>2015-03-27T13:59:12Z</time>
      </trkpt>
      <trkpt lat="48.49293" lon="7.32068">
        <ele>518.29</ele>
        <time>2015-03-27T13:59:23Z</time>
      </trkpt>
      <trkpt lat="48.49293" lon="7.3207">
        <ele>520.69</ele>
        <time>2015-03-27T13:59:34Z</time>
      </trkpt>
      <trkpt lat="48.49292" lon="7.32069">
        <ele>522.13</ele>
        <time>2015-03-27T13:59:53Z</time>
      </trkpt>
      <trkpt lat="48.49294" lon="7.3207">
        <ele>525.02</ele>
        <time>2015-03-27T14:00:18Z</time>
      </trkpt>
      <trkpt lat="48.49296" lon="7.32069">
        <ele>527.42</ele>
        <time>2015-03-27T14:00:46Z</time>
      </trkpt>
      <trkpt lat="48.49296" lon="7.32069">
        <ele>527.9</ele>
        <time>2015-03-27T14:00:55Z</time>
      </trkpt>
      <trkpt lat="48.49284" lon="7.32109">
        <ele>529.34</ele>
        <time>2015-03-27T14:01:02Z</time>
      </trkpt>
      <trkpt lat="48.49268" lon="7.32239">
        <ele>529.34</ele>
        <time>2015-03-27T14:01:14Z</time>
      </trkpt>
      <trkpt lat="48.49242" lon="7.32356">
        <ele>529.34</ele>
        <time>2015-03-27T14:01:24Z</time>
      </trkpt>
      <trkpt lat="48.49232" lon="7.32396">
        <ele>527.9</ele>
        <time>2015-03-27T14:01:28Z</time>
      </trkpt>
      <trkpt lat="48.49231" lon="7.32404">
        <ele>527.42</ele>
        <time>2015-03-27T14:01:29Z</time>
      </trkpt>
      <trkpt lat="48.49283" lon="7.32523">
        <ele>509.16</ele>
        <time>2015-03-27T14:01:37Z</time>
      </trkpt>
      <trkpt lat="48.49308" lon="7.32665">
        <ele>510.12</ele>
        <time>2015-03-27T14:01:48Z</time>
      </trkpt>
      <trkpt lat="48.49351" lon="7.3284">
        <ele>505.79</ele>
        <time>2015-03-27T14:01:58Z</time>
      </trkpt>
      <trkpt lat="48.49386" lon="7.32944">
        <ele>501.46</ele>
        <time>2015-03-27T14:02:04Z</time>
      </trkpt>
      <trkpt lat="48.49388" lon="7.32962">
        <ele>500.5</ele>
        <time>2015-03-27T14:02:05Z</time>
      </trkpt>
      <trkpt lat="48.49388" lon="7.32981">
        <ele>500.5</ele>
        <time>2015-03-27T14:02:06Z</time>
      </trkpt>
      <trkpt lat="48.49387" lon="7.32998">
        <ele>500.02</ele>
        <time>2015-03-27T14:02:07Z</time>
      </trkpt>
      <trkpt lat="48.49381" lon="7.33014">
        <ele>499.54</ele>
        <time>2015-03-27T14:02:08Z</time>
      </trkpt>
      <trkpt lat="48.49376" lon="7.33031">
        <ele>499.06</ele>
        <time>2015-03-27T14:02:09Z</time>
      </trkpt>
      <trkpt lat="48.49366" lon="7.33089">
        <ele>496.66</ele>
        <time>2015-03-27T14:02:12Z</time>
      </trkpt>
      <trkpt lat="48.49363" lon="7.332">
        <ele>492.81</ele>
        <time>2015-03-27T14:02:17Z</time>
      </trkpt>
      <trkpt lat="48.49366" lon="7.33223">
        <ele>492.33</ele>
        <time>2015-03-27T14:02:18Z</time>
      </trkpt>
      <trkpt lat="48.49384" lon="7.3334">
        <ele>488.97</ele>
        <time>2015-03-27T14:02:23Z</time>
      </trkpt>
      <trkpt lat="48.49387" lon="7.33365">
        <ele>488.49</ele>
        <time>2015-03-27T14:02:24Z</time>
      </trkpt>
      <trkpt lat="48.49388" lon="7.3339">
        <ele>488.01</ele>
        <time>2015-03-27T14:02:25Z</time>
      </trkpt>
      <trkpt lat="48.49387" lon="7.33416">
        <ele>487.53</ele>
        <time>2015-03-27T14:02:26Z</time>
      </trkpt>
      <trkpt lat="48.49386" lon="7.33443">
        <ele>487.05</ele>
        <time>2015-03-27T14:02:27Z</time>
      </trkpt>
      <trkpt lat="48.49352" lon="7.3365">
        <ele>481.76</ele>
        <time>2015-03-27T14:02:35Z</time>
      </trkpt>
      <trkpt lat="48.49345" lon="7.33697">
        <ele>480.32</ele>
        <time>2015-03-27T14:02:37Z</time>
      </trkpt>
      <trkpt lat="48.49344" lon="7.33721">
        <ele>479.35</ele>
        <time>2015-03-27T14:02:38Z</time>
      </trkpt>
      <trkpt lat="48.49346" lon="7.33838">
        <ele>475.99</ele>
        <time>2015-03-27T14:02:43Z</time>
      </trkpt>
      <trkpt lat="48.49351" lon="7.33859">
        <ele>475.51</ele>
        <time>2015-03-27T14:02:44Z</time>
      </trkpt>
      <trkpt lat="48.49366" lon="7.33885">
        <ele>475.03</ele>
        <time>2015-03-27T14:02:45Z</time>
      </trkpt>
      <trkpt lat="48.49413" lon="7.34001">
        <ele>472.14</ele>
        <time>2015-03-27T14:02:50Z</time>
      </trkpt>
      <trkpt lat="48.4942" lon="7.34026">
        <ele>471.66</ele>
        <time>2015-03-27T14:02:51Z</time>
      </trkpt>
      <trkpt lat="48.49425" lon="7.34051">
        <ele>471.18</ele>
        <time>2015-03-27T14:02:52Z</time>
      </trkpt>
      <trkpt lat="48.49427" lon="7.34078">
        <ele>470.22</ele>
        <time>2015-03-27T14:02:53Z</time>
      </trkpt>
      <trkpt lat="48.49428" lon="7.34104">
        <ele>469.74</ele>
        <time>2015-03-27T14:02:54Z</time>
      </trkpt>
      <trkpt lat="48.49431" lon="7.34226">
        <ele>466.86</ele>
        <time>2015-03-27T14:02:59Z</time>
      </trkpt>
      <trkpt lat="48.49429" lon="7.3425">
        <ele>465.9</ele>
        <time>2015-03-27T14:03:00Z</time>
      </trkpt>
      <trkpt lat="48.49425" lon="7.34273">
        <ele>465.42</ele>
        <time>2015-03-27T14:03:01Z</time>
      </trkpt>
      <trkpt lat="48.49421" lon="7.34296">
        <ele>464.45</ele>
        <time>2015-03-27T14:03:02Z</time>
      </trkpt>
      <trkpt lat="48.49416" lon="7.34317">
        <ele>463.49</ele>
        <time>2015-03-27T14:03:03Z</time>
      </trkpt>
      <trkpt lat="48.49409" lon="7.34336">
        <ele>462.53</ele>
        <time>2015-03-27T14:03:04Z</time>
      </trkpt>
      <trkpt lat="48.49402" lon="7.34354">
        <ele>461.57</ele>
        <time>2015-03-27T14:03:05Z</time>
      </trkpt>
      <trkpt lat="48.49395" lon="7.34372">
        <ele>460.61</ele>
        <time>2015-03-27T14:03:06Z</time>
      </trkpt>
      <trkpt lat="48.49323" lon="7.34548">
        <ele>447.63</ele>
        <time>2015-03-27T14:03:16Z</time>
      </trkpt>
      <trkpt lat="48.49282" lon="7.34755">
        <ele>434.17</ele>
        <time>2015-03-27T14:03:27Z</time>
      </trkpt>
      <trkpt lat="48.49249" lon="7.35016">
        <ele>421.68</ele>
        <time>2015-03-27T14:03:41Z</time>
      </trkpt>
      <trkpt lat="48.49246" lon="7.3511">
        <ele>417.83</ele>
        <time>2015-03-27T14:03:46Z</time>
      </trkpt>
      <trkpt lat="48.49241" lon="7.35164">
        <ele>415.43</ele>
        <time>2015-03-27T14:03:49Z</time>
      </trkpt>
      <trkpt lat="48.49242" lon="7.35184">
        <ele>414.47</ele>
        <time>2015-03-27T14:03:50Z</time>
      </trkpt>
      <trkpt lat="48.49242" lon="7.35203">
        <ele>413.5</ele>
        <time>2015-03-27T14:03:51Z</time>
      </trkpt>
      <trkpt lat="48.4922" lon="7.35397">
        <ele>405.33</ele>
        <time>2015-03-27T14:04:01Z</time>
      </trkpt>
      <trkpt lat="48.49175" lon="7.35584">
        <ele>396.68</ele>
        <time>2015-03-27T14:04:11Z</time>
      </trkpt>
      <trkpt lat="48.49136" lon="7.35776">
        <ele>387.55</ele>
        <time>2015-03-27T14:04:21Z</time>
      </trkpt>
      <trkpt lat="48.49094" lon="7.35958">
        <ele>377.45</ele>
        <time>2015-03-27T14:04:32Z</time>
      </trkpt>
      <trkpt lat="48.49092" lon="7.35974">
        <ele>377.45</ele>
        <time>2015-03-27T14:04:33Z</time>
      </trkpt>
      <trkpt lat="48.49083" lon="7.36039">
        <ele>376.97</ele>
        <time>2015-03-27T14:04:37Z</time>
      </trkpt>
      <trkpt lat="48.4908" lon="7.36073">
        <ele>376.49</ele>
        <time>2015-03-27T14:04:39Z</time>
      </trkpt>
      <trkpt lat="48.49078" lon="7.3609">
        <ele>376.49</ele>
        <time>2015-03-27T14:04:40Z</time>
      </trkpt>
      <trkpt lat="48.49071" lon="7.36227">
        <ele>375.53</ele>
        <time>2015-03-27T14:04:48Z</time>
      </trkpt>
      <trkpt lat="48.49072" lon="7.36245">
        <ele>375.53</ele>
        <time>2015-03-27T14:04:49Z</time>
      </trkpt>
      <trkpt lat="48.49073" lon="7.36264">
        <ele>375.53</ele>
        <time>2015-03-27T14:04:50Z</time>
      </trkpt>
      <trkpt lat="48.49062" lon="7.36449">
        <ele>374.57</ele>
        <time>2015-03-27T14:05:00Z</time>
      </trkpt>
      <trkpt lat="48.49013" lon="7.36572">
        <ele>373.61</ele>
        <time>2015-03-27T14:05:08Z</time>
      </trkpt>
      <trkpt lat="48.4901" lon="7.36585">
        <ele>373.61</ele>
        <time>2015-03-27T14:05:09Z</time>
      </trkpt>
      <trkpt lat="48.49006" lon="7.36598">
        <ele>373.61</ele>
        <time>2015-03-27T14:05:10Z</time>
      </trkpt>
      <trkpt lat="48.49004" lon="7.36611">
        <ele>373.13</ele>
        <time>2015-03-27T14:05:11Z</time>
      </trkpt>
      <trkpt lat="48.49003" lon="7.36623">
        <ele>373.13</ele>
        <time>2015-03-27T14:05:12Z</time>
      </trkpt>
      <trkpt lat="48.49003" lon="7.36636">
        <ele>373.13</ele>
        <time>2015-03-27T14:05:13Z</time>
      </trkpt>
      <trkpt lat="48.48998" lon="7.36871">
        <ele>370.24</ele>
        <time>2015-03-27T14:05:31Z</time>
      </trkpt>
      <trkpt lat="48.48981" lon="7.36988">
        <ele>369.28</ele>
        <time>2015-03-27T14:05:39Z</time>
      </trkpt>
      <trkpt lat="48.48978" lon="7.37003">
        <ele>368.8</ele>
        <time>2015-03-27T14:05:40Z</time>
      </trkpt>
      <trkpt lat="48.48956" lon="7.37079">
        <ele>368.32</ele>
        <time>2015-03-27T14:05:45Z</time>
      </trkpt>
      <trkpt lat="48.48948" lon="7.37129">
        <ele>367.36</ele>
        <time>2015-03-27T14:05:48Z</time>
      </trkpt>
      <trkpt lat="48.48948" lon="7.37147">
        <ele>367.36</ele>
        <time>2015-03-27T14:05:49Z</time>
      </trkpt>
      <trkpt lat="48.48947" lon="7.37164">
        <ele>366.88</ele>
        <time>2015-03-27T14:05:50Z</time>
      </trkpt>
      <trkpt lat="48.48922" lon="7.37361">
        <ele>362.55</ele>
        <time>2015-03-27T14:06:01Z</time>
      </trkpt>
      <trkpt lat="48.4888" lon="7.37589">
        <ele>354.86</ele>
        <time>2015-03-27T14:06:14Z</time>
      </trkpt>
      <trkpt lat="48.48849" lon="7.3777">
        <ele>348.62</ele>
        <time>2015-03-27T14:06:25Z</time>
      </trkpt>
      <trkpt lat="48.4882" lon="7.37966">
        <ele>342.37</ele>
        <time>2015-03-27T14:06:37Z</time>
      </trkpt>
      <trkpt lat="48.48819" lon="7.37984">
        <ele>341.89</ele>
        <time>2015-03-27T14:06:38Z</time>
      </trkpt>
      <trkpt lat="48.48819" lon="7.38001">
        <ele>341.41</ele>
        <time>2015-03-27T14:06:39Z</time>
      </trkpt>
      <trkpt lat="48.4882" lon="7.38018">
        <ele>340.92</ele>
        <time>2015-03-27T14:06:40Z</time>
      </trkpt>
      <trkpt lat="48.48863" lon="7.38146">
        <ele>337.08</ele>
        <time>2015-03-27T14:06:49Z</time>
      </trkpt>
      <trkpt lat="48.48942" lon="7.38214">
        <ele>335.64</ele>
        <time>2015-03-27T14:06:59Z</time>
      </trkpt>
      <trkpt lat="48.49058" lon="7.38275">
        <ele>335.64</ele>
        <time>2015-03-27T14:07:14Z</time>
      </trkpt>
      <trkpt lat="48.49156" lon="7.38362">
        <ele>335.16</ele>
        <time>2015-03-27T14:07:30Z</time>
      </trkpt>
      <trkpt lat="48.49242" lon="7.38449">
        <ele>333.71</ele>
        <time>2015-03-27T14:07:41Z</time>
      </trkpt>
      <trkpt lat="48.49252" lon="7.38454">
        <ele>333.23</ele>
        <time>2015-03-27T14:07:42Z</time>
      </trkpt>
      <trkpt lat="48.49261" lon="7.38456">
        <ele>332.27</ele>
        <time>2015-03-27T14:07:43Z</time>
      </trkpt>
      <trkpt lat="48.49315" lon="7.3847">
        <ele>327.47</ele>
        <time>2015-03-27T14:07:49Z</time>
      </trkpt>
      <trkpt lat="48.49322" lon="7.38474">
        <ele>326.99</ele>
        <time>2015-03-27T14:07:50Z</time>
      </trkpt>
      <trkpt lat="48.49328" lon="7.38478">
        <ele>326.5</ele>
        <time>2015-03-27T14:07:51Z</time>
      </trkpt>
      <trkpt lat="48.49334" lon="7.38482">
        <ele>326.5</ele>
        <time>2015-03-27T14:07:52Z</time>
      </trkpt>
      <trkpt lat="48.4934" lon="7.38487">
        <ele>326.02</ele>
        <time>2015-03-27T14:07:53Z</time>
      </trkpt>
      <trkpt lat="48.49435" lon="7.38574">
        <ele>323.62</ele>
        <time>2015-03-27T14:08:07Z</time>
      </trkpt>
      <trkpt lat="48.49442" lon="7.38579">
        <ele>323.62</ele>
        <time>2015-03-27T14:08:08Z</time>
      </trkpt>
      <trkpt lat="48.4945" lon="7.38582">
        <ele>323.14</ele>
        <time>2015-03-27T14:08:09Z</time>
      </trkpt>
      <trkpt lat="48.49458" lon="7.38585">
        <ele>323.14</ele>
        <time>2015-03-27T14:08:10Z</time>
      </trkpt>
      <trkpt lat="48.49466" lon="7.38586">
        <ele>322.66</ele>
        <time>2015-03-27T14:08:11Z</time>
      </trkpt>
      <trkpt lat="48.49475" lon="7.38587">
        <ele>322.66</ele>
        <time>2015-03-27T14:08:12Z</time>
      </trkpt>
      <trkpt lat="48.49507" lon="7.38591">
        <ele>321.7</ele>
        <time>2015-03-27T14:08:16Z</time>
      </trkpt>
      <trkpt lat="48.49514" lon="7.38594">
        <ele>321.7</ele>
        <time>2015-03-27T14:08:17Z</time>
      </trkpt>
      <trkpt lat="48.49573" lon="7.38632">
        <ele>320.74</ele>
        <time>2015-03-27T14:08:27Z</time>
      </trkpt>
      <trkpt lat="48.49594" lon="7.38642">
        <ele>320.26</ele>
        <time>2015-03-27T14:08:30Z</time>
      </trkpt>
      <trkpt lat="48.49609" lon="7.38647">
        <ele>319.78</ele>
        <time>2015-03-27T14:08:32Z</time>
      </trkpt>
      <trkpt lat="48.49616" lon="7.38651">
        <ele>319.78</ele>
        <time>2015-03-27T14:08:33Z</time>
      </trkpt>
      <trkpt lat="48.49622" lon="7.38657">
        <ele>319.3</ele>
        <time>2015-03-27T14:08:34Z</time>
      </trkpt>
      <trkpt lat="48.49632" lon="7.38669">
        <ele>319.3</ele>
        <time>2015-03-27T14:08:36Z</time>
      </trkpt>
      <trkpt lat="48.49637" lon="7.38676">
        <ele>319.78</ele>
        <time>2015-03-27T14:08:37Z</time>
      </trkpt>
      <trkpt lat="48.49656" lon="7.38707">
        <ele>319.78</ele>
        <time>2015-03-27T14:08:41Z</time>
      </trkpt>
      <trkpt lat="48.49661" lon="7.38714">
        <ele>319.78</ele>
        <time>2015-03-27T14:08:42Z</time>
      </trkpt>
      <trkpt lat="48.49685" lon="7.38741">
        <ele>319.3</ele>
        <time>2015-03-27T14:08:46Z</time>
      </trkpt>
      <trkpt lat="48.4969" lon="7.38748">
        <ele>318.81</ele>
        <time>2015-03-27T14:08:47Z</time>
      </trkpt>
      <trkpt lat="48.49702" lon="7.38765">
        <ele>318.81</ele>
        <time>2015-03-27T14:08:49Z</time>
      </trkpt>
      <trkpt lat="48.49707" lon="7.38775">
        <ele>318.33</ele>
        <time>2015-03-27T14:08:50Z</time>
      </trkpt>
      <trkpt lat="48.49716" lon="7.38796">
        <ele>318.33</ele>
        <time>2015-03-27T14:08:52Z</time>
      </trkpt>
      <trkpt lat="48.49722" lon="7.38804">
        <ele>317.85</ele>
        <time>2015-03-27T14:08:53Z</time>
      </trkpt>
      <trkpt lat="48.49729" lon="7.3881">
        <ele>317.37</ele>
        <time>2015-03-27T14:08:54Z</time>
      </trkpt>
      <trkpt lat="48.49736" lon="7.38817">
        <ele>317.37</ele>
        <time>2015-03-27T14:08:55Z</time>
      </trkpt>
      <trkpt lat="48.49743" lon="7.38822">
        <ele>316.89</ele>
        <time>2015-03-27T14:08:56Z</time>
      </trkpt>
      <trkpt lat="48.49829" lon="7.3884">
        <ele>315.93</ele>
        <time>2015-03-27T14:09:07Z</time>
      </trkpt>
      <trkpt lat="48.49915" lon="7.3881">
        <ele>316.89</ele>
        <time>2015-03-27T14:09:21Z</time>
      </trkpt>
      <trkpt lat="48.50017" lon="7.38782">
        <ele>316.41</ele>
        <time>2015-03-27T14:09:36Z</time>
      </trkpt>
      <trkpt lat="48.50136" lon="7.38775">
        <ele>314.01</ele>
        <time>2015-03-27T14:09:49Z</time>
      </trkpt>
      <trkpt lat="48.50244" lon="7.38758">
        <ele>309.68</ele>
        <time>2015-03-27T14:10:00Z</time>
      </trkpt>
      <trkpt lat="48.50273" lon="7.3876">
        <ele>308.72</ele>
        <time>2015-03-27T14:10:03Z</time>
      </trkpt>
      <trkpt lat="48.5028" lon="7.38763">
        <ele>308.24</ele>
        <time>2015-03-27T14:10:04Z</time>
      </trkpt>
      <trkpt lat="48.50286" lon="7.38768">
        <ele>308.24</ele>
        <time>2015-03-27T14:10:05Z</time>
      </trkpt>
      <trkpt lat="48.50291" lon="7.38777">
        <ele>307.76</ele>
        <time>2015-03-27T14:10:06Z</time>
      </trkpt>
      <trkpt lat="48.50294" lon="7.38786">
        <ele>307.76</ele>
        <time>2015-03-27T14:10:07Z</time>
      </trkpt>
      <trkpt lat="48.50294" lon="7.38795">
        <ele>307.28</ele>
        <time>2015-03-27T14:10:08Z</time>
      </trkpt>
      <trkpt lat="48.50292" lon="7.38803">
        <ele>306.8</ele>
        <time>2015-03-27T14:10:09Z</time>
      </trkpt>
      <trkpt lat="48.50288" lon="7.3881">
        <ele>306.32</ele>
        <time>2015-03-27T14:10:10Z</time>
      </trkpt>
      <trkpt lat="48.50281" lon="7.38817">
        <ele>305.84</ele>
        <time>2015-03-27T14:10:11Z</time>
      </trkpt>
      <trkpt lat="48.50273" lon="7.38824">
        <ele>305.36</ele>
        <time>2015-03-27T14:10:12Z</time>
      </trkpt>
      <trkpt lat="48.50171" lon="7.38916">
        <ele>301.51</ele>
        <time>2015-03-27T14:10:22Z</time>
      </trkpt>
      <trkpt lat="48.50099" lon="7.38982">
        <ele>299.11</ele>
        <time>2015-03-27T14:10:28Z</time>
      </trkpt>
      <trkpt lat="48.50084" lon="7.39004">
        <ele>298.63</ele>
        <time>2015-03-27T14:10:30Z</time>
      </trkpt>
      <trkpt lat="48.50078" lon="7.39017">
        <ele>298.15</ele>
        <time>2015-03-27T14:10:31Z</time>
      </trkpt>
      <trkpt lat="48.50072" lon="7.39029">
        <ele>297.67</ele>
        <time>2015-03-27T14:10:32Z</time>
      </trkpt>
      <trkpt lat="48.50062" lon="7.39064">
        <ele>297.67</ele>
        <time>2015-03-27T14:10:35Z</time>
      </trkpt>
      <trkpt lat="48.50062" lon="7.39077">
        <ele>297.67</ele>
        <time>2015-03-27T14:10:36Z</time>
      </trkpt>
      <trkpt lat="48.50064" lon="7.39089">
        <ele>297.67</ele>
        <time>2015-03-27T14:10:37Z</time>
      </trkpt>
      <trkpt lat="48.50072" lon="7.39097">
        <ele>297.18</ele>
        <time>2015-03-27T14:10:38Z</time>
      </trkpt>
      <trkpt lat="48.5008" lon="7.39104">
        <ele>296.7</ele>
        <time>2015-03-27T14:10:39Z</time>
      </trkpt>
      <trkpt lat="48.50089" lon="7.3911">
        <ele>296.22</ele>
        <time>2015-03-27T14:10:40Z</time>
      </trkpt>
      <trkpt lat="48.50099" lon="7.39115">
        <ele>295.74</ele>
        <time>2015-03-27T14:10:41Z</time>
      </trkpt>
      <trkpt lat="48.50108" lon="7.39119">
        <ele>295.26</ele>
        <time>2015-03-27T14:10:42Z</time>
      </trkpt>
      <trkpt lat="48.50201" lon="7.39156">
        <ele>292.38</ele>
        <time>2015-03-27T14:10:55Z</time>
      </trkpt>
      <trkpt lat="48.50222" lon="7.39162">
        <ele>291.9</ele>
        <time>2015-03-27T14:10:59Z</time>
      </trkpt>
      <trkpt lat="48.50292" lon="7.39176">
        <ele>291.42</ele>
        <time>2015-03-27T14:11:15Z</time>
      </trkpt>
      <trkpt lat="48.50334" lon="7.3919">
        <ele>291.9</ele>
        <time>2015-03-27T14:11:31Z</time>
      </trkpt>
      <trkpt lat="48.50383" lon="7.39217">
        <ele>296.7</ele>
        <time>2015-03-27T14:11:46Z</time>
      </trkpt>
      <trkpt lat="48.50456" lon="7.3928">
        <ele>305.36</ele>
        <time>2015-03-27T14:12:05Z</time>
      </trkpt>
      <trkpt lat="48.50516" lon="7.39368">
        <ele>314.01</ele>
        <time>2015-03-27T14:12:22Z</time>
      </trkpt>
      <trkpt lat="48.50567" lon="7.39479">
        <ele>321.22</ele>
        <time>2015-03-27T14:12:41Z</time>
      </trkpt>
      <trkpt lat="48.50614" lon="7.39574">
        <ele>324.58</ele>
        <time>2015-03-27T14:12:58Z</time>
      </trkpt>
      <trkpt lat="48.50662" lon="7.39642">
        <ele>325.06</ele>
        <time>2015-03-27T14:13:16Z</time>
      </trkpt>
      <trkpt lat="48.5072" lon="7.39727">
        <ele>327.95</ele>
        <time>2015-03-27T14:13:30Z</time>
      </trkpt>
      <trkpt lat="48.50779" lon="7.39849">
        <ele>327.95</ele>
        <time>2015-03-27T14:13:49Z</time>
      </trkpt>
      <trkpt lat="48.50842" lon="7.39989">
        <ele>325.06</ele>
        <time>2015-03-27T14:14:05Z</time>
      </trkpt>
      <trkpt lat="48.50932" lon="7.40131">
        <ele>320.74</ele>
        <time>2015-03-27T14:14:20Z</time>
      </trkpt>
      <trkpt lat="48.51029" lon="7.40232">
        <ele>316.89</ele>
        <time>2015-03-27T14:14:31Z</time>
      </trkpt>
      <trkpt lat="48.51127" lon="7.40334">
        <ele>312.57</ele>
        <time>2015-03-27T14:14:42Z</time>
      </trkpt>
      <trkpt lat="48.51287" lon="7.40492">
        <ele>308.24</ele>
        <time>2015-03-27T14:15:01Z</time>
      </trkpt>
      <trkpt lat="48.51407" lon="7.4061">
        <ele>307.28</ele>
        <time>2015-03-27T14:15:18Z</time>
      </trkpt>
      <trkpt lat="48.51531" lon="7.4074">
        <ele>303.91</ele>
        <time>2015-03-27T14:15:34Z</time>
      </trkpt>
      <trkpt lat="48.51646" lon="7.4084">
        <ele>300.07</ele>
        <time>2015-03-27T14:15:44Z</time>
      </trkpt>
      <trkpt lat="48.51779" lon="7.40964">
        <ele>295.26</ele>
        <time>2015-03-27T14:15:54Z</time>
      </trkpt>
      <trkpt lat="48.51903" lon="7.41087">
        <ele>290.46</ele>
        <time>2015-03-27T14:16:03Z</time>
      </trkpt>
      <trkpt lat="48.52036" lon="7.41205">
        <ele>285.17</ele>
        <time>2015-03-27T14:16:15Z</time>
      </trkpt>
      <trkpt lat="48.52159" lon="7.41252">
        <ele>279.88</ele>
        <time>2015-03-27T14:16:25Z</time>
      </trkpt>
      <trkpt lat="48.52329" lon="7.41307">
        <ele>273.15</ele>
        <time>2015-03-27T14:16:38Z</time>
      </trkpt>
      <trkpt lat="48.52469" lon="7.41352">
        <ele>267.86</ele>
        <time>2015-03-27T14:16:50Z</time>
      </trkpt>
      <trkpt lat="48.52547" lon="7.41374">
        <ele>263.06</ele>
        <time>2015-03-27T14:16:58Z</time>
      </trkpt>
      <trkpt lat="48.52681" lon="7.41395">
        <ele>252.48</ele>
        <time>2015-03-27T14:17:14Z</time>
      </trkpt>
      <trkpt lat="48.52747" lon="7.41408">
        <ele>244.31</ele>
        <time>2015-03-27T14:17:22Z</time>
      </trkpt>
      <trkpt lat="48.52762" lon="7.41419">
        <ele>242.87</ele>
        <time>2015-03-27T14:17:24Z</time>
      </trkpt>
      <trkpt lat="48.52777" lon="7.41433">
        <ele>240.95</ele>
        <time>2015-03-27T14:17:26Z</time>
      </trkpt>
      <trkpt lat="48.52784" lon="7.41442">
        <ele>239.99</ele>
        <time>2015-03-27T14:17:27Z</time>
      </trkpt>
      <trkpt lat="48.52791" lon="7.41452">
        <ele>239.02</ele>
        <time>2015-03-27T14:17:28Z</time>
      </trkpt>
      <trkpt lat="48.52797" lon="7.41463">
        <ele>238.06</ele>
        <time>2015-03-27T14:17:29Z</time>
      </trkpt>
      <trkpt lat="48.52803" lon="7.41475">
        <ele>236.62</ele>
        <time>2015-03-27T14:17:30Z</time>
      </trkpt>
      <trkpt lat="48.52873" lon="7.4162">
        <ele>226.05</ele>
        <time>2015-03-27T14:17:40Z</time>
      </trkpt>
      <trkpt lat="48.52957" lon="7.41806">
        <ele>215.95</ele>
        <time>2015-03-27T14:17:52Z</time>
      </trkpt>
      <trkpt lat="48.52966" lon="7.41818">
        <ele>214.99</ele>
        <time>2015-03-27T14:17:53Z</time>
      </trkpt>
      <trkpt lat="48.52975" lon="7.41828">
        <ele>214.51</ele>
        <time>2015-03-27T14:17:54Z</time>
      </trkpt>
      <trkpt lat="48.52984" lon="7.41837">
        <ele>213.55</ele>
        <time>2015-03-27T14:17:55Z</time>
      </trkpt>
      <trkpt lat="48.52994" lon="7.41846">
        <ele>213.07</ele>
        <time>2015-03-27T14:17:56Z</time>
      </trkpt>
      <trkpt lat="48.53004" lon="7.41853">
        <ele>212.59</ele>
        <time>2015-03-27T14:17:57Z</time>
      </trkpt>
      <trkpt lat="48.53014" lon="7.41858">
        <ele>212.11</ele>
        <time>2015-03-27T14:17:58Z</time>
      </trkpt>
      <trkpt lat="48.53025" lon="7.41862">
        <ele>211.15</ele>
        <time>2015-03-27T14:17:59Z</time>
      </trkpt>
      <trkpt lat="48.53036" lon="7.41864">
        <ele>210.67</ele>
        <time>2015-03-27T14:18:00Z</time>
      </trkpt>
      <trkpt lat="48.53166" lon="7.41871">
        <ele>204.9</ele>
        <time>2015-03-27T14:18:13Z</time>
      </trkpt>
      <trkpt lat="48.53277" lon="7.41886">
        <ele>202.49</ele>
        <time>2015-03-27T14:18:25Z</time>
      </trkpt>
      <trkpt lat="48.53284" lon="7.41892">
        <ele>202.01</ele>
        <time>2015-03-27T14:18:26Z</time>
      </trkpt>
      <trkpt lat="48.5329" lon="7.41899">
        <ele>202.01</ele>
        <time>2015-03-27T14:18:27Z</time>
      </trkpt>
      <trkpt lat="48.53295" lon="7.41909">
        <ele>202.01</ele>
        <time>2015-03-27T14:18:28Z</time>
      </trkpt>
      <trkpt lat="48.533" lon="7.4192">
        <ele>202.01</ele>
        <time>2015-03-27T14:18:29Z</time>
      </trkpt>
      <trkpt lat="48.53303" lon="7.41932">
        <ele>201.53</ele>
        <time>2015-03-27T14:18:30Z</time>
      </trkpt>
      <trkpt lat="48.53306" lon="7.41945">
        <ele>201.53</ele>
        <time>2015-03-27T14:18:31Z</time>
      </trkpt>
      <trkpt lat="48.53307" lon="7.41958">
        <ele>201.05</ele>
        <time>2015-03-27T14:18:32Z</time>
      </trkpt>
      <trkpt lat="48.53307" lon="7.41971">
        <ele>201.05</ele>
        <time>2015-03-27T14:18:33Z</time>
      </trkpt>
      <trkpt lat="48.53306" lon="7.41984">
        <ele>200.57</ele>
        <time>2015-03-27T14:18:34Z</time>
      </trkpt>
      <trkpt lat="48.53305" lon="7.41998">
        <ele>200.09</ele>
        <time>2015-03-27T14:18:35Z</time>
      </trkpt>
      <trkpt lat="48.53273" lon="7.42196">
        <ele>198.65</ele>
        <time>2015-03-27T14:18:50Z</time>
      </trkpt>
      <trkpt lat="48.53274" lon="7.42209">
        <ele>198.65</ele>
        <time>2015-03-27T14:18:51Z</time>
      </trkpt>
      <trkpt lat="48.53276" lon="7.42221">
        <ele>198.17</ele>
        <time>2015-03-27T14:18:52Z</time>
      </trkpt>
      <trkpt lat="48.53279" lon="7.42232">
        <ele>198.17</ele>
        <time>2015-03-27T14:18:53Z</time>
      </trkpt>
      <trkpt lat="48.53284" lon="7.42242">
        <ele>198.65</ele>
        <time>2015-03-27T14:18:54Z</time>
      </trkpt>
      <trkpt lat="48.5329" lon="7.42251">
        <ele>198.65</ele>
        <time>2015-03-27T14:18:55Z</time>
      </trkpt>
      <trkpt lat="48.53297" lon="7.42259">
        <ele>198.65</ele>
        <time>2015-03-27T14:18:56Z</time>
      </trkpt>
      <trkpt lat="48.53304" lon="7.42267">
        <ele>198.65</ele>
        <time>2015-03-27T14:18:57Z</time>
      </trkpt>
      <trkpt lat="48.53312" lon="7.42273">
        <ele>198.65</ele>
        <time>2015-03-27T14:18:58Z</time>
      </trkpt>
      <trkpt lat="48.53385" lon="7.42332">
        <ele>199.13</ele>
        <time>2015-03-27T14:19:08Z</time>
      </trkpt>
      <trkpt lat="48.53392" lon="7.4234">
        <ele>199.13</ele>
        <time>2015-03-27T14:19:09Z</time>
      </trkpt>
      <trkpt lat="48.53397" lon="7.42349">
        <ele>199.13</ele>
        <time>2015-03-27T14:19:10Z</time>
      </trkpt>
      <trkpt lat="48.53486" lon="7.42465">
        <ele>199.13</ele>
        <time>2015-03-27T14:19:24Z</time>
      </trkpt>
      <trkpt lat="48.53581" lon="7.4257">
        <ele>199.61</ele>
        <time>2015-03-27T14:19:39Z</time>
      </trkpt>
      <trkpt lat="48.53584" lon="7.42579">
        <ele>199.61</ele>
        <time>2015-03-27T14:19:40Z</time>
      </trkpt>
      <trkpt lat="48.53586" lon="7.4259">
        <ele>199.61</ele>
        <time>2015-03-27T14:19:41Z</time>
      </trkpt>
      <trkpt lat="48.53586" lon="7.426">
        <ele>199.61</ele>
        <time>2015-03-27T14:19:42Z</time>
      </trkpt>
      <trkpt lat="48.53585" lon="7.42611">
        <ele>199.61</ele>
        <time>2015-03-27T14:19:43Z</time>
      </trkpt>
      <trkpt lat="48.53583" lon="7.42621">
        <ele>199.61</ele>
        <time>2015-03-27T14:19:44Z</time>
      </trkpt>
      <trkpt lat="48.53537" lon="7.4287">
        <ele>198.65</ele>
        <time>2015-03-27T14:20:06Z</time>
      </trkpt>
      <trkpt lat="48.535" lon="7.43006">
        <ele>200.09</ele>
        <time>2015-03-27T14:20:19Z</time>
      </trkpt>
      <trkpt lat="48.53484" lon="7.43066">
        <ele>200.57</ele>
        <time>2015-03-27T14:20:26Z</time>
      </trkpt>
      <trkpt lat="48.53481" lon="7.43071">
        <ele>200.57</ele>
        <time>2015-03-27T14:20:27Z</time>
      </trkpt>
      <trkpt lat="48.53462" lon="7.4308">
        <ele>203.46</ele>
        <time>2015-03-27T14:20:36Z</time>
      </trkpt>
      <trkpt lat="48.53402" lon="7.43028">
        <ele>197.69</ele>
        <time>2015-03-27T14:20:38Z</time>
      </trkpt>
      <trkpt lat="48.53314" lon="7.42977">
        <ele>187.59</ele>
        <time>2015-03-27T14:20:53Z</time>
      </trkpt>
      <trkpt lat="48.53299" lon="7.42969">
        <ele>185.67</ele>
        <time>2015-03-27T14:20:56Z</time>
      </trkpt>
      <trkpt lat="48.532" lon="7.42939">
        <ele>184.23</ele>
        <time>2015-03-27T14:21:13Z</time>
      </trkpt>
      <trkpt lat="48.53075" lon="7.42914">
        <ele>183.75</ele>
        <time>2015-03-27T14:21:34Z</time>
      </trkpt>
      <trkpt lat="48.52985" lon="7.42886">
        <ele>186.63</ele>
        <time>2015-03-27T14:21:51Z</time>
      </trkpt>
      <trkpt lat="48.52975" lon="7.42882">
        <ele>186.63</ele>
        <time>2015-03-27T14:21:53Z</time>
      </trkpt>
      <trkpt lat="48.5297" lon="7.42882">
        <ele>186.63</ele>
        <time>2015-03-27T14:21:54Z</time>
      </trkpt>
      <trkpt lat="48.52965" lon="7.42882">
        <ele>186.63</ele>
        <time>2015-03-27T14:21:55Z</time>
      </trkpt>
      <trkpt lat="48.5296" lon="7.42883">
        <ele>186.63</ele>
        <time>2015-03-27T14:21:56Z</time>
      </trkpt>
      <trkpt lat="48.52955" lon="7.42884">
        <ele>186.63</ele>
        <time>2015-03-27T14:21:57Z</time>
      </trkpt>
      <trkpt lat="48.52941" lon="7.42891">
        <ele>187.11</ele>
        <time>2015-03-27T14:22:00Z</time>
      </trkpt>
      <trkpt lat="48.52907" lon="7.42911">
        <ele>190</ele>
        <time>2015-03-27T14:22:07Z</time>
      </trkpt>
      <trkpt lat="48.52902" lon="7.42913">
        <ele>190.48</ele>
        <time>2015-03-27T14:22:08Z</time>
      </trkpt>
      <trkpt lat="48.52897" lon="7.42914">
        <ele>190.48</ele>
        <time>2015-03-27T14:22:09Z</time>
      </trkpt>
      <trkpt lat="48.52892" lon="7.42914">
        <ele>190.48</ele>
        <time>2015-03-27T14:22:10Z</time>
      </trkpt>
      <trkpt lat="48.52886" lon="7.42914">
        <ele>190.48</ele>
        <time>2015-03-27T14:22:11Z</time>
      </trkpt>
      <trkpt lat="48.52881" lon="7.42913">
        <ele>190.48</ele>
        <time>2015-03-27T14:22:12Z</time>
      </trkpt>
      <trkpt lat="48.52876" lon="7.42912">
        <ele>190.48</ele>
        <time>2015-03-27T14:22:13Z</time>
      </trkpt>
      <trkpt lat="48.5277" lon="7.42876">
        <ele>194.8</ele>
        <time>2015-03-27T14:22:33Z</time>
      </trkpt>
      <trkpt lat="48.52678" lon="7.42856">
        <ele>200.09</ele>
        <time>2015-03-27T14:22:51Z</time>
      </trkpt>
      <trkpt lat="48.52582" lon="7.42868">
        <ele>202.01</ele>
        <time>2015-03-27T14:23:09Z</time>
      </trkpt>
      <trkpt lat="48.52492" lon="7.42873">
        <ele>201.53</ele>
        <time>2015-03-27T14:23:26Z</time>
      </trkpt>
      <trkpt lat="48.52422" lon="7.4285">
        <ele>203.46</ele>
        <time>2015-03-27T14:23:40Z</time>
      </trkpt>
      <trkpt lat="48.52325" lon="7.42804">
        <ele>210.67</ele>
        <time>2015-03-27T14:23:59Z</time>
      </trkpt>
      <trkpt lat="48.52221" lon="7.42766">
        <ele>213.07</ele>
        <time>2015-03-27T14:24:19Z</time>
      </trkpt>
      <trkpt lat="48.52184" lon="7.42746">
        <ele>214.99</ele>
        <time>2015-03-27T14:24:31Z</time>
      </trkpt>
      <trkpt lat="48.52181" lon="7.42743">
        <ele>215.95</ele>
        <time>2015-03-27T14:24:33Z</time>
      </trkpt>
      <trkpt lat="48.52181" lon="7.4274">
        <ele>216.43</ele>
        <time>2015-03-27T14:24:34Z</time>
      </trkpt>
      <trkpt lat="48.52183" lon="7.42732">
        <ele>217.4</ele>
        <time>2015-03-27T14:24:36Z</time>
      </trkpt>
      <trkpt lat="48.52187" lon="7.42721">
        <ele>221.72</ele>
        <time>2015-03-27T14:24:48Z</time>
      </trkpt>
      <trkpt lat="48.52189" lon="7.42718">
        <ele>223.16</ele>
        <time>2015-03-27T14:25:03Z</time>
      </trkpt>
    </trkseg>
  </trk>
</gpx>